[[{"header":{"parameterUnit":"m.s-1","parameterCategory":1,"la1":30.6,"la2":28.766,"lo1":-90.7593,"lo2":-88.6598,"dy":0.0162,"dx":0.0183,"nx":116,"ny":114,"refTime":"2023-08-24T06:00:00:Z","depth":0,"parameterNumber":2,"parameterNumberName":"U-component_of_WINDS"},"data":[0.0,0.0,0.0,0.0,0.0,0.0,0.0,0.0,0.0,0.0,0.0,0.0,0.0,0.0,0.0,0.0,0.0,0.0,0.0,0.0,0.0,0.0,0.0,0.0,0.0,0.0,0.0,0.0,0.0,0.0,0.0,0.0,0.0,0.0,0.0,0.0,0.0,0.0,0.0,0.0,0.0,0.0,0.0,0.0,0.0,0.0,0.0,0.0,0.0,0.0,0.0,0.0,0.0,0.0,0.0,0.0,0.0,0.0,0.0,0.0,0.0,0.0,0.0,0.0,0.0,0.0,0.0,0.0,0.0,0.0,0.0,0.0,0.0,0.0,0.0,0.0,0.0,0.0,0.0,0.0,0.0,0.0,0.0,0.0,0.0,0.0,0.0,0.0,0.0,0.0,0.0,0.0,0.0,0.0,0.0,0.0,0.0,0.0,0.0,0.0,0.0,0.0,0.0,0.0,0.0,0.0,0.0,0.0,0.0,0.0,0.0,0.0,0.0,0.0,0.0,0.0,0.0,0.0,0.0,0.0,0.0,0.0,0.0,0.0,0.0,0.0,0.0,0.0,0.0,0.0,0.0,0.0,0.0,0.0,0.0,0.0,0.0,0.0,0.0,0.0,0.0,0.0,0.0,0.0,0.0,0.0,0.0,0.0,0.0,0.0,0.0,0.0,0.0,0.0,0.0,0.0,0.0,0.0,0.0,0.0,0.0,0.0,0.0,0.0,0.0,0.0,0.0,0.0,0.0,0.0,0.0,0.0,0.0,0.0,0.0,0.0,0.0,0.0,0.0,0.0,0.0,0.0,0.0,0.0,0.0,0.0,0.0,0.0,0.0,0.0,0.0,0.0,0.0,0.0,0.0,0.0,0.0,0.0,0.0,0.0,0.0,0.0,0.0,0.0,0.0,0.0,0.0,0.0,0.0,0.0,0.0,0.0,0.0,0.0,0.0,0.0,0.0,0.0,0.0,0.0,0.0,0.0,0.0,0.0,0.0,0.0,0.0,0.0,0.0,0.0,0.0,0.0,0.0,0.0,0.0,0.0,0.0,0.0,0.0,0.0,0.0,0.0,0.0,0.0,0.0,0.0,0.0,0.0,0.0,0.0,0.0,0.0,0.0,0.0,0.0,0.0,0.0,0.0,0.0,0.0,0.0,0.0,0.0,0.0,0.0,0.0,0.0,0.0,0.0,0.0,0.0,0.0,0.0,0.0,0.0,0.0,0.0,0.0,0.0,0.0,0.0,0.0,0.0,0.0,0.0,0.0,0.0,0.0,0.0,0.0,0.0,0.0,0.0,0.0,0.0,0.0,0.0,0.0,0.0,0.0,0.0,0.0,0.0,0.0,0.0,0.0,0.0,0.0,0.0,0.0,0.0,0.0,0.0,0.0,0.0,0.0,0.0,0.0,0.0,0.0,0.0,0.0,0.0,0.0,0.0,0.0,0.0,0.0,0.0,0.0,0.0,0.0,0.0,0.0,0.0,0.0,0.0,0.0,0.0,0.0,0.0,0.0,0.0,0.0,0.0,0.0,0.0,0.0,0.0,0.0,0.0,0.0,0.0,0.0,0.0,0.0,0.0,0.0,0.0,0.0,0.0,0.0,0.0,0.0,0.0,0.0,0.0,0.0,0.0,0.0,0.0,0.0,0.0,0.0,0.0,0.0,0.0,0.0,0.0,0.0,0.0,0.0,0.0,0.0,0.0,0.0,0.0,0.0,0.0,0.0,0.0,0.0,0.0,0.0,0.0,0.0,0.0,0.0,0.0,0.0,0.0,0.0,0.0,0.0,0.0,0.0,0.0,0.0,0.0,0.0,0.0,0.0,0.0,0.0,0.0,0.0,0.0,0.0,0.0,0.0,0.0,0.0,0.0,0.0,0.0,0.0,0.0,0.0,0.0,0.0,0.0,0.0,0.0,0.0,0.0,0.0,0.0,0.0,0.0,0.0,0.0,0.0,0.0,0.0,0.0,0.0,0.0,0.0,0.0,0.0,0.0,0.0,0.0,0.0,0.0,0.0,0.0,0.0,0.0,0.0,0.0,0.0,0.0,0.0,0.0,0.0,0.0,0.0,0.0,0.0,0.0,0.0,0.0,0.0,0.0,0.0,0.0,0.0,0.0,0.0,0.0,0.0,0.0,0.0,0.0,0.0,0.0,0.0,0.0,0.0,0.0,0.0,0.0,0.0,0.0,0.0,0.0,0.0,0.0,0.0,0.0,0.0,0.0,0.0,0.0,0.0,0.0,0.0,0.0,0.0,0.0,0.0,0.0,0.0,0.0,0.0,0.0,0.0,0.0,0.0,0.0,0.0,0.0,0.0,0.0,0.0,0.0,0.0,0.0,0.0,0.0,0.0,0.0,0.0,0.0,0.0,0.0,0.0,0.0,0.0,0.0,0.0,0.0,0.0,0.0,0.0,0.0,0.0,0.0,0.0,0.0,0.0,0.0,0.0,0.0,0.0,0.0,0.0,0.0,0.0,0.0,0.0,0.0,0.0,0.0,0.0,0.0,0.0,0.0,0.0,0.0,0.0,0.0,0.0,0.0,0.0,0.0,0.0,0.0,0.0,0.0,0.0,0.0,0.0,0.0,0.0,0.0,0.0,0.0,0.0,0.0,0.0,0.0,0.0,0.0,0.0,0.0,0.0,0.0,0.0,0.0,0.0,0.0,0.0,0.0,0.0,0.0,0.0,0.0,0.0,0.0,0.0,0.0,0.0,0.0,0.0,0.0,0.0,0.0,0.0,0.0,0.0,0.0,0.0,0.0,0.0,0.0,0.0,0.0,0.0,0.0,0.0,0.0,0.0,0.0,0.0,0.0,0.0,0.0,0.0,0.0,0.0,0.0,0.0,0.0,0.0,0.0,0.0,0.0,0.0,0.0,0.0,0.0,0.0,0.0,0.0,0.0,0.0,0.0,0.0,0.0,0.0,0.0,0.0,0.0,0.0,0.0,0.0,0.0,0.0,0.0,0.0,0.0,0.0,0.0,0.0,0.0,0.0,0.0,0.0,0.0,0.0,0.0,0.0,0.0,0.0,0.0,0.0,0.0,0.0,0.0,0.0,0.0,0.0,0.0,0.0,0.0,0.0,0.0,0.0,0.0,0.0,0.0,0.0,0.0,0.0,0.0,0.0,0.0,0.0,0.0,0.0,0.0,0.0,0.0,0.0,0.0,0.0,0.0,0.0,0.0,0.0,0.0,0.0,0.0,0.0,0.0,0.0,0.0,0.0,0.0,0.0,0.0,0.0,0.0,0.0,0.0,0.0,0.0,0.0,0.0,0.0,0.0,0.0,0.0,0.0,0.0,0.0,0.0,0.0,0.0,0.0,0.0,0.0,0.0,0.0,0.0,0.0,0.0,0.0,0.0,0.0,0.0,0.0,0.0,0.0,0.0,0.0,0.0,0.0,0.0,0.0,0.0,0.0,0.0,0.0,0.0,0.0,0.0,0.0,0.0,0.0,0.0,0.0,0.0,0.0,0.0,0.0,0.0,0.0,0.0,0.0,0.0,0.0,0.0,0.0,0.0,0.0,0.0,0.0,0.0,0.0,0.0,0.0,0.0,0.0,0.0,0.0,0.0,0.0,0.0,0.0,0.0,0.0,0.0,0.0,0.0,0.0,0.0,0.0,0.0,0.0,0.0,0.0,0.0,0.0,0.0,0.0,0.0,0.0,0.0,0.0,0.0,0.0,0.0,0.0,0.0,0.0,0.0,0.0,0.0,0.0,0.0,0.0,0.0,0.0,0.0,0.0,0.0,0.0,0.0,0.0,0.0,0.0,0.0,0.0,0.0,0.0,0.0,0.0,0.0,0.0,0.0,0.0,0.0,0.0,0.0,0.0,0.0,0.0,0.0,0.0,0.0,0.0,0.0,0.0,0.0,0.0,0.0,0.0,0.0,0.0,0.0,0.0,0.0,0.0,0.0,0.0,0.0,0.0,0.0,0.0,0.0,0.0,0.0,0.0,0.0,0.0,0.0,0.0,0.0,0.0,0.0,0.0,0.0,0.0,0.0,0.0,0.0,0.0,0.0,0.0,0.0,0.0,0.0,0.0,0.0,0.0,0.0,0.0,0.0,0.0,0.0,0.0,0.0,0.0,0.0,0.0,0.0,0.0,0.0,0.0,0.0,0.0,0.0,0.0,0.0,0.0,0.0,0.0,0.0,0.0,0.0,0.0,0.0,0.0,0.0,0.0,0.0,0.0,0.0,0.0,0.0,0.0,0.0,0.0,0.0,0.0,0.0,0.0,0.0,0.0,0.0,0.0,0.0,0.0,0.0,0.0,0.0,0.0,0.0,0.0,0.0,0.0,0.0,0.0,0.0,0.0,0.0,0.0,0.0,0.0,0.0,0.0,0.0,0.0,0.0,0.0,0.0,0.0,0.0,0.0,0.0,0.0,0.0,0.0,0.0,0.0,0.0,0.0,0.0,0.0,0.0,0.0,0.0,0.0,0.0,0.0,0.0,0.0,0.0,0.0,0.0,0.0,0.0,0.0,0.0,0.0,0.0,0.0,0.0,0.0,0.0,0.0,0.0,0.0,0.0,0.0,0.0,0.0,0.0,0.0,0.0,0.0,0.0,0.0,0.0,0.0,0.0,0.0,0.0,0.0,0.0,0.0,0.0,0.0,0.0,0.0,0.0,0.0,0.0,0.0,0.0,0.0,0.0,0.0,0.0,0.0,0.0,0.0,0.0,0.0,0.0,0.0,0.0,0.0,0.0,0.0,0.0,0.0,0.0,0.0,0.0,0.0,0.0,0.0,0.0,0.0,0.0,0.0,0.0,0.0,0.0,0.0,0.0,0.0,0.0,0.0,0.0,0.0,0.0,0.0,0.0,0.0,0.0,0.0,0.0,0.0,0.0,0.0,0.0,0.0,0.0,0.0,0.0,0.0,0.0,0.0,0.0,0.0,0.0,0.0,0.0,0.0,0.0,0.0,0.0,0.0,0.0,0.0,0.0,0.0,0.0,0.0,0.0,0.0,0.0,0.0,0.0,0.0,0.0,0.0,0.0,0.0,0.0,0.0,0.0,0.0,0.0,0.0,0.0,0.0,0.0,0.0,0.0,0.0,0.0,0.0,0.0,0.0,0.0,0.0,0.0,0.0,0.0,0.0,0.0,0.0,0.0,0.0,0.0,0.0,0.0,0.0,0.0,0.0,0.0,0.0,0.0,0.0,0.0,0.0,0.0,0.0,0.0,0.0,0.0,0.0,0.0,0.0,0.0,0.0,0.0,0.0,0.0,0.0,0.0,0.0,0.0,0.0,0.0,0.0,0.0,0.0,0.0,0.0,0.0,0.0,0.0,0.0,0.0,0.0,0.0,0.0,0.0,0.0,0.0,0.0,0.0,0.0,0.0,0.0,0.0,0.0,0.0,0.0,0.0,0.0,0.0,0.0,0.0,0.0,0.0,0.0,0.0,0.0,0.0,0.0,0.0,0.0,0.0,0.0,0.0,0.0,0.0,0.0,0.0,0.0,0.0,0.0,0.0,0.0,0.0,0.0,0.0,0.0,0.0,0.0,0.0,0.0,0.0,0.0,0.0,0.0,0.0,0.0,0.0,0.0,0.0,0.0,0.0,0.0,0.0,0.0,0.0,0.0,0.0,0.0,0.0,0.0,0.0,0.0,0.0,0.0,0.0,0.0,0.0,0.0,0.0,0.0,0.0,0.0,0.0,0.0,0.0,0.0,0.0,0.0,0.0,0.0,0.0,0.0,0.0,0.0,0.0,0.0,0.0,0.0,0.0,0.0,0.0,0.0,0.0,0.0,0.0,0.0,0.0,0.0,0.0,0.0,0.0,0.0,0.0,0.0,0.0,0.0,0.0,0.0,0.0,0.0,0.0,0.0,0.0,0.0,0.0,0.0,0.0,0.0,0.0,0.0,0.0,0.0,0.0,0.0,0.0,0.0,0.0,0.0,0.0,0.0,0.0,0.0,0.0,0.0,0.0,0.0,0.0,0.0,0.0,0.0,0.0,0.0,0.0,0.0,0.0,0.0,0.0,0.0,0.0,0.0,0.0,0.0,0.0,0.0,0.0,0.0,0.0,0.0,0.0,0.0,0.0,0.0,0.0,0.0,0.0,0.0,0.0,0.0,0.0,0.0,1.6683,1.66,0.0,0.0,0.0,0.0,0.0,0.0,0.0,0.0,0.0,0.0,0.0,0.0,0.0,0.0,0.0,0.0,0.0,0.0,0.0,0.0,0.0,0.0,0.0,0.0,0.0,0.0,0.0,0.0,0.0,0.0,0.0,0.0,0.0,0.0,0.0,0.0,0.0,0.0,0.9102,1.0178,1.2312,1.2793,1.3152,1.3379,0.0,0.0,0.0,0.0,0.0,0.0,0.0,0.0,0.0,0.0,0.0,0.0,0.0,0.0,0.0,0.0,0.0,0.0,0.0,0.0,0.0,0.0,0.0,0.0,0.0,0.0,0.0,0.0,0.0,0.0,0.0,0.0,0.0,0.0,0.0,0.0,0.0,0.0,0.0,0.0,0.0,0.0,0.0,0.0,0.0,0.0,0.0,0.0,0.0,0.0,0.0,0.0,0.0,0.0,0.0,0.0,0.0,0.0,0.0,0.0,0.0,0.0,0.0,0.0,0.0,0.0,0.0,0.0,0.0,0.0,1.8072,1.7319,0.0,0.0,0.0,0.0,0.0,0.0,0.0,0.0,0.0,0.0,0.0,0.0,0.0,0.0,0.0,0.0,0.0,0.0,0.0,0.0,0.0,0.0,0.0,0.0,0.9132,0.9067,0.8835,0.866,0.0,0.0,0.0,0.0,0.0,0.0,0.0,0.8946,0.9075,0.93,0.9822,1.0552,1.1533,1.2884,1.3577,1.3646,1.3189,0.0,0.0,0.0,0.0,0.0,0.0,0.0,0.0,0.0,0.0,0.0,0.0,0.0,0.0,0.0,0.0,0.0,0.0,0.0,0.0,0.0,0.0,0.0,0.0,0.0,0.0,0.0,0.0,0.0,0.0,0.0,0.0,0.0,0.0,0.0,0.0,0.0,0.0,0.0,0.0,0.0,0.0,0.0,0.0,0.0,0.0,0.0,0.0,0.0,0.0,0.0,0.0,0.0,0.0,0.0,0.0,0.0,0.0,0.0,0.0,0.0,0.0,0.0,2.0027,2.0273,2.0918,2.0918,2.0747,2.0445,1.9669,1.8306,1.6707,1.7737,0.0,0.0,0.0,0.0,0.0,0.0,0.0,0.0,0.0,0.0,0.0,0.0,0.0,0.0,0.0,0.0,0.0,0.0,0.0,0.0,0.0,0.9385,0.9394,0.9275,0.897,0.8852,0.0,0.0,0.0,0.0,0.0,0.0,0.9162,0.9164,0.9207,0.9294,1.1871,1.3102,1.3159,1.5855,1.6277,1.477,1.454,1.4745,1.5114,0.0,0.0,0.0,0.0,0.0,0.0,0.0,0.0,0.0,0.0,0.0,0.0,0.0,0.0,0.0,0.0,0.0,0.0,0.0,0.0,0.0,0.0,0.0,0.0,0.0,0.0,0.0,0.0,0.0,0.0,0.0,0.0,0.0,0.0,0.0,0.0,0.0,0.0,0.0,0.0,0.0,1.6399,1.5815,0.0,0.0,0.0,0.0,0.0,0.0,0.0,0.0,0.0,0.0,0.0,0.0,0.0,1.9877,2.1472,2.0814,2.047,2.047,2.0418,2.0456,2.0583,2.0583,2.0947,2.155,2.0904,0.0,1.9122,1.8229,0.0,0.0,0.0,0.0,0.0,0.0,0.0,0.0,0.0,0.0,0.0,0.0,0.0,0.0,0.0,0.0,0.0,0.0,0.0,0.0,0.0,1.0612,1.1086,1.1412,1.216,1.1996,1.0534,1.0831,0.0,0.0,0.0,0.9116,0.9206,0.9243,0.9789,1.0869,1.2467,1.3759,1.4775,1.6252,1.6918,1.6824,1.6463,1.5802,1.4923,1.3396,0.0,0.0,0.0,0.0,0.0,0.0,0.0,0.0,0.0,0.0,0.0,0.0,0.0,0.0,0.0,0.0,0.0,0.0,0.0,0.0,0.0,0.0,0.0,0.0,0.0,0.0,0.0,0.0,0.0,0.0,0.0,0.0,0.0,0.0,0.0,0.0,0.0,0.0,0.0,1.7288,1.7267,1.6532,1.7258,1.7676,0.0,0.0,0.0,0.0,0.0,0.0,0.0,0.0,0.0,2.0059,2.0012,2.0584,2.1839,2.0916,2.0753,2.1339,2.1339,2.1572,2.2024,2.2024,2.2434,2.3185,2.2776,2.2628,2.2491,2.003,1.8995,1.891,0.0,0.0,0.0,0.0,1.9211,1.9572,0.0,0.0,0.0,0.0,0.0,0.0,0.0,0.0,0.0,0.0,0.0,0.0,1.0995,1.1954,1.2854,1.3736,1.4761,1.4447,1.2352,1.227,0.0,0.0,0.9349,0.9273,0.932,0.9769,1.0738,1.2224,1.2869,1.4114,1.5938,1.6836,1.7609,1.8227,1.808,1.7065,1.5389,1.3813,1.2935,1.2499,0.0,0.0,0.0,0.0,0.0,0.0,0.0,0.0,0.0,0.0,0.0,0.0,0.0,0.0,0.0,0.0,0.0,0.0,0.0,0.0,0.0,0.0,0.0,0.0,0.0,0.0,0.0,0.0,0.0,0.0,0.0,0.0,0.0,0.0,0.0,0.0,0.0,1.8078,1.809,1.6947,1.7732,1.8126,0.0,0.0,0.0,0.0,0.0,0.0,2.0282,2.1062,2.1352,2.1004,2.0896,2.1295,2.2214,2.1286,2.1331,2.2293,2.2293,2.2617,2.3189,2.3189,2.3589,2.43,2.4015,2.4313,2.4769,2.1803,2.0281,1.979,1.9934,2.0002,2.0044,2.0314,2.0563,2.0969,0.0,0.0,0.0,0.0,0.0,0.0,0.0,0.0,0.0,0.0,0.0,1.0275,1.203,1.3059,1.4195,1.5623,1.5088,1.4508,1.4186,1.194,1.0616,1.0619,0.9834,0.9483,0.9675,1.1187,1.2173,1.2571,1.3492,1.4736,1.6343,1.8701,1.9167,1.8049,1.8996,1.8962,1.8017,1.5221,1.4472,1.4911,1.1348,0.0,0.0,0.0,0.0,0.0,0.0,0.0,0.0,0.0,0.0,0.0,0.0,0.0,0.0,0.0,0.0,0.0,0.0,0.0,0.0,0.0,0.0,0.0,0.0,0.0,0.0,0.0,0.0,0.0,0.0,0.0,0.0,0.0,0.0,0.0,0.0,0.0,0.0,1.6323,1.8307,0.0,0.0,0.0,0.0,1.9734,2.0451,2.0759,2.0506,2.131,2.1643,2.1292,2.1644,2.225,2.3124,2.2874,2.2891,2.3136,2.3136,2.3153,2.3189,2.3189,2.3589,2.43,2.4015,2.4313,2.4856,2.296,2.2175,2.2006,2.0559,2.0002,2.012,2.1226,2.1614,2.1831,0.0,0.0,0.0,0.0,0.0,0.0,0.0,0.0,0.9029,0.9332,1.0513,1.2004,1.3772,1.5814,1.7586,1.8933,1.8894,1.8173,1.6725,1.4405,1.2582,1.1507,1.0267,1.0118,1.1214,1.1801,1.3131,1.5245,1.5359,1.6375,1.8251,1.891,1.9468,1.9886,1.8774,1.8135,1.7765,1.5897,1.4699,1.3839,1.205,1.0747,0.0,0.0,0.0,0.0,0.0,0.0,0.0,0.0,0.0,0.0,0.0,0.0,0.0,0.0,0.0,0.0,0.0,0.0,0.0,0.0,0.0,0.0,0.0,0.0,0.0,0.0,0.0,0.0,0.0,0.0,0.0,0.0,0.0,0.0,0.0,0.0,0.0,1.8177,1.9229,0.0,1.891,1.9493,2.0087,2.048,2.1797,2.2339,2.1822,2.2815,2.3343,2.3229,2.3856,2.401,2.3632,2.3571,2.3223,2.2624,2.2624,2.2624,2.2624,2.2624,2.302,2.3732,2.3769,2.4397,2.5309,2.431,2.3558,2.2953,2.2395,2.2192,2.2226,2.263,2.3078,2.3676,0.0,0.0,0.0,0.0,0.0,0.0,0.0,0.0,0.9119,0.9418,1.1165,1.3123,1.5144,1.7725,1.996,2.1564,2.1035,1.9849,1.8078,1.5545,1.3457,1.2032,1.0849,1.058,1.1269,1.2352,1.3858,1.5784,1.5682,1.6844,1.914,1.9113,1.9234,1.9424,1.7892,1.7229,1.7177,1.6349,1.5325,1.4262,1.3785,1.2554,1.0947,0.0,0.0,0.0,0.0,0.0,0.0,0.0,0.0,0.0,0.0,0.0,0.0,0.0,0.0,0.0,0.0,0.0,0.0,0.0,0.0,0.0,0.0,0.0,0.0,0.0,0.0,0.0,0.0,0.0,0.0,0.0,0.0,0.0,0.0,1.9717,2.0249,2.0056,2.0713,2.1032,2.0795,2.0967,2.1312,2.1873,2.3206,2.3845,2.3526,2.4016,2.4275,2.4164,2.4436,2.4173,2.3371,2.3371,2.2993,2.231,2.231,2.231,2.2282,2.2358,2.2698,2.3201,2.3654,2.4344,2.5146,2.5172,2.4663,2.3871,2.3789,2.3765,2.3829,2.4215,2.4637,2.5257,0.0,0.0,0.0,0.0,0.0,0.0,0.0,0.8846,0.9157,0.9542,1.1349,1.3538,1.6077,1.8612,2.105,2.3304,2.1057,1.9127,1.8203,1.508,1.2913,1.2113,1.1544,1.08,0.979,1.2774,1.4253,1.4062,1.4427,1.6028,1.8792,1.9326,1.8496,1.6522,1.6559,1.6572,1.6572,1.6572,1.6572,1.6572,1.6491,1.5201,1.3073,0.0,0.0,0.0,0.0,0.0,0.0,0.0,0.0,0.0,0.0,0.0,0.0,0.0,0.0,0.0,0.0,0.0,0.0,0.0,0.0,0.0,0.0,0.0,0.0,0.0,0.0,0.0,0.0,0.0,0.0,0.0,0.0,0.0,1.9194,2.1709,2.3283,2.1729,2.2664,2.3156,2.2446,2.3004,2.3585,2.3905,2.4607,2.5147,2.5473,2.4751,2.4234,2.3967,2.3223,2.2684,2.2412,2.2367,2.2333,2.2344,2.2282,2.2299,2.2304,2.2495,2.2636,2.275,2.3694,2.4106,2.4301,2.5451,2.5464,2.4775,2.4605,2.454,2.4655,2.5769,2.6212,2.6375,0.0,0.0,0.0,0.0,0.0,0.0,0.0,0.9023,0.9323,0.964,1.2383,1.5078,1.7092,1.9506,2.165,2.3364,2.0045,1.8186,1.8919,1.4866,1.215,1.1544,1.0635,1.0543,1.1416,1.1159,1.2527,1.56,1.6462,1.7297,1.8054,1.7598,1.7076,1.6559,1.7375,1.7739,1.7739,1.7739,1.7739,1.7677,1.6848,1.6158,1.5718,0.0,0.0,0.0,0.0,0.0,0.0,0.0,0.0,0.0,0.0,0.0,0.0,0.0,0.0,0.0,0.0,0.0,0.0,0.0,0.0,0.0,0.0,0.0,0.0,0.0,0.0,0.0,0.0,0.0,0.0,0.0,2.2183,2.3309,2.1045,2.2021,2.2939,2.2875,2.3655,2.4133,2.39,2.432,2.4597,2.4694,2.4901,2.5034,2.5147,2.5217,2.5214,2.5139,2.5445,2.5297,2.4712,2.3875,2.334,2.3088,2.1892,2.1755,2.2529,2.2281,2.242,2.2948,2.3353,2.3746,2.4122,2.4125,2.4212,2.4437,2.5046,2.5304,2.5321,2.5652,2.6107,2.6601,0.0,0.0,0.0,0.0,0.0,0.0,0.0,0.9114,0.9411,0.9749,1.2236,1.4672,1.6458,1.8158,2.0123,2.2508,1.9039,1.6898,1.7266,1.4352,1.2609,1.2645,1.2899,1.3213,1.3557,1.2818,1.3789,1.6564,1.7927,1.8459,1.8201,1.7963,1.7869,1.7928,1.8581,1.8631,1.8204,1.8204,1.8468,1.8819,1.8154,1.7338,1.666,1.794,1.6835,1.4563,1.4563,1.4563,1.4513,1.4174,0.0,0.0,0.0,0.0,0.0,0.0,0.0,0.0,0.0,0.0,0.0,0.0,0.0,0.0,0.0,0.0,0.0,0.0,0.0,0.0,0.0,0.0,0.0,0.0,2.4632,2.5778,2.4025,2.3808,2.3981,2.4272,2.4695,2.5067,2.5372,2.5337,2.539,2.5699,2.5716,2.5716,2.5716,2.5426,2.5263,2.5263,2.5212,2.4926,2.4513,2.3865,2.3422,2.3225,2.2295,2.2162,2.2766,2.2607,2.2613,2.275,2.3216,2.3477,2.3507,2.3732,2.3983,2.4338,0.0,0.0,0.0,0.0,2.6065,2.6657,0.0,0.0,0.0,0.0,0.0,0.0,0.0,0.9183,0.941,0.9719,1.1426,1.3149,1.4607,1.5445,1.7293,2.0736,1.7683,1.5203,1.4359,1.3875,1.3974,1.4764,1.6508,1.7003,1.6006,1.6238,1.6635,1.7178,1.8637,1.9135,1.8732,1.9383,1.9612,1.9447,1.9698,1.9271,1.8392,1.853,1.9046,1.984,1.984,1.8671,1.6873,1.676,1.6785,1.6886,1.6886,1.6653,1.6712,1.9033,0.0,0.0,0.0,0.0,0.0,0.0,0.0,0.0,0.0,0.0,0.0,0.0,0.0,0.0,0.0,0.0,0.0,0.0,0.0,0.0,0.0,0.0,0.0,0.0,2.826,2.8574,2.7268,2.6308,2.5799,2.5865,2.5863,2.615,2.6877,2.6219,2.6017,2.6691,2.6673,2.6639,2.6639,2.5556,0.0,0.0,0.0,2.3342,2.3342,2.3147,2.3068,2.3104,2.2932,2.2932,2.3027,2.308,2.2885,2.2494,2.3197,2.3238,2.2858,2.381,2.424,2.434,2.4847,2.504,2.516,2.5447,2.6,2.6522,0.0,0.0,0.0,0.0,0.0,0.0,0.0,0.9314,0.9258,0.8888,1.1046,1.2473,1.2171,1.3316,1.5039,1.7369,1.4298,1.2517,1.3178,1.4671,1.5882,1.6646,1.6246,1.6741,1.8299,1.7765,1.7511,1.7593,1.726,1.7491,1.8266,1.9236,1.8789,1.7237,1.9007,1.9685,1.9547,2.0464,2.0618,2.017,2.017,1.9763,1.907,1.8204,1.8417,1.9171,1.9171,1.7618,1.6035,1.8835,1.8342,1.6057,1.3386,1.2559,0.0,0.0,0.0,0.0,0.0,0.0,0.0,0.0,0.0,0.0,0.0,0.0,0.0,0.0,0.0,0.0,0.0,0.0,0.0,2.9448,2.9782,2.9049,2.8306,2.7446,2.7064,2.7547,2.7456,2.7706,2.8467,2.7398,2.6743,2.6998,2.6569,2.6299,2.6299,2.6037,2.619,2.6727,2.5991,2.5584,2.5584,2.4092,2.3503,2.3877,2.257,0.0,2.3212,2.2393,2.2479,2.3348,2.2996,2.3084,2.34,2.3137,2.3254,2.3693,2.4761,2.544,2.5763,2.5403,2.5648,2.6087,0.0,0.0,0.0,0.0,0.0,0.0,0.0,0.9323,0.9324,0.9269,1.0418,1.1263,1.135,1.1553,1.2087,1.3016,1.1413,1.1296,1.3552,1.4689,1.594,1.7397,1.759,1.7867,1.8302,1.8359,1.7967,1.7113,1.7232,1.7276,1.7204,1.7779,1.7784,1.7368,1.7848,1.8714,1.9836,2.0401,2.0098,1.9148,1.9148,2.0061,2.1355,2.0263,2.0526,2.1082,1.8525,1.6676,1.5633,1.7113,1.7847,1.7965,1.6873,1.5727,1.4613,0.0,0.0,0.0,0.0,0.0,0.0,0.0,0.0,0.0,0.0,0.0,0.0,0.0,0.0,2.226,2.226,0.0,2.5782,2.9683,2.9805,2.9201,2.8589,2.8379,2.8153,2.7696,2.7571,2.7662,2.8063,2.7476,2.696,2.6659,2.639,2.603,2.5703,2.5448,2.5444,2.579,2.5212,2.4874,2.4874,2.3948,2.3611,2.3853,2.273,2.2492,2.2986,2.2101,2.2033,2.2651,2.2694,2.2875,2.3172,2.3137,2.3436,2.3909,2.4265,2.4894,2.5529,2.4874,2.5046,2.5603,0.0,0.0,0.0,0.0,0.0,0.0,0.0,0.9331,0.9417,0.9601,0.9779,1.0063,1.0501,0.9969,0.9478,0.9268,0.9377,1.0903,1.4286,1.4623,1.5702,1.7917,1.8717,1.8648,1.7659,1.8238,1.7849,1.6367,1.7311,1.7289,1.6336,1.6216,1.6658,1.7503,1.6603,1.7219,1.8951,1.9306,1.8873,1.793,1.7475,1.923,2.2017,2.1163,2.1368,2.1519,1.7002,1.541,1.541,1.541,1.7002,1.9032,1.9631,1.8731,1.7049,1.4801,1.4563,0.0,0.0,0.0,0.0,0.0,0.0,0.0,0.0,2.3941,2.7348,2.7553,2.7601,2.7601,2.7601,2.7437,2.7797,2.9528,2.9327,2.8826,2.8336,2.8481,2.8202,2.7005,2.7182,2.7482,2.7625,2.7158,2.6619,2.6125,2.5853,2.5399,2.4764,2.4484,2.4394,2.4438,2.3985,2.3746,2.3746,2.3613,2.3555,2.3555,2.3054,2.2822,2.2822,2.2118,2.1911,2.2056,2.2762,2.3115,2.3298,2.3807,2.423,2.4583,2.4158,2.4514,2.5187,2.4469,2.4641,2.5249,0.0,0.0,0.0,0.0,0.0,0.0,0.0,0.0,0.9353,0.8736,0.9375,0.9371,0.7989,0.8384,0.8545,0.8054,0.9021,1.1031,1.4286,1.5112,1.6577,1.9014,1.7769,1.7262,1.7777,1.7289,1.6662,1.5874,1.6434,1.6591,1.6384,1.5716,1.5312,1.5084,1.5378,1.5648,1.6012,1.7543,1.8148,1.7804,1.5619,1.6269,1.8576,1.8419,1.8439,1.8288,1.6156,1.541,1.541,1.541,1.5633,1.6348,1.898,2.0326,2.0501,1.8292,1.6559,1.5336,1.5345,1.575,1.6906,1.9826,2.0812,2.1749,0.0,2.5929,2.7708,3.0302,3.0876,3.0876,3.0876,2.9993,2.9679,3.0974,2.9197,2.7569,2.744,2.6524,2.5807,2.5612,2.7111,2.8435,2.9102,2.7009,2.5621,2.5682,2.4568,2.3639,2.2991,2.389,2.4441,2.4493,2.4351,2.4298,2.4298,2.3719,2.3442,2.3442,2.334,2.3303,2.3303,2.263,2.263,2.3238,2.3957,2.4669,2.5282,2.5344,2.5422,2.5468,2.539,2.5468,2.547,2.4806,2.4902,2.5455,0.0,0.0,0.0,0.0,0.0,0.0,0.0,0.0,0.0,0.9166,0.9561,0.9576,0.8866,0.8993,0.9018,0.875,0.9255,1.0921,1.4053,1.4563,1.5561,1.7453,1.7006,1.6282,1.5376,1.6291,1.6414,1.5618,1.5517,1.5632,1.5903,1.4903,1.4514,1.4719,1.4631,1.4951,1.5459,1.6191,1.5794,1.4332,1.0645,0.9747,1.094,1.3668,1.4292,1.3632,1.2843,1.3208,0.0,1.1621,1.2275,1.4136,1.538,1.7069,1.8147,1.5915,1.5635,1.6252,1.7194,1.8176,1.9476,2.1481,2.2832,2.4101,2.5667,2.7273,2.8732,2.9816,3.1038,3.1815,3.1473,3.047,2.965,2.9689,2.784,2.6493,2.6659,2.5951,2.526,2.4941,2.5589,2.6219,2.6535,2.5247,2.4396,2.4439,2.3932,2.3478,2.3137,2.3554,2.3815,2.3868,2.3815,2.3815,2.3815,2.3516,2.3393,2.3393,2.2989,2.283,2.2777,2.2159,2.2484,2.3523,2.3831,2.4595,2.5615,2.5615,2.5615,2.5615,2.5615,2.5615,2.557,2.53,2.5318,2.5621,0.0,0.0,0.0,0.0,0.0,0.0,0.0,0.0,0.0,0.0,0.9481,0.9673,0.9721,0.9599,0.95,0.9491,0.9525,1.0485,1.2657,1.3289,1.4268,1.5822,1.5866,1.5002,1.315,1.4751,1.5374,1.4868,1.4763,1.4744,1.4824,1.4143,1.3956,1.4197,1.4153,1.4091,1.4076,1.4076,1.3212,1.1455,0.7148,0.5428,0.587,1.0224,1.061,0.9016,0.9825,1.0615,1.0985,0.9057,1.005,1.212,1.2462,1.3928,1.5377,1.4387,1.5452,1.72,1.8405,1.9474,2.0775,2.2951,2.4997,2.6647,2.7229,2.8671,2.9841,2.9367,3.0525,3.1381,3.0661,2.9837,2.9016,2.8226,2.6671,2.5501,2.5396,2.4902,2.4307,2.3672,2.3514,2.3366,2.3178,2.3185,2.3159,2.3084,2.3026,2.2882,2.2655,2.3098,2.3232,2.3071,2.3232,2.3312,2.3312,2.3312,2.3312,2.3312,2.2847,2.2661,2.2816,2.2401,2.2842,2.4027,2.4027,2.4703,2.5739,2.5739,2.5739,2.5775,2.5599,2.5526,2.5526,2.5526,2.5682,2.5946,0.0,0.0,0.0,0.0,0.0,0.0,0.0,0.0,0.0,0.0,0.0,0.0,0.0,0.9508,0.955,0.9683,0.9698,0.9646,0.9556,1.1252,1.3042,1.4767,1.4161,1.3184,1.1888,1.2359,1.2841,1.3283,1.4224,1.4118,1.2968,1.3552,1.3515,1.3017,1.376,1.2831,1.0744,1.0744,1.0701,1.0347,0.6802,0.5428,0.5756,0.9291,0.8171,0.5037,0.7872,0.8138,0.7475,0.9552,1.0141,1.0174,1.1274,1.2413,1.3716,1.587,1.7295,1.8153,1.8209,1.8454,1.9746,2.4273,2.7093,2.9035,2.9781,3.0539,3.0825,2.9956,2.9854,2.9536,2.8483,2.826,2.8008,2.7188,2.6035,2.4747,2.3406,2.2745,2.2135,2.1391,2.1008,2.0528,1.9793,2.1053,2.1834,2.1834,2.1645,2.131,2.0822,2.2266,2.2896,2.2355,2.2858,2.3135,2.3135,2.3135,2.3135,2.3135,2.3075,2.3376,2.3916,2.3916,2.4323,2.5071,2.5071,2.5472,2.6155,2.6155,2.6155,2.61,2.5633,2.5398,2.5398,2.5398,2.5878,2.6647,0.0,0.0,0.0,0.0,0.0,0.0,0.0,0.0,0.0,0.0,0.0,0.0,0.0,0.0,0.0,0.0,0.9193,0.9581,0.9788,1.0847,1.1495,1.1565,1.2411,1.2327,1.1038,1.168,1.243,1.3198,1.2934,1.2877,1.3069,1.2232,1.1856,1.2008,1.2915,1.2312,1.0624,1.0624,0.9256,0.7055,0.5885,0.5428,0.5557,0.6728,0.6318,0.5083,0.0,0.4734,0.5087,0.7363,0.8067,0.8288,0.994,1.1238,1.2806,1.625,1.7446,1.8084,2.0317,2.1875,2.3555,2.6252,2.8204,2.9608,3.0308,3.0926,3.0862,2.8795,2.8589,2.8023,2.5528,2.5123,2.503,2.4734,2.4206,2.3755,2.3739,2.2714,2.1849,2.1432,2.1092,2.0427,1.9149,1.9458,2.0245,2.1511,2.0532,2.0592,2.2214,2.1764,2.1596,2.1995,2.1646,2.1906,2.2844,2.2844,2.2962,2.3224,2.2274,2.2779,2.4531,2.356,2.4054,2.563,2.563,2.6042,2.6717,2.6345,2.6414,2.6648,2.5728,2.5825,2.6359,2.5688,2.5799,2.6323,0.0,0.0,0.0,0.0,0.0,0.0,0.0,0.0,0.0,0.0,0.0,0.0,0.0,0.0,0.0,0.0,0.0,0.9313,0.9487,1.0034,1.0156,0.9772,1.1076,1.1556,1.1048,1.1864,1.1452,0.972,0.9626,1.0016,1.083,1.0196,1.0236,1.0882,1.1743,1.1886,1.131,0.9292,0.712,0.5119,0.5339,0.5167,0.4783,0.4783,0.4649,0.0,0.3379,0.3802,0.4918,0.5561,0.6337,0.7208,0.8465,1.0338,1.2675,1.5974,1.7629,1.9036,2.1822,2.387,2.5709,2.7822,2.9,2.9714,3.01,2.9984,2.9078,2.6604,2.5987,2.5127,2.2334,2.202,2.2129,2.1889,2.1895,2.2284,2.3251,2.2307,2.1616,2.1938,2.1403,2.0488,1.926,1.8817,1.9033,2.0017,1.9598,2.0064,2.1789,2.1221,2.1316,2.236,2.1835,2.1997,2.2924,2.2924,2.3024,2.3278,2.259,2.3109,2.4546,2.3652,2.3969,2.5319,2.5653,2.6033,2.6481,2.6134,2.6188,2.6352,2.5143,2.497,2.5336,2.4279,2.4242,2.4728,0.0,0.0,0.0,0.0,0.0,0.0,0.0,0.0,0.0,0.0,0.0,0.0,0.0,0.0,0.0,0.0,0.0,0.0,0.8575,0.8775,0.905,0.9328,0.9982,1.0713,1.1474,1.2334,0.9727,0.3506,0.483,0.5871,0.657,0.7599,0.863,0.9625,1.028,1.1379,1.2344,0.6791,0.4453,0.4474,0.5023,0.4573,0.3534,0.3534,0.3274,0.3006,0.358,0.5178,0.6677,0.4487,0.5251,0.7121,0.7346,0.9977,1.3382,1.5366,1.8072,2.0816,2.2712,2.4355,2.6206,2.8804,2.9455,2.9389,2.9287,2.7788,2.5751,2.3381,2.2173,2.0917,1.8942,1.9104,1.9413,1.8863,1.9393,2.0395,2.2043,2.1394,2.128,2.2654,2.172,2.0679,1.9947,1.9125,1.833,1.7667,1.884,1.9698,1.9816,2.0631,2.1755,2.3132,2.3144,2.3156,2.3179,2.327,2.3293,2.3293,2.3857,2.4105,2.4198,2.4105,2.4105,2.4198,2.5154,2.5569,2.5569,2.5544,2.5544,2.544,2.3838,2.3018,2.2628,2.1606,2.156,2.2309,0.0,0.0,0.0,0.0,0.0,0.0,0.0,0.0,0.0,0.0,0.0,0.0,0.0,0.0,0.0,0.0,0.0,0.0,0.8007,0.7739,0.7502,0.7337,0.6988,0.6983,0.7401,0.7245,0.5967,0.3506,0.3864,0.4725,0.6004,0.6229,0.6967,0.8046,0.7574,0.8312,0.96,0.5533,0.3588,0.3149,0.2846,0.2815,0.2946,0.2946,0.4178,0.5923,0.6067,0.6507,0.6894,0.6337,0.7105,0.8896,1.2237,1.3725,1.487,1.8145,1.9583,2.0786,2.4103,2.6343,2.7925,2.8381,2.8487,2.8071,2.6609,2.5055,2.3184,2.1027,1.9295,1.7614,1.5659,1.6726,1.7772,1.7302,1.9125,2.0831,2.1423,2.1613,2.1609,2.1472,2.1597,2.1063,1.9435,1.9739,1.9448,1.7981,1.8223,1.9281,2.1241,2.0369,2.0276,2.1285,2.0673,2.0831,2.1886,2.2883,2.3432,2.3432,2.254,2.2689,2.3614,2.2595,2.27,2.3697,2.472,2.5153,2.5129,2.4731,2.4804,2.4929,2.3018,2.2695,2.3115,2.1711,2.193,2.2971,0.0,0.0,0.0,0.0,0.0,0.0,0.0,0.0,0.0,0.0,0.0,0.0,0.0,0.0,0.0,0.0,0.0,0.0,0.0,0.7121,0.6783,0.657,0.5904,0.5325,0.4865,0.4538,0.4109,0.3506,0.3506,0.3949,0.4794,0.4755,0.4975,0.5371,0.5117,0.5278,0.5605,0.3648,0.2627,0.0,0.0,0.241,0.284,0.4125,0.5262,0.6326,0.6834,0.7361,0.8037,0.9755,1.1936,1.4285,1.6027,1.672,1.7309,1.9443,2.061,2.2024,2.5528,2.7095,2.7801,2.808,2.6898,2.526,2.3818,2.1549,1.931,1.7362,1.6058,1.4829,1.338,1.4761,1.6147,1.5988,1.8084,2.0001,2.0725,2.1235,2.164,2.2032,2.1837,2.1242,2.0174,2.0432,2.0219,1.9242,1.8779,1.9183,2.0713,2.0028,2.0072,2.1188,2.0769,2.1114,2.2312,2.2646,2.3073,2.3514,2.221,2.2083,2.284,2.1988,2.2083,2.2925,2.3891,2.4337,2.4313,2.4035,2.4082,2.4207,2.2551,2.2179,2.2437,2.1642,2.1922,2.2761,0.0,0.0,0.0,0.0,0.0,0.0,0.0,0.0,0.0,0.0,0.0,0.0,0.0,0.0,0.0,0.0,0.0,0.0,0.0,0.0,0.6485,0.6374,0.5841,0.4952,0.3751,0.3626,0.3605,0.3647,0.3605,0.3584,0.3584,0.3478,0.3209,0.2815,0.3135,0.2764,0.1926,0.1926,0.1926,0.1971,0.2503,0.2845,0.3302,0.0,0.6159,0.5496,0.6908,0.8088,0.9526,1.2903,1.6626,1.9562,1.8446,1.8825,1.9732,1.992,2.1365,2.3477,2.6464,2.687,2.6543,2.7244,2.4873,2.2162,2.0809,1.7989,1.5191,1.3532,1.3024,1.26,1.1941,1.3399,1.4766,1.5102,1.6802,1.8572,2.0048,2.059,2.1438,2.2955,2.2104,2.1386,2.1397,2.1008,2.0742,2.0742,2.0049,1.9639,1.9639,1.9922,2.0655,2.1987,2.1935,2.2273,2.3172,2.2435,2.2403,2.3073,2.2328,2.1962,2.1811,2.1811,2.1811,2.1886,2.285,2.3294,2.3294,2.3294,2.3294,2.322,2.2178,2.1647,2.1439,2.146,2.181,2.2423,0.0,0.0,0.0,0.0,0.0,0.0,0.0,0.0,0.0,0.0,0.6719,0.6104,0.0,0.0,0.0,0.0,0.0,0.0,0.0,0.0,0.0,0.5778,0.5385,0.5069,0.4834,0.4293,0.4138,0.4403,0.4138,0.3986,0.3986,0.3311,0.314,0.3315,0.2478,0.2262,0.2558,0.2558,0.2558,0.2565,0.2671,0.356,0.4908,0.5405,0.0,0.0,0.8668,0.9851,1.0178,1.0997,1.3087,1.5652,1.7853,1.8944,1.9719,2.1115,2.1947,2.2938,2.5174,2.5655,2.5294,2.4142,2.2952,2.1316,1.8024,1.5416,1.3483,1.2539,1.1738,1.1328,1.1742,1.3322,1.4776,1.5273,1.6519,1.7896,1.9284,2.024,2.0889,2.11,2.186,2.2123,2.1303,2.1477,2.166,2.166,2.1514,2.1435,2.1435,2.1162,2.1281,2.1876,2.154,2.1422,2.158,2.1865,2.1669,2.1088,2.1735,2.1593,2.0867,2.0867,2.0867,2.0934,2.1811,2.2253,2.2253,2.2253,2.2253,2.2178,2.1221,2.1247,2.187,2.1492,2.2457,2.3871,0.0,0.0,0.0,0.0,0.0,0.0,0.0,0.7996,0.8047,0.8148,0.7443,0.7032,0.7255,0.7182,0.7185,0.0,0.0,0.0,0.0,0.0,0.0,0.0,0.0,0.0,0.587,0.5049,0.4706,0.4854,0.0,0.4171,0.4089,0.3486,0.3302,0.3485,0.2934,0.2685,0.2746,0.3658,0.4048,0.4048,0.4048,0.4564,0.5309,0.0,0.0,0.0,0.9402,0.9549,0.8699,0.9362,1.0672,1.2767,1.718,1.9019,1.9869,2.1955,2.2471,2.2839,2.4851,2.4372,2.3211,2.2969,2.0894,1.8218,1.5764,1.347,1.1578,1.0569,1.0609,1.0914,1.1216,1.2851,1.4283,1.468,1.5685,1.6846,1.8152,1.9083,1.9782,2.022,2.1051,2.1499,2.1211,2.1631,2.1982,2.2197,2.2207,2.2119,2.1894,2.1689,2.167,2.1875,2.168,2.1688,2.1987,2.1696,2.1464,2.1298,2.1298,2.1011,2.0566,2.0566,2.0566,2.0644,2.1078,2.1298,2.1298,2.1298,2.1298,2.1221,2.0789,2.0857,2.1278,2.1572,2.2455,2.3514,0.0,0.0,0.0,0.0,0.0,0.0,0.0,0.8061,0.8077,0.822,0.7955,0.7739,0.7739,0.765,0.7514,0.0,0.0,0.0,0.0,0.0,0.0,0.0,0.0,0.0,0.6483,0.0,0.0,0.5333,0.4802,0.0,0.0,0.0,0.0,0.0,0.3765,0.3513,0.2985,0.4597,0.5309,0.0,0.0,0.5498,0.5797,0.0,0.0,0.0,0.0,0.8268,0.7106,0.7764,0.859,1.0191,1.4999,1.7684,1.9444,2.1606,2.1968,2.2026,2.3876,2.2688,2.1007,2.1398,1.8625,1.5431,1.4022,1.2013,1.0208,0.9194,0.9969,1.0864,1.0965,1.2453,1.3705,1.4047,1.4755,1.5699,1.7076,1.787,1.867,1.9664,2.041,2.0986,2.1338,2.1846,2.2295,2.2617,2.2646,2.2461,2.2041,2.2109,2.2158,2.2158,2.207,2.2197,2.2505,2.166,2.1382,2.1659,2.0934,2.0566,2.0566,2.0566,2.0566,2.0566,2.0566,2.0566,2.0566,2.0566,2.0625,2.0713,2.0713,2.0909,2.1291,2.2035,2.264,2.327,0.0,0.0,0.0,0.0,0.0,0.0,0.0,0.798,0.7797,0.7692,0.7437,0.7272,0.7272,0.747,0.756,0.0,0.0,0.0,0.0,0.0,0.0,0.0,0.0,0.0,0.0,0.0,0.0,0.6097,0.5561,0.0,0.0,0.0,0.0,0.0,0.0,0.45,0.3499,0.4765,0.0,0.0,0.0,0.0,0.0,0.0,0.0,0.0,0.0,0.6302,0.686,0.5937,0.6341,0.7627,0.9632,1.3396,1.743,1.8893,1.9119,1.9307,2.0722,2.0387,1.9123,1.7016,1.6017,1.4993,1.2947,1.1256,1.0071,0.9766,1.0312,1.0965,1.1616,1.2393,1.3254,1.3994,1.3883,1.4429,1.6484,1.7194,1.7996,1.9189,2.0781,2.1787,2.1816,2.2549,2.3047,2.3076,2.3076,2.29,2.248,2.2812,2.3027,2.3027,2.2656,2.233,2.1991,2.1426,2.1006,2.0712,2.0644,2.0566,2.0566,2.0566,2.0566,2.0566,2.0566,2.0566,2.0566,2.0566,2.081,2.1172,2.1172,2.194,2.3036,2.3116,2.3774,2.4615,0.0,0.0,0.0,0.0,0.0,0.0,0.8472,0.8185,0.8034,0.8171,0.7625,0.7275,0.7488,0.7414,0.7317,0.7203,0.0,0.0,0.0,0.0,0.0,0.0,0.0,0.0,0.0,0.0,0.6149,0.602,0.601,0.0,0.0,0.0,0.0,0.0,0.0,0.4953,0.4609,0.5084,0.0,0.0,0.0,0.0,0.0,0.0,0.0,0.0,0.0,0.0,0.4387,0.4297,0.5497,0.7134,0.7762,0.9494,1.2071,1.5922,1.7355,1.7977,1.91,1.8897,1.8172,1.6963,1.5234,1.3593,1.2344,1.1083,1.0044,0.9323,1.0064,1.0762,1.0618,1.1475,1.2339,1.2665,1.2693,1.325,1.4941,1.5312,1.6201,1.8271,1.8976,1.9669,2.0643,2.0634,2.0961,2.1924,2.2677,2.3066,2.29,2.2812,2.2764,2.2764,2.2598,2.2187,2.1504,2.1582,2.1269,2.0566,2.084,2.083,2.0576,2.084,2.0967,2.0957,2.0684,2.0713,2.0947,2.0674,2.083,2.123,2.123,2.1727,2.2493,2.2493,2.29,2.3463,0.0,0.0,0.0,0.0,0.0,0.8846,0.8708,0.8409,0.818,0.8186,0.7516,0.7112,0.7351,0.7175,0.6983,0.6878,0.6811,0.0,0.0,0.0,0.0,0.0,0.0,0.0,0.0,0.0,0.643,0.6111,0.6312,0.6207,0.0,0.0,0.5461,0.4751,0.0,0.0,0.0,0.0,0.0,0.0,0.0,0.0,0.0,0.0,0.0,0.0,0.0,0.0,0.0,0.0,0.0,0.6567,0.6914,0.7214,0.8322,1.3014,1.4898,1.583,1.7025,1.7021,1.6744,1.6497,1.4503,1.2438,1.1764,1.0739,0.9742,0.8992,0.973,1.0383,1.0035,1.0989,1.1814,1.1814,1.2148,1.2783,1.3799,1.417,1.5098,1.7187,1.7376,1.8046,1.9952,2.0101,2.0377,2.1284,2.2403,2.3135,2.3135,2.2744,2.2568,2.2695,2.2705,2.2295,2.1435,2.1728,2.1445,2.0566,2.0889,2.0869,2.0576,2.1025,2.1162,2.1035,2.0977,2.0986,2.1025,2.084,2.1025,2.1426,2.1426,2.1768,2.2256,2.2256,2.2441,2.2712,0.0,0.0,0.0,0.0,0.0,0.0,0.8891,0.8612,0.8104,0.7318,0.6861,0.6599,0.6611,0.6599,0.6599,0.6599,0.6966,0.0,0.0,0.0,0.0,0.0,0.0,0.0,0.0,0.0,0.6599,0.6599,0.6466,0.6846,0.7666,0.7666,0.7676,0.7598,0.0,0.0,0.0,0.0,0.0,0.0,0.0,0.0,0.0,0.0,0.0,0.0,0.0,0.0,0.0,0.0,0.0,0.0,0.0,0.6985,0.7533,1.0154,1.1425,1.2298,1.4007,1.4508,1.4536,1.4529,1.3407,1.2078,1.1202,1.0087,0.9146,0.8956,0.9358,0.9913,1.0302,1.1164,1.1814,1.1814,1.2393,1.3027,1.3457,1.4248,1.5107,1.6037,1.6562,1.7819,2.0333,2.2129,2.2589,2.1418,2.2413,2.3135,2.3135,2.2744,2.2705,2.3125,2.3135,2.2734,2.1885,2.1885,2.1445,2.0566,2.0566,2.0566,2.0576,2.1025,2.0996,2.0625,2.1494,2.1377,2.0605,2.1045,2.1484,2.1875,2.1875,2.2393,2.3125,2.3125,2.3125,2.3076,0.0,0.0,0.0,0.0,0.0,0.0,0.0,0.809,0.7909,0.7695,0.7058,0.6599,0.6599,0.6599,0.6599,0.6599,0.6723,0.0,0.0,0.0,0.0,0.0,0.0,0.0,0.0,0.0,0.7338,0.8863,0.8827,0.8423,0.7725,0.8926,0.8848,0.7676,0.7121,0.7189,0.0,0.0,0.0,0.0,0.0,0.0,0.6936,0.0,0.0,0.0,0.0,0.0,0.0,0.0,0.0,0.0,0.0,0.0,0.0,0.8795,0.9286,1.0103,1.1414,1.181,1.1913,1.2085,1.1303,1.0388,0.9907,0.9664,0.9394,0.8855,0.9604,1.0175,0.9696,1.0569,1.1314,1.1173,1.2098,1.293,1.3066,1.3809,1.4883,1.6348,1.7081,1.7301,1.6823,1.8975,2.0201,1.9847,2.1891,2.3135,2.3135,2.3018,2.2871,2.2715,2.2715,2.2441,2.1894,2.1885,2.1592,2.1025,2.1025,2.1025,2.1045,2.1484,2.1602,2.1484,2.1768,2.1728,2.1475,2.1621,2.1934,2.2314,2.2314,2.2656,2.3135,2.3135,2.3135,2.3125,0.0,0.0,0.0,0.0,0.0,0.0,0.0,0.7379,0.7365,0.7407,0.6927,0.6599,0.6599,0.6599,0.6599,0.6599,0.6599,0.0,0.0,0.0,0.0,0.0,0.0,0.0,0.0,0.6599,0.7421,0.9062,0.9062,0.8595,0.7734,0.9482,0.9375,0.7695,0.7695,0.7695,0.0,0.0,0.0,0.0,0.0,0.0,0.7695,0.0,0.0,0.0,0.0,0.0,0.0,0.0,0.0,0.0,0.0,0.0,0.0,0.0,0.7982,0.84,0.9615,1.0158,1.043,1.0644,1.0087,0.9462,0.9267,0.9267,0.9251,0.8989,0.9604,0.9994,0.9366,1.0333,1.1125,1.0856,1.1999,1.2939,1.3096,1.3848,1.4725,1.5771,1.7156,1.7119,1.4858,1.7802,1.963,1.9239,2.1627,2.3135,2.3135,2.3135,2.3018,2.2754,2.2754,2.2549,2.2129,2.2129,2.1904,2.1475,2.1309,2.123,2.125,2.1689,2.1699,2.1416,2.1904,2.1943,0.0,2.1816,2.2129,2.251,2.251,2.2773,2.3135,2.3135,2.3135,2.3135,0.0,0.0,0.0,0.0,0.0,0.0,0.0,0.6599,0.6599,0.6599,0.6599,0.6599,0.6599,0.6599,0.6599,0.6599,0.0,0.0,0.0,0.0,0.0,0.0,0.0,0.0,0.6599,0.6599,0.7026,0.786,0.7754,0.7695,0.7734,0.9482,0.9434,0.787,0.7754,0.7695,0.7695,0.0,0.0,0.0,0.0,0.0,0.0,0.0,0.0,0.0,0.0,0.0,0.0,0.0,0.0,0.0,0.0,0.0,0.0,0.0,0.0,0.0,0.0,0.9279,0.9834,0.9893,0.9543,0.9092,0.9175,0.8944,0.0,0.9236,0.9451,0.9584,0.9522,1.046,1.1172,1.0906,1.2026,1.3066,1.3447,1.4346,1.4915,1.4629,1.675,1.7225,1.4468,1.8222,2.0421,1.9703,2.1756,2.3135,2.3135,2.3135,2.3125,2.3096,2.3125,2.2949,2.2559,2.2529,2.2314,2.1924,2.1484,2.1299,2.1338,2.1748,2.1465,2.0732,2.2002,2.207,2.1318,2.1787,2.2207,2.2559,2.2559,2.2793,2.3135,2.3135,2.3135,2.3135,0.0,0.0,0.0,0.0,0.0,0.0,0.0,0.0,0.0,0.0,0.6599,0.6599,0.6599,0.6599,0.6599,0.0,0.0,0.0,0.0,0.0,0.0,0.0,0.0,0.0,0.6599,0.6599,0.7502,0.9384,0.8241,0.7695,0.7734,0.9482,1.0068,0.9629,0.8279,0.7695,0.7695,0.7695,0.0,0.0,0.0,0.0,0.0,0.0,0.0,0.0,0.7695,0.7987,0.0,0.0,0.0,0.0,0.0,0.0,0.0,0.0,0.8748,0.8289,0.8157,0.0,0.7336,0.8219,0.8294,0.832,0.0,0.9073,0.9353,0.9429,1.0054,1.0533,1.0362,1.1242,1.1874,1.1603,1.2557,1.3389,1.3496,1.5391,1.6534,1.5855,1.7054,1.7302,1.5636,1.7973,1.9789,2.0492,2.2136,2.3135,2.3135,2.3135,2.2988,2.2676,2.2969,2.3096,2.2988,2.2676,2.2461,2.2353,2.1934,2.1904,2.2217,2.2314,2.208,2.1631,2.2578,2.251,2.1787,2.2539,2.29,2.2988,2.2988,2.3057,2.3135,2.3135,2.3135,2.3135,0.0,0.0,0.0,0.0,0.0,0.0,0.0,0.0,0.0,0.0,0.0,0.0,0.0,0.0,0.0,0.0,0.0,0.0,0.0,0.0,0.0,0.0,0.0,0.6599,0.6599,0.6599,0.7676,0.9905,0.9116,0.8759,0.8916,0.9844,1.0283,1.0205,0.8496,0.7695,0.7695,0.7695,0.7695,0.0,0.6674,0.0,0.0,0.0,0.0,0.0,0.7695,0.79,0.0,0.8203,0.8437,0.876,0.0,0.0,0.0,0.0,0.9138,0.8958,0.8398,0.7546,0.7011,0.7959,0.8137,0.83,0.9173,0.9403,0.9612,1.0037,1.0539,1.0883,1.0858,1.1583,1.2186,1.2122,1.2925,1.3848,1.4853,1.6367,1.7217,1.6644,1.7106,1.7004,1.5756,1.7738,1.9381,2.0173,2.2007,2.3057,2.2861,2.3037,2.2861,2.2246,2.2627,2.2754,2.2568,2.2725,2.2705,2.251,2.2285,2.2295,2.251,2.2314,2.1992,2.1621,2.2285,2.2197,2.165,2.25,2.2852,2.2871,2.3066,2.3135,2.3135,2.3135,2.3135,2.3135,0.0,0.0,0.0,0.0,0.0,0.0,0.0,0.0,0.0,0.0,0.0,0.0,0.0,0.0,0.0,0.0,0.0,0.0,0.0,0.0,0.0,0.0,0.0,0.6599,0.6599,0.6925,0.8035,0.9905,0.9936,1.0073,1.0283,1.0283,1.0146,0.9834,0.8347,0.7695,0.7725,0.7947,0.8023,0.8023,0.8023,0.0,0.0,0.0,0.0,0.0,0.0,0.0,0.0,0.7598,0.7957,0.842,0.8489,0.0,0.0,0.0,0.0,0.0,0.9026,0.8376,0.7964,0.8576,0.8694,0.8997,1.0061,1.0059,1.0043,1.0855,1.1064,1.1156,1.1306,1.194,1.2464,1.2604,1.3347,1.4648,1.6816,1.7358,1.7383,1.7152,1.7072,1.6661,1.57,1.7733,1.9346,1.9736,2.1799,2.2891,2.2529,2.2852,2.2685,2.1904,2.2295,2.2275,2.1787,2.2559,2.2707,2.2244,2.2357,2.2327,2.2138,2.1958,2.165,2.126,2.1768,2.1738,2.1396,2.2256,2.2607,2.2646,2.2998,2.3135,2.3135,2.3135,2.3135,2.3047,0.0,0.0,0.0,0.0,0.0,0.0,0.0,0.0,0.0,0.0,0.0,0.0,0.0,0.0,0.0,0.0,0.0,0.0,0.0,0.0,0.0,0.6599,0.6599,0.6599,0.6599,0.8449,0.9566,0.9905,1.0123,1.0273,1.0283,1.0283,0.9512,0.8075,0.7812,0.7695,0.7783,0.9035,0.9555,0.9555,0.9555,0.0,0.0,0.0,0.0,0.0,0.0,0.0,0.0,0.7178,0.7746,0.8469,0.8799,0.0,0.0,0.0,0.0,0.0,0.9792,0.9639,0.9448,0.9753,1.0144,1.057,1.1238,1.132,1.1334,1.1445,1.1758,1.2025,1.2059,1.2716,1.3299,1.3323,1.4671,1.6426,1.8594,1.8359,1.7775,1.7349,1.7118,1.6892,1.6588,1.8335,1.9884,2.0926,2.1995,2.2578,2.2519,2.2578,2.2383,2.1904,2.2295,2.2139,2.1348,2.1826,2.1777,2.1158,2.1709,2.1453,2.0549,2.147,2.165,2.1279,2.207,2.2178,2.1855,2.2695,2.3047,2.3047,2.3115,2.3135,2.3135,2.3135,2.3135,2.295,0.0,0.0,0.0,0.0,0.0,0.0,0.0,0.0,0.0,0.0,0.0,0.0,0.0,0.0,0.0,0.0,0.0,0.0,0.0,0.0,0.6599,0.6599,0.6599,0.6599,0.6599,0.993,1.1111,0.9905,0.9233,0.9375,1.0302,1.0161,0.8735,0.6357,0.811,0.8899,0.8926,0.9607,0.9905,0.9905,0.0,0.0,0.0,0.0,0.0,0.0,0.0,0.0,0.0,0.0,0.7685,0.844,0.8603,0.0,0.0,0.0,0.0,0.0,1.0148,1.0446,1.0739,1.0869,1.0945,1.1159,1.1779,1.1783,1.1606,1.1606,1.1914,1.2305,1.2539,1.3271,1.415,1.5098,1.6299,1.7627,1.9082,1.8387,1.7804,1.7813,1.7147,1.6541,1.6296,1.7674,1.8692,1.902,2.064,2.1334,2.0968,2.1899,2.21,2.1201,2.1816,2.1607,2.0314,2.0357,2.029,2.0159,2.0717,2.0727,2.0196,2.111,2.1426,2.1269,2.1904,2.1787,2.126,2.2353,2.2169,2.1269,2.1624,2.1443,2.0934,2.106,2.1132,2.1042,0.0,0.0,0.0,0.0,0.0,0.0,0.0,0.0,0.0,0.0,0.0,0.0,0.0,0.0,0.0,0.0,0.0,0.0,0.0,0.0,0.6702,0.6908,0.7216,0.7363,0.7363,1.1194,1.2152,0.9996,0.8859,0.8789,0.9685,0.9493,0.8073,0.5813,0.8284,0.9581,0.9905,0.9905,0.9905,0.9905,0.0,0.0,0.0,0.0,0.0,0.0,0.0,0.0,0.0,0.0,0.0,0.0,0.0,0.0,0.0,0.9719,0.9951,1.0176,1.0371,1.0949,1.1498,1.1704,1.1656,1.1779,1.2474,1.2412,1.2217,1.2469,1.2734,1.3018,1.3145,1.3867,1.5,1.6748,1.7832,1.876,1.9619,1.8583,1.7954,1.8321,1.706,1.6028,1.5772,1.6765,1.734,1.7154,1.8912,1.9835,1.9241,2.0643,2.1151,2.0418,2.078,2.054,1.9625,1.8654,1.8412,1.8868,1.9576,1.9758,1.9582,2.0548,2.1133,2.125,2.1592,2.1406,2.0947,2.1953,2.136,1.9815,2.0337,2.0018,1.9082,1.9355,1.924,1.9039,0.0,0.0,0.0,0.0,0.0,0.0,0.0,0.0,0.0,0.0,0.0,0.0,0.0,0.0,0.0,0.0,0.0,0.0,0.0,0.0,0.696,0.7768,0.9007,0.9667,0.9667,1.1983,1.2236,1.0278,1.0174,0.9346,0.788,0.7861,0.7743,0.752,0.7753,0.8623,0.9905,0.9905,0.9905,0.9905,0.9905,0.0,0.0,0.0,0.0,0.0,0.0,0.0,0.0,0.0,0.0,0.0,0.0,0.0,0.967,1.0117,0.9971,0.9816,1.0645,1.0908,1.1152,1.1927,1.2462,1.2988,1.3766,1.3922,1.417,1.4971,1.5156,1.4951,1.418,1.4746,1.5889,1.7637,1.8965,2.0088,2.0967,1.9702,1.8699,1.8717,1.6784,1.547,1.5424,1.6318,1.6823,1.68,1.7717,1.8188,1.8138,1.8271,1.8763,1.9661,1.8811,1.8745,1.9625,1.7171,1.6103,1.6592,1.8293,1.8549,1.7571,1.9655,2.084,2.123,2.1269,2.1475,2.1797,2.1894,2.1265,2.0159,2.0223,1.9782,1.9146,1.9082,1.8592,1.787,0.0,0.0,0.0,0.0,0.0,0.0,0.0,0.0,0.0,0.0,0.0,0.0,0.0,0.0,0.0,0.0,0.0,0.0,0.0,0.7107,0.7545,0.7885,0.9188,0.9905,0.9905,1.2058,1.2167,1.0038,0.9127,0.8359,0.7676,0.6596,0.6664,0.7754,0.8651,0.9384,0.9905,0.9905,0.9905,0.9905,0.9905,0.9008,0.0,0.0,0.0,0.0,0.0,0.0,0.0,0.0,0.6732,0.7562,0.8094,0.8524,0.8998,0.9682,0.9729,0.9719,1.0361,1.1113,1.1748,1.1797,1.2549,1.3418,1.3951,1.4346,1.4629,1.4951,1.5664,1.6133,1.5811,1.6445,1.7324,1.8252,1.9248,1.9976,2.0183,1.9045,1.8021,1.7627,1.6088,1.5124,1.5124,1.5459,1.5567,1.5378,1.6264,1.6768,1.6557,1.7505,1.8029,1.8203,1.8095,1.7771,1.7203,1.6828,1.6095,1.4986,1.6335,1.709,1.7342,1.8141,1.9038,1.986,2.0111,2.0158,2.0093,2.0344,1.9277,1.733,1.6885,1.6578,1.6557,1.6755,1.6543,1.6295,0.0,0.0,0.0,0.0,0.0,0.0,0.0,0.0,0.0,0.0,0.0,0.0,0.0,0.0,0.0,0.0,0.0,0.0,0.6993,0.756,0.7899,0.7899,0.9188,0.9905,0.9905,1.0937,1.0445,0.8382,0.7373,0.716,0.7666,0.6479,0.6819,0.8439,0.9437,0.9905,0.9905,0.9905,0.9905,0.9905,0.9905,0.9008,0.0,0.0,0.0,0.0,0.0,0.0,0.0,0.0,0.6244,0.6768,0.7521,0.8065,0.8568,0.9365,0.9505,0.9561,1.0127,1.1035,1.1777,1.1645,1.2441,1.3525,1.4355,1.4873,1.5303,1.5723,1.6299,1.6753,1.709,1.751,1.7988,1.8545,1.9274,1.9719,1.9625,1.8389,1.7282,1.682,1.5648,1.4823,1.4823,1.4743,1.4603,1.4396,1.5042,1.536,1.5228,1.6179,1.6771,1.6772,1.6755,1.6437,1.5703,1.6116,1.5711,1.4573,1.4977,1.5794,1.6846,1.718,1.7806,1.8663,1.8804,1.8778,1.8663,1.8804,1.7631,1.5643,1.4716,1.4563,1.485,1.505,1.5177,1.5257,0.0,0.0,0.0,0.0,0.0,0.0,0.0,0.0,0.0,0.0,0.0,0.0,0.0,0.0,0.0,0.0,0.0,0.0,0.7841,0.7885,0.7885,0.7885,0.9188,0.9893,0.988,0.8439,0.6849,0.5108,0.5108,0.5993,0.7676,0.7725,0.8495,0.9905,0.9905,0.9905,0.9905,0.9905,0.9905,0.9905,0.9905,0.9008,0.7695,0.0,0.0,0.0,0.0,0.0,0.0,0.0,0.5975,0.6277,0.7344,0.8,0.8545,0.934,0.9301,0.9199,1.0049,1.0596,1.1025,1.1508,1.2292,1.334,1.5029,1.5752,1.6426,1.7744,1.7344,1.7012,1.7861,1.7686,1.7676,1.8506,1.921,1.9616,1.9616,1.7997,1.6835,1.6748,1.5458,1.4516,1.4516,1.4255,1.4088,1.4088,1.4088,1.4088,1.4088,1.4088,1.4573,1.5613,1.465,1.4566,1.5696,1.4657,1.4657,1.5696,1.4657,1.465,1.5779,1.6764,1.754,1.7946,1.7491,1.754,1.7937,1.7491,1.6601,1.5621,1.4489,1.4262,1.4516,1.4522,1.4703,1.4963,0.0,0.0,0.0,0.0,0.0,0.0,0.0,0.0,0.0,0.0,0.0,0.0,0.0,0.0,0.0,0.0,0.0,0.0,0.7885,0.7329,0.6977,0.6977,0.8848,0.941,0.8382,0.7918,0.6849,0.5108,0.5108,0.537,0.5928,0.8181,0.949,0.9905,0.9905,0.9905,0.9905,0.9905,0.9905,0.9905,0.9905,0.9008,0.7695,0.0,0.0,0.0,0.0,0.0,0.0,0.0,0.0,0.0,0.6766,0.7569,0.8431,0.8693,0.9297,0.9961,1.0215,1.1045,1.1943,1.2383,1.3359,1.4512,1.5615,1.5732,1.6143,1.8057,1.8252,1.8242,1.8809,1.8809,1.8799,1.9053,1.9466,1.9362,1.8189,1.7499,1.6575,1.5092,1.4518,1.4215,1.4215,1.4135,1.4088,1.4088,1.4088,1.4088,1.4088,1.4088,1.425,1.4573,1.425,1.425,1.4573,1.4977,1.4977,1.4573,1.5061,1.5372,1.5703,1.5228,1.5521,1.6337,1.6237,1.6252,1.6337,1.5431,1.4817,1.4573,1.425,1.4142,1.4242,1.4442,1.4576,1.4656,0.0,0.0,0.0,0.0,0.0,0.0,0.0,0.0,0.0,0.0,0.0,0.0,0.0,0.0,0.0,0.0,0.0,0.0,0.0,0.8673,0.8058,0.6654,0.8725,0.9224,0.7725,0.7695,0.7189,0.6139,0.6139,0.6139,0.6182,0.8713,0.9905,0.9905,0.9905,0.9905,0.9905,0.9905,0.9905,0.9905,0.9905,0.9008,0.7695,0.0,0.0,0.0,0.0,0.0,0.0,0.0,0.0,0.0,0.6397,0.7141,0.7968,0.8496,0.917,0.9883,1.0391,1.1367,1.2326,1.2978,1.4092,1.5215,1.5968,1.6523,1.7373,1.8848,1.9014,1.9023,1.9453,1.9404,1.9346,1.9512,1.9184,1.8458,1.7263,1.6395,1.5316,1.3912,1.3741,1.3781,1.3901,1.4125,1.4179,1.3901,1.4118,1.4186,1.3908,1.3908,1.3968,1.4082,1.3975,1.3968,1.4088,1.4489,1.4433,1.3908,1.4552,1.4868,1.4868,1.4357,1.4489,1.5054,1.5054,1.5054,1.497,1.4328,1.4088,1.4088,1.4088,1.4088,1.4108,1.4282,1.4349,1.4349,0.0,0.0,0.0,0.0,0.0,0.0,0.0,0.0,0.0,0.0,0.8259,0.0,0.0,0.0,0.0,0.0,0.0,0.0,0.0,0.0,1.0316,0.7029,0.8687,0.9143,0.7918,0.7889,0.7889,0.7889,0.7889,0.7889,0.7918,0.9478,1.0094,0.9905,0.9905,0.9816,0.9712,0.9841,0.9816,0.9698,0.9868,0.9029,0.7695,0.7695,0.0,0.0,0.0,0.0,0.0,0.0,0.0,0.0,0.63,0.6902,0.7515,0.8608,0.9053,0.9434,1.0596,1.1562,1.2414,1.3389,1.4648,1.5752,1.6152,1.7822,1.9365,1.9629,1.9473,1.9404,1.9785,1.9541,1.9414,1.9795,1.8449,1.7199,1.6929,1.5013,1.3581,1.324,1.3213,1.3313,1.3581,1.4209,1.4309,1.3581,1.4202,1.4317,1.3587,1.3519,1.3741,1.4041,1.3761,1.3748,1.4041,1.3494,1.3347,1.3519,1.3519,1.3519,1.3614,1.3941,1.4088,1.4088,1.4088,1.4088,1.4088,1.4088,1.4088,1.4088,1.4088,1.4088,1.4088,1.4088,1.4088,1.4088,0.0,0.0,0.0,0.0,0.0,0.0,0.0,0.0,0.0,0.0,0.0,0.0,0.0,0.0,0.0,0.0,0.0,0.0,0.0,0.0,1.1021,0.9263,0.8539,0.8568,0.941,0.9437,0.9437,0.9437,0.9437,0.9437,0.9473,1.1536,1.1545,0.9905,0.9905,0.9251,0.8241,0.941,0.9224,0.829,0.9651,0.9207,0.7695,0.7695,0.6686,0.0,0.0,0.0,0.0,0.0,0.0,0.0,0.6637,0.7809,0.8931,0.8617,0.9453,1.0557,1.084,1.1562,1.255,1.4131,1.5996,1.7471,1.7568,1.8477,1.9023,1.8115,1.8652,1.9316,1.9404,1.9346,1.9316,1.9404,1.8508,1.7453,1.6505,1.5281,1.4195,1.3292,1.3213,1.3233,1.33,1.408,1.4223,1.3373,1.408,1.4223,1.3293,1.3307,1.344,1.3728,1.3454,1.344,1.3734,1.3387,1.324,1.3307,1.3307,1.3307,1.332,1.3848,1.4088,1.4088,1.4088,1.4088,1.4088,1.4088,1.4088,1.4088,1.4088,1.4088,1.4088,1.4088,1.4088,1.4088,0.0,0.0,0.0,0.0,0.0,0.0,0.0,0.0,0.0,0.0,0.0,0.0,0.0,0.0,0.0,0.0,0.0,0.0,0.0,0.0,1.0592,0.9919,0.917,0.9116,0.9867,0.9905,0.9905,0.9905,0.9905,0.9905,0.9956,1.2146,1.2572,1.139,0.9641,0.841,0.7754,0.8512,0.841,0.7773,0.8701,0.8525,0.7695,0.7695,0.6686,0.5309,0.5309,0.0,0.0,0.0,0.0,0.0,0.0,0.0,0.8986,0.8973,0.96,1.0391,1.0801,1.1562,1.2744,1.4863,1.6562,1.7705,1.7705,1.8213,1.8428,1.7559,1.8398,1.9287,1.9287,1.9287,1.9131,1.8682,1.7766,1.6706,1.5479,1.4478,1.3607,1.2869,1.2772,1.2832,1.2973,1.3675,1.3874,1.3057,1.3751,1.3805,1.3057,1.2986,1.3126,1.3427,1.3146,1.3133,1.3434,1.2993,1.2846,1.2986,1.2986,1.3066,1.322,1.3527,1.3741,1.3868,1.3728,1.3667,1.3667,1.3667,1.3667,1.3667,1.3667,1.3667,1.3667,1.3667,1.3754,1.3874,0.0,0.0,0.0,0.0,0.0,0.0,0.0,0.0,0.0,0.0,0.0,0.0,0.0,0.0,0.0,0.0,0.0,0.0,0.0,0.0,0.0,0.9905,0.9905,0.9905,0.9905,0.9905,0.9905,0.9905,0.9659,0.9683,1.0012,1.1853,1.2685,1.2566,0.9499,0.8133,0.8133,0.8133,0.8133,0.8133,0.8133,0.8133,0.8133,0.8133,0.7332,0.6168,0.6168,0.6168,0.6186,0.6343,0.0,0.0,0.0,0.0,0.8737,0.9406,0.9651,0.9875,1.0693,1.166,1.2998,1.5273,1.6504,1.7178,1.7256,1.7539,1.7695,1.7344,1.8174,1.8955,1.8955,1.8815,1.8419,1.7679,1.6485,1.5351,1.4402,1.3365,1.26,1.2325,1.2258,1.2345,1.2714,1.3321,1.3425,1.2721,1.3314,1.3433,1.2735,1.2741,1.2812,1.312,1.2832,1.2819,1.3126,1.2579,1.2425,1.2741,1.2741,1.2832,1.3126,1.308,1.324,1.3554,1.3313,1.3213,1.3213,1.3213,1.3213,1.3213,1.3213,1.3213,1.3213,1.3213,1.336,1.3567,0.0,0.0,0.0,0.0,0.0,0.0,0.0,0.0,0.0,0.0,1.1805,0.0,0.0,0.0,0.0,0.0,0.0,0.0,1.1805,0.0,0.0,0.9905,0.9905,0.9905,0.9905,0.9905,0.9905,0.9905,0.8623,0.8753,1.0267,1.0548,1.0687,1.0677,1.0153,0.9941,0.9941,0.9941,0.9941,0.9941,0.9941,0.9941,0.9941,0.9941,0.9819,0.962,0.962,0.962,0.9478,0.8619,0.8488,0.0,0.0,0.0,0.9387,0.9533,0.9902,1.0303,1.0781,1.21,1.3594,1.4687,1.5605,1.6338,1.6728,1.6865,1.6885,1.6826,1.7256,1.7637,1.7637,1.6769,1.6017,1.6152,1.4763,1.3678,1.3775,1.2783,1.2064,1.2278,1.2078,1.2044,1.2331,1.3193,1.3331,1.2432,1.3193,1.3331,1.2432,1.2365,1.2498,1.2876,1.2518,1.2505,1.2882,1.2472,1.2318,1.2365,1.2365,1.2518,1.2876,1.2538,1.2732,1.3267,1.3227,1.3213,1.3213,1.3213,1.3213,1.3213,1.3213,1.3213,1.3213,1.3213,1.3233,1.3267,0.0,0.0,0.0,0.0,0.0,0.0,0.0,0.0,0.0,0.0,0.0,1.1805,0.0,0.0,0.0,1.1805,1.1805,1.149,1.0784,1.021,0.9905,0.9905,0.9905,0.9905,0.9905,0.9905,0.949,0.8651,0.8997,0.9541,1.0303,1.1279,1.1221,1.0283,1.0283,1.0283,1.0283,1.0283,1.0283,1.0283,1.0283,1.0283,1.0283,1.0283,1.0283,1.0283,1.0283,0.95,0.8569,0.935,0.9597,0.9531,0.9145,0.0,0.0,0.0,1.0137,1.0371,1.0791,1.165,1.2628,1.3308,1.396,1.4571,1.5279,1.5609,1.5904,1.6296,1.6181,1.6064,1.629,1.591,1.5245,1.4363,1.3596,1.2905,1.2487,1.1977,1.167,1.1797,1.1844,1.1917,1.2044,1.257,1.2663,1.2143,1.2483,1.2407,1.1817,1.181,1.187,1.2004,1.2044,1.2124,1.2325,1.2285,1.2305,1.2305,1.2305,1.2371,1.2485,1.2191,1.2385,1.2946,1.2772,1.2705,1.2705,1.2705,1.2387,1.1839,1.1839,1.1839,1.1839,1.1839,1.1939,1.2082,0.0,0.0,0.0,0.0,0.0,0.0,0.0,0.0,0.0,0.0,0.0,0.0,0.0,0.0,0.0,0.0,1.2807,1.1985,1.0033,1.0433,1.0747,1.0747,1.0747,1.0483,0.9905,0.9905,0.9387,0.8347,0.9658,1.0283,1.0322,1.207,1.2187,1.0937,1.0937,1.0693,1.0283,1.0283,1.0283,1.0283,1.0283,0.9952,0.9506,0.9795,0.9739,0.946,0.946,0.8407,0.7266,0.8893,0.946,0.943,0.9262,0.9628,0.0,0.0,0.0,1.0146,1.0452,1.0761,1.1153,1.1693,1.2129,1.2672,1.3516,1.3979,1.441,1.4946,1.4598,1.4196,1.4285,1.4432,1.4148,1.289,1.258,1.2215,1.1485,1.1363,1.1343,1.1416,1.1557,1.1677,1.175,1.2017,1.2071,1.1777,1.1824,1.1737,1.1443,1.1423,1.1423,1.1423,1.1637,1.1757,1.1757,1.1971,1.2078,1.2078,1.2078,1.2078,1.2071,1.1857,1.1925,1.21,1.2184,1.2038,1.1819,1.189,1.1316,1.0415,1.0415,1.0565,1.0783,1.0783,1.0912,1.1089,0.0,0.0,0.0,0.0,0.0,0.0,0.0,0.0,0.0,0.0,0.0,0.0,1.5319,1.5589,1.5589,1.5589,1.5589,1.3966,1.0161,1.1846,1.3023,1.3023,1.3023,0.0,0.9943,0.9905,0.9995,1.0146,1.0273,1.0283,1.0322,1.207,1.2832,1.2744,1.2744,1.1826,1.0283,1.0283,1.0283,1.0283,1.0283,0.9053,0.7312,0.8425,0.8146,0.7182,0.7182,0.7105,0.7021,0.7147,0.7182,0.7426,0.8772,0.935,0.9558,0.0,0.0,0.0,0.9585,0.9506,0.9501,0.995,1.0386,1.0951,1.1652,1.1839,1.195,1.227,1.229,1.201,1.129,1.1638,1.2047,1.2228,1.1586,1.1176,1.139,1.1189,1.1122,1.1396,1.1196,1.1142,1.1423,1.1717,1.177,1.147,1.171,1.1737,1.1443,1.1423,1.1423,1.1423,1.1443,1.145,1.145,1.1463,1.147,1.147,1.147,1.147,1.147,1.1456,1.0974,1.0317,1.1417,1.1377,1.0515,1.0757,1.0265,0.9372,0.9372,0.997,1.0783,1.0783,1.0795,1.0807,0.0,0.0,0.0,0.0,0.0,0.0,0.0,0.0,0.0,0.0,0.0,0.0,0.0,1.5799,1.5799,1.5799,1.5799,1.5209,1.3769,1.3374,1.3198,1.3198,1.1833,1.1399,1.1996,1.0798,1.0215,1.0283,1.0283,1.0283,1.0322,1.207,1.2881,1.2832,1.1719,1.1494,1.1953,1.1953,1.1309,1.0283,1.0283,0.8973,0.7154,0.835,0.8544,0.8163,0.8163,0.7675,0.6979,0.6979,0.7308,0.7799,0.8325,0.8941,0.9558,0.9922,0.9765,0.9518,0.9518,0.9215,0.8914,0.8881,0.9009,0.9329,1.0162,1.0498,1.0858,1.1651,1.1581,1.1246,1.0956,1.1095,1.1064,1.0657,1.0486,1.0401,1.0321,1.0381,1.0468,1.0575,1.0661,1.0828,1.1122,1.1416,1.1463,1.1169,1.1249,1.1176,1.0882,1.0868,1.0868,1.0868,1.1049,1.1236,1.1423,1.1423,1.1423,1.1423,1.1423,1.108,1.0585,1.0412,0.9852,0.9032,0.9462,0.9516,0.9395,0.9639,0.9074,0.8128,0.8263,0.8537,0.8912,0.8912,0.8912,0.8912,0.0,0.0,0.0,0.0,0.0,0.0,0.0,0.0,0.0,1.5799,0.0,0.0,0.0,0.0,1.5799,1.5799,1.5799,1.5799,1.5799,1.4181,1.3198,1.3198,1.1783,1.1683,1.3173,1.1282,1.0283,1.0283,1.0283,1.0283,1.0342,1.1508,1.2012,1.1963,1.0842,1.0928,1.2051,1.2637,1.1875,1.0283,1.0283,0.9198,0.7729,0.8724,0.9225,0.9345,0.8951,0.8297,0.7589,0.735,0.7669,0.8128,0.7981,0.8419,0.9079,0.9597,0.9399,0.8958,0.8958,0.8553,0.8074,0.7917,0.7889,0.8026,0.8732,0.9107,0.9532,1.0423,1.0394,1.0195,1.0195,1.0195,1.0107,0.9762,0.9846,0.9907,0.9713,0.9846,0.9973,0.9973,1.0234,1.0488,1.0681,1.1049,1.1156,1.0868,1.0942,1.0868,1.0638,1.0624,1.0624,1.0624,1.0748,1.0942,1.1136,1.1136,1.0995,1.0728,1.0728,1.0251,0.9355,0.9192,0.865,0.7841,0.7841,0.7962,0.8175,0.8394,0.7874,0.6994,0.7112,0.7423,0.7783,0.7783,0.7783,0.7783,0.0,0.0,0.0,0.0,0.0,0.0,0.0,0.0,1.5799,1.5799,0.0,0.0,0.0,0.0,0.0,1.5918,1.5844,1.5799,1.5799,1.4181,1.3198,1.3198,1.3198,1.3163,1.3129,1.1282,1.0283,1.0283,1.0283,1.0283,1.0283,1.0332,1.0332,1.0283,1.0283,1.0283,1.0391,1.2135,1.1811,1.0273,1.0273,0.9664,0.8871,0.9439,1.0027,1.045,0.9232,0.8811,0.8704,0.813,0.8014,0.8143,0.7742,0.775,0.801,0.8545,0.834,0.7934,0.0,0.0,0.0,0.6985,0.6979,0.7094,0.7432,0.7695,0.8003,0.8303,0.8591,0.8798,0.8804,0.8804,0.8991,0.9566,0.9666,0.9666,0.9659,0.9666,0.9666,0.9666,0.992,1.0094,1.01,1.0628,1.0855,1.0631,1.0815,1.0855,1.0638,1.0618,1.0611,1.0611,1.0548,1.0548,1.0611,1.0555,1.011,0.9274,0.9274,0.8812,0.7962,0.7962,0.7502,0.6654,0.6654,0.6759,0.6877,0.7131,0.6744,0.6017,0.603,0.6723,0.7774,0.7778,0.7783,0.7783,0.0,0.0,0.0,0.0,0.0,0.0,1.5799,1.5799,1.5799,0.0,0.0,0.0,1.6008,1.7492,1.8597,1.8597,1.6893,1.5799,1.5799,1.4181,1.3198,1.3198,1.3198,1.2532,1.1132,1.0582,1.0283,1.0283,1.0283,1.0283,1.0312,1.1572,1.1494,1.0283,1.0283,1.0283,1.0312,1.0791,1.0312,0.9234,0.9234,0.9055,0.8824,0.8985,0.9412,0.9866,0.9399,0.8911,0.8457,0.8223,0.8034,0.8037,0.8325,0.8281,0.8354,0.9061,0.8746,0.8178,0.8178,0.0,0.0,0.0,0.0,0.0,0.7128,0.7381,0.7682,0.7989,0.829,0.8557,0.8764,0.8804,0.8864,0.9025,0.9225,0.9292,0.9078,0.9232,0.9359,0.9359,0.9376,0.9566,0.9786,1.014,1.0327,1.0247,1.0514,1.0705,1.0624,1.0354,1.0241,1.0241,0.9599,0.9599,1.0241,0.9231,0.8935,0.9274,0.8683,0.7897,0.7046,0.7046,0.6593,0.5752,0.5752,0.5778,0.584,0.6113,0.6047,0.5742,0.6071,0.6304,0.6479,0.6674,0.6718,0.6718,0.0,0.0,0.0,0.0,0.0,1.6173,1.7267,1.7432,1.7432,0.0,0.0,0.0,1.7597,1.7978,1.838,1.838,1.6968,1.6111,1.6111,1.5123,1.415,1.3235,1.2425,1.1468,1.0322,1.0283,1.0283,1.0283,1.0283,1.0283,1.0322,1.207,1.2344,1.1367,1.1367,1.1367,1.1314,1.0153,1.0015,1.0438,0.9271,0.8804,0.8804,0.8804,0.9118,0.9539,0.9385,0.9152,0.8878,0.8571,0.831,0.8158,0.849,0.8367,0.8239,0.869,0.8478,0.8119,0.8119,0.7688,0.7152,0.6881,0.0,0.0,0.6793,0.7121,0.7557,0.8028,0.835,0.8604,0.8778,0.8804,0.8804,0.8804,0.8945,0.9005,0.8831,0.8951,0.9058,0.9058,0.911,0.925,0.9479,0.9766,0.9933,0.9933,1.0207,1.025,0.9925,0.9818,0.9568,0.9023,0.8663,0.8657,0.9114,0.8361,0.8091,0.8221,0.7697,0.6985,0.6141,0.6141,0.5881,0.5428,0.5428,0.5428,0.5452,0.5681,0.5718,0.5616,0.5878,0.6,0.604,0.6132,0.6207,0.6338,0.0,0.0,1.5799,1.5799,1.6038,1.7028,1.9331,1.969,1.969,0.0,1.969,1.9603,1.9369,1.7626,1.6522,1.6522,1.6522,1.6522,1.6522,1.625,1.5208,1.3265,1.1324,1.0283,1.0283,1.0283,1.0371,1.0576,1.0576,1.0576,1.0605,1.2148,1.2881,1.2881,1.2881,1.2881,1.2725,1.0285,1.049,1.2215,0.9777,0.8804,0.8804,0.8804,0.9025,0.9312,0.9225,0.9365,0.9506,0.8985,0.8637,0.8424,0.8424,0.8216,0.7935,0.7968,0.7955,0.7976,0.7976,0.7477,0.6961,0.6804,0.639,0.0,0.6654,0.7062,0.7565,0.8263,0.8577,0.8771,0.8798,0.8804,0.8804,0.8804,0.8752,0.8699,0.8804,0.8752,0.8699,0.8804,0.8923,0.9081,0.9137,0.9459,0.9633,0.9633,0.9933,0.9743,0.8997,0.916,0.8686,0.7493,0.7684,0.7716,0.7609,0.7648,0.7307,0.6655,0.653,0.609,0.5335,0.5335,0.5411,0.5428,0.5428,0.5428,0.5449,0.5644,0.5677,0.5569,0.5637,0.5803,0.601,0.604,0.6142,0.6338,0.0,1.5799,1.5799,1.5799,1.7552,1.9091,1.96,1.969,1.969,1.969,1.969,1.9043,1.7312,1.6752,1.6522,1.6522,1.6522,1.6522,1.6522,1.4698,1.3408,1.2966,1.1233,1.0283,1.0283,1.0283,1.0967,1.2373,1.2373,1.2373,1.2383,1.2725,1.2881,1.2881,1.2881,1.2881,1.2881,1.2323,1.115,0.9569,0.9008,0.8804,0.8804,0.8804,0.8858,0.8918,0.8898,0.8931,0.8958,0.8844,0.8771,0.8724,0.8724,0.8524,0.833,0.8564,0.847,0.829,0.829,0.8184,0.8006,0.7726,0.7544,0.0,0.7613,0.7739,0.7889,0.8323,0.8417,0.853,0.8764,0.8804,0.8804,0.8804,0.8321,0.8103,0.8699,0.8262,0.8156,0.8752,0.8312,0.8236,0.8838,0.9152,0.9325,0.9325,0.982,0.9736,0.8857,0.8848,0.8426,0.7359,0.6722,0.6667,0.7218,0.6065,0.5793,0.6271,0.5609,0.5251,0.5176,0.5176,0.5243,0.5428,0.5428,0.5428,0.5432,0.5423,0.5433,0.5454,0.5939,0.6013,0.5874,0.6125,0.6234,0.6338,1.5799,1.5799,1.6218,1.7522,1.8841,1.969,1.969,1.969,1.9332,1.8263,1.8106,1.7706,1.6637,1.6522,1.6522,1.6522,1.5377,1.4698,1.4698,1.3563,1.2881,1.2881,1.2041,1.1626,1.1626,1.1626,1.2012,1.2881,1.2881,1.2881,1.2881,1.2881,1.2881,1.2881,1.2881,1.2881,1.2832,1.1451,1.0079,0.8804,0.8804,0.8804,0.8804,0.8804,0.8804,0.8804,0.8804,0.8804,0.8831,0.8971,0.8925,0.8804,0.8804,0.8704,0.8617,0.8764,0.8704,0.8539,0.8165,0.8061,0.7889,0.7306,0.6929,0.0,0.0,0.7448,0.753,0.8403,0.8591,0.8637,0.8784,0.8804,0.8804,0.8804,0.8156,0.783,0.8209,0.7616,0.7289,0.767,0.7396,0.745,0.8156,0.8388,0.8635,0.9176,0.9163,0.8841,0.8116,0.7699,0.705,0.6032,0.5648,0.5612,0.5895,0.5255,0.5097,0.557,0.5097,0.4992,0.5131,0.5131,0.5216,0.5428,0.5428,0.5428,0.5432,0.5443,0.543,0.5466,0.5779,0.5922,0.5932,0.6088,0.6196,0.6338,1.6563,1.6563,1.7223,1.9316,1.969,1.969,1.969,1.9369,1.8458,1.671,1.6522,1.6522,1.6522,1.6522,1.6293,1.5832,1.4025,1.2881,1.2881,1.2881,1.2881,1.2881,1.2881,1.2881,1.2881,1.2881,1.2881,1.2881,1.2881,1.2881,1.2881,1.2881,1.2881,1.2881,1.2881,1.2881,1.2725,0.9976,0.8804,0.8804,0.8804,0.8804,0.8804,0.8804,0.8804,0.8804,0.8804,0.8804,0.8844,0.9024,0.9005,0.8804,0.8804,0.8804,0.8804,0.8804,0.8804,0.8646,0.8049,0.7937,0.7723,0.7039,0.6496,0.6416,0.0,0.0,0.0,0.854,0.8804,0.8804,0.8804,0.8804,0.8738,0.8567,0.796,0.7433,0.7276,0.6612,0.6317,0.6588,0.6475,0.6745,0.7616,0.783,0.8242,0.9084,0.8645,0.8023,0.7277,0.6735,0.5901,0.4752,0.4809,0.4802,0.465,0.4769,0.483,0.483,0.486,0.4952,0.5091,0.5118,0.5216,0.5428,0.5428,0.5428,0.5435,0.5494,0.5491,0.542,0.5572,0.5776,0.5989,0.602,0.6129,0.6338,1.9241,1.9241,1.9366,1.963,1.969,1.969,1.969,1.8106,1.6795,1.6522,1.6522,1.6522,1.6522,1.6522,1.5656,1.3478,1.3065,1.2881,1.2881,1.2881,1.2881,1.2881,1.2881,1.2881,1.2881,1.2881,1.2881,1.2881,1.2881,1.2881,1.2881,1.2881,1.2881,1.2881,1.2881,1.2881,1.2725,0.9976,0.8804,0.8804,0.8804,0.8804,0.8804,0.8804,0.8804,0.8804,0.8804,0.8804,0.8811,0.8844,0.8838,0.8804,0.8804,0.8804,0.8804,0.8804,0.8804,0.8804,0.8699,0.8699,0.8639,0.8547,0.8455,0.8468,0.86,0.0,0.8593,0.8752,0.0,0.8804,0.8804,0.0,0.0,0.7776,0.7145,0.6464,0.5697,0.5077,0.5226,0.6426,0.6036,0.6195,0.7557,0.8268,0.8712,0.8851,0.8982,0.8453,0.6996,0.7066,0.6429,0.4752,0.4707,0.4643,0.4546,0.4563,0.457,0.457,0.4653,0.4796,0.4948,0.5074,0.5216,0.5428,0.5428,0.5428,0.5428,0.5449,0.5457,0.5579,0.5722,0.5796,0.5844,0.5979,0.6129,0.6338,1.969,1.969,1.969,1.969,1.969,1.9281,1.8027,1.7076,1.602,1.4617,1.5241,1.5875,1.5875,1.5875,1.5035,1.3057,1.5615,1.6074,1.3076,1.2881,1.2881,1.2881,1.2881,1.2881,1.2881,1.2881,1.2881,1.2881,1.2881,1.2881,1.2881,1.2881,1.2881,1.2881,1.2881,1.2881,1.2725,0.9976,0.8804,0.8804,0.8804,0.8804,0.8804,0.8804,0.8804,0.8804,0.8804,0.8804,0.8804,0.8804,0.8804,0.8804,0.8804,0.8804,0.8804,0.8804,0.8804,0.8699,0.8262,0.848,0.8699,0.8262,0.8156,0.8262,0.8699,0.848,0.8262,0.8699,0.0,0.0,0.0,0.0,0.0,0.0,0.7329,0.6445,0.6091,0.5179,0.4736,0.5336,0.5113,0.5328,0.6303,0.7069,0.7723,0.8156,0.7486,0.6991,0.6899,0.6137,0.54,0.4749,0.4606,0.4584,0.4519,0.4519,0.4563,0.4596,0.466,0.4813,0.5043,0.5104,0.5216,0.5428,0.5428,0.5428,0.5428,0.5428,0.5399,0.5471,0.562,0.5783,0.5952,0.6105,0.6207,0.6338,1.969,1.969,1.969,1.969,1.9207,1.8302,1.6752,1.5932,1.5231,1.4417,1.4541,1.4893,1.5361,1.584,1.582,1.5049,1.7539,1.7373,1.3154,1.2881,1.2881,1.2881,1.2881,1.2881,1.2881,1.2881,1.2881,1.2881,1.2881,1.2881,1.2881,1.2881,1.2881,1.2881,1.2881,1.2881,1.2725,0.9976,0.8804,0.8804,0.8804,0.8804,0.8804,0.8804,0.8804,0.8804,0.8804,0.8804,0.8804,0.8804,0.8804,0.8804,0.8804,0.8804,0.8804,0.8804,0.8804,0.8699,0.8156,0.8374,0.8646,0.8156,0.7996,0.8156,0.8699,0.8374,0.8156,0.8699,0.8804,0.0,0.0,0.0,0.8725,0.8482,0.0,0.6832,0.6556,0.5684,0.4956,0.4574,0.468,0.4948,0.5433,0.6145,0.6804,0.7343,0.6416,0.5986,0.6468,0.5401,0.473,0.4623,0.4577,0.4519,0.4519,0.4519,0.4538,0.4691,0.4731,0.4887,0.5131,0.5176,0.5254,0.5428,0.5428,0.5428,0.5428,0.5428,0.5452,0.544,0.5589,0.5803,0.6044,0.6156,0.6224,0.6261,1.969,1.969,1.969,1.969,1.7987,1.6595,1.6522,1.4525,1.4178,1.7412,1.5,1.3584,1.5234,1.6924,1.8574,2.0176,1.7412,1.4805,1.2998,1.2881,1.2881,1.2881,1.2881,1.2881,1.2881,1.2881,1.2881,1.2881,1.2881,1.2881,1.2881,1.2881,1.2881,1.2881,1.2881,1.2881,1.2725,0.9976,0.8804,0.8804,0.8804,0.8804,0.8804,0.8804,0.8804,0.8804,0.8804,0.8804,0.8804,0.8804,0.8804,0.8804,0.8804,0.8804,0.8804,0.8804,0.8804,0.8804,0.8752,0.8804,0.8804,0.8752,0.8752,0.8752,0.8804,0.8804,0.8752,0.8804,0.8804,0.8804,0.8804,0.8804,0.8502,0.7695,0.7611,0.0,0.0,0.6506,0.6046,0.468,0.5058,0.5487,0.5487,0.6145,0.6588,0.6642,0.6588,0.6258,0.5605,0.5492,0.5167,0.4522,0.4519,0.4519,0.4519,0.4519,0.4538,0.4694,0.4843,0.4989,0.5135,0.5284,0.5422,0.5428,0.5428,0.5428,0.5428,0.5428,0.545,0.5596,0.5739,0.5891,0.603,0.6034,0.6132,0.618,1.7867,1.7585,1.7585,1.7585,1.6993,1.5976,1.434,1.4379,1.4971,1.6143,1.5273,1.4775,1.5352,1.7978,2.0391,2.2119,2.0156,1.8096,1.6387,1.4141,1.2881,1.2881,1.2881,1.3408,1.4531,1.3457,1.2881,1.2881,1.2881,1.2881,1.2881,1.2881,1.2881,1.2881,1.2881,1.2881,1.2725,0.9976,0.8804,0.8804,0.8804,0.9272,0.988,0.9105,0.8804,0.8804,0.8804,0.8804,0.8804,0.8804,0.8804,0.8804,0.8804,0.8804,0.8804,0.8804,0.8804,0.8804,0.8804,0.8804,0.8851,0.9045,0.8945,0.8858,0.9051,0.9092,0.9038,0.8844,0.8958,0.9031,0.8844,0.8804,0.8718,0.8404,0.7988,0.7581,0.0,0.686,0.6258,0.5273,0.4948,0.4842,0.4842,0.5062,0.5386,0.5814,0.5441,0.5277,0.5487,0.5058,0.4732,0.4519,0.4519,0.4567,0.4613,0.4613,0.4738,0.4982,0.5033,0.5138,0.5284,0.5338,0.5428,0.5428,0.5428,0.5428,0.5428,0.5428,0.545,0.5603,0.5745,0.5895,0.604,0.6146,0.6217,0.618,1.6752,1.5788,1.5478,1.6337,1.5788,1.4887,1.3929,1.5234,1.6113,1.5488,1.5468,1.6228,1.7948,2.0146,2.1924,2.3047,2.2119,2.0752,1.9033,1.6846,1.5342,1.4727,1.4111,1.458,1.6299,1.4658,1.3779,1.3779,1.3174,1.2881,1.2881,1.2881,1.2881,1.2881,1.2881,1.2372,1.1351,0.9569,0.8804,0.8699,0.7664,0.8173,0.9373,0.8593,0.8663,0.9092,0.8884,0.8804,0.8804,0.8804,0.8804,0.8804,0.8804,0.8804,0.8804,0.8804,0.8804,0.8804,0.8804,0.8884,0.9005,0.9137,0.9178,0.9138,0.917,0.9183,0.9103,0.8871,0.8958,0.8916,0.8513,0.8646,0.8699,0.8427,0.0,0.8103,0.0,0.7456,0.6799,0.6357,0.5437,0.4787,0.4515,0.4519,0.468,0.5113,0.4732,0.4677,0.5109,0.4732,0.4519,0.4519,0.4519,0.4567,0.4609,0.4663,0.4813,0.5053,0.5053,0.5162,0.5425,0.5304,0.5311,0.5428,0.5428,0.5428,0.5432,0.542,0.5532,0.5681,0.5827,0.5976,0.6125,0.6224,0.5786,0.5079,1.6337,1.4468,1.361,1.5932,1.4433,1.3457,1.5156,1.6689,1.71,1.5594,1.5644,1.7569,2.2217,2.2775,2.2862,2.3047,2.3135,2.2402,2.0684,2.0566,1.9844,1.8203,1.6465,1.6279,1.7852,1.6172,1.5371,1.5537,1.3838,1.3008,1.2998,1.3056,1.3017,1.2881,1.2881,1.1451,0.9015,0.8857,0.8699,0.8368,0.566,0.5732,0.7447,0.7473,0.8386,0.9606,0.9018,0.8804,0.8804,0.8804,0.8804,0.8804,0.8804,0.8804,0.8804,0.8804,0.8804,0.8804,0.8804,0.9018,0.919,0.9203,0.9472,0.9613,0.9289,0.923,0.9143,0.8891,0.8838,0.8625,0.7889,0.8321,0.8586,0.7883,0.8315,0.8804,0.8804,0.8209,0.7723,0.767,0.6411,0.5273,0.4625,0.4515,0.4519,0.4519,0.4519,0.4519,0.4519,0.4519,0.4519,0.4519,0.4525,0.4532,0.4539,0.4636,0.4789,0.4942,0.4942,0.5087,0.5422,0.5209,0.5223,0.5428,0.5428,0.5428,0.5439,0.5528,0.5674,0.5817,0.5969,0.6122,0.6257,0.6257,0.4921,0.3124,1.4165,1.3344,1.3113,1.3705,1.3296,1.3457,1.5156,1.374,1.3284,1.5398,1.5791,1.6292,1.7569,1.7662,1.9115,2.2775,2.3135,2.2402,2.0684,2.0566,2.0371,1.9922,1.8262,1.6953,1.6103,1.4404,1.4785,1.7344,1.5605,1.4766,1.4782,1.5333,1.4617,1.2881,1.2881,1.252,1.171,0.9673,0.7557,0.566,0.5932,0.69,0.8247,0.8366,0.8945,0.9606,0.9018,0.8804,0.8804,0.8804,0.8804,0.8804,0.8804,0.8804,0.8804,0.8804,0.8804,0.8804,0.8804,0.9018,0.9236,0.9512,0.9626,0.9719,0.986,0.9893,0.9746,0.9176,0.9305,0.9269,0.8618,0.8699,0.8752,0.8533,0.8699,0.8804,0.8804,0.8646,0.8103,0.702,0.6529,0.6036,0.5328,0.4787,0.4519,0.4519,0.4519,0.4519,0.4519,0.4519,0.4519,0.4519,0.4572,0.4687,0.4802,0.4945,0.5094,0.5247,0.5247,0.5287,0.5425,0.5321,0.5325,0.5428,0.5428,0.5428,0.5439,0.5528,0.5674,0.5817,0.5969,0.5661,0.5079,0.5079,0.4295,0.2968,1.3162,1.3477,1.4228,1.499,1.5127,1.4705,1.3511,1.2201,1.2405,1.5431,1.5832,1.5832,1.5832,1.7755,2.0124,2.2862,2.3135,2.2725,2.1758,2.1689,2.1357,2.0596,1.9639,1.8672,1.7686,1.5996,1.5703,1.6875,1.5889,1.541,1.5391,1.5816,1.4892,1.291,1.3662,1.322,1.1746,0.9703,0.7697,0.6039,0.6693,0.7516,0.0,0.849,0.9,0.9639,0.9305,0.9025,0.8804,0.8804,0.8804,0.8804,0.8804,0.8804,0.8804,0.8804,0.8898,0.8998,0.8998,0.9305,0.9666,0.9833,0.9973,1.0074,1.0107,1.0114,0.9987,0.9526,0.9466,0.9273,0.8671,0.8678,0.8804,0.8804,0.8804,0.8804,0.8804,0.8804,0.848,0.767,0.7289,0.6907,0.6519,0.5277,0.4519,0.4519,0.4519,0.4519,0.4519,0.4519,0.4519,0.4519,0.4677,0.4799,0.4819,0.5094,0.524,0.526,0.526,0.5294,0.5425,0.5291,0.5298,0.5432,0.5433,0.546,0.5477,0.5694,0.583,0.5915,0.6071,0.5794,0.5315,0.4844,0.375,0.2347,1.3467,1.4736,1.6299,1.8037,1.8164,1.6464,1.1952,1.2111,1.3387,1.5137,1.5364,1.5484,1.5798,1.9579,2.2403,2.3047,2.3135,2.3047,2.2822,2.2803,2.2129,2.0625,2.0566,2.0459,2.0234,1.8545,1.6816,1.5078,1.5303,1.541,1.541,1.541,1.4512,1.2939,1.4424,1.3407,1.0557,0.9472,0.8663,0.8034,0.7637,0.7775,0.8271,0.8333,0.8934,0.9686,0.9686,0.9332,0.8864,0.8864,0.8864,0.8864,0.8864,0.8891,0.8918,0.8918,0.9098,0.9243,0.9243,0.9699,1.0114,1.0114,1.0341,1.0494,1.0234,1.0174,1.0094,0.98,0.9532,0.9114,0.8508,0.8703,0.8898,0.8818,0.8838,0.8851,0.8811,0.8804,0.8752,0.8646,0.8103,0.0,0.745,0.5714,0.4625,0.4625,0.4574,0.4519,0.4519,0.4519,0.4519,0.4519,0.4758,0.4874,0.4779,0.5165,0.5315,0.522,0.5199,0.525,0.5425,0.526,0.5281,0.5466,0.5552,0.5616,0.564,0.5915,0.604,0.6074,0.6207,0.6183,0.5948,0.5098,0.3377,0.1574,1.6553,1.7353,1.8096,1.9814,1.8955,1.7297,1.5234,1.5077,1.4656,1.312,1.2919,1.3661,1.5618,1.656,1.8664,2.2775,2.3135,2.2529,2.1113,2.1016,2.0879,2.0576,2.0566,1.9902,1.8486,1.6758,1.5029,1.332,1.4727,1.541,1.541,1.541,1.4512,1.2891,1.3193,1.2329,1.0611,1.0341,0.9854,0.9034,0.817,0.8086,0.8603,0.9195,0.9524,0.9686,0.9686,0.9459,0.911,0.911,0.911,0.911,0.911,0.9332,0.9532,0.9532,0.9566,0.9606,0.9606,0.9853,1.0114,1.0114,1.0341,1.0611,1.0557,1.0481,1.0401,1.01,1.0,0.9827,0.9472,0.9508,0.9372,0.8884,0.9011,0.9024,0.8838,0.8804,0.8586,0.7943,0.7777,0.723,0.5977,0.5542,0.5324,0.5324,0.4787,0.4519,0.4519,0.4519,0.4519,0.4519,0.4758,0.5023,0.5305,0.5387,0.5471,0.5684,0.5566,0.5457,0.5435,0.5586,0.5637,0.5559,0.5701,0.5766,0.5779,0.5956,0.6105,0.6224,0.6251,0.5786,0.4935,0.4872,0.3463,0.161,1.8838,1.8623,1.8271,1.9092,1.7468,1.5978,1.5837,1.5832,1.5418,1.4282,1.4128,1.4563,1.5705,1.5832,1.6749,1.9123,1.9298,1.9011,1.8135,1.8094,1.9213,2.1812,2.1035,1.9766,1.8047,1.7187,1.5488,1.2881,1.458,1.541,1.541,1.541,1.4971,1.4136,1.2462,1.1307,1.0624,1.0624,1.0403,0.998,0.929,0.9113,0.9417,0.9788,1.0007,1.0201,1.0201,0.9947,0.9673,0.9519,0.9472,0.9472,0.9472,0.9566,0.9686,0.9686,0.9793,0.9907,0.9907,1.012,1.0347,1.0347,1.0454,1.0624,1.0624,1.0624,1.0521,1.0374,1.0221,1.0027,0.974,0.9686,0.9593,0.9305,0.9379,0.9365,0.9072,0.9031,0.881,0.8334,0.8262,0.799,0.7278,0.6848,0.6199,0.5058,0.468,0.4519,0.4519,0.4519,0.4556,0.4579,0.4802,0.5023,0.524,0.5399,0.5552,0.5691,0.5698,0.5661,0.5593,0.5735,0.5766,0.5708,0.5854,0.5918,0.5932,0.6084,0.6193,0.6338,0.6338,0.6064,0.5577,0.4996,0.3834,0.2472,2.0303,1.9775,1.8572,1.706,1.5535,1.4763,1.5685,1.5832,1.5832,1.5832,1.5832,1.5832,1.5832,1.5832,1.5832,1.5832,1.5832,1.5832,1.5832,1.5832,1.7442,2.1007,2.0785,1.9766,1.8047,1.8008,1.6504,1.3418,1.4756,1.541,1.541,1.541,1.505,1.4255,1.1717,1.0624,1.0624,1.0624,1.0624,1.0528,0.9846,0.9646,0.9833,0.9901,1.0099,1.0364,1.0561,1.0408,1.0174,0.9947,0.9826,0.978,0.978,0.982,0.9873,0.9873,1.0033,1.0214,1.0214,1.0381,1.0624,1.0624,1.0624,1.0624,1.0624,1.0624,1.0624,1.0624,1.0374,1.012,0.9826,0.9826,0.9833,0.9706,0.9733,0.9673,0.9379,0.9283,0.9225,0.8931,0.8898,0.8818,0.8599,0.8049,0.6853,0.4842,0.4736,0.4625,0.4519,0.4549,0.4565,0.4687,0.4867,0.505,0.5226,0.5467,0.5623,0.5684,0.5796,0.5833,0.5803,0.5867,0.5881,0.5857,0.6013,0.6078,0.6088,0.621,0.6338,0.6261,0.6025,0.6028,0.599,0.4801,0.3806,0.287,2.0537,2.1699,2.056,1.4,1.4416,1.5705,1.5812,1.5832,1.5832,1.5832,1.5832,1.5832,1.5832,1.5832,1.5832,1.5832,1.5832,1.5832,1.5832,1.5832,1.5535,1.4958,1.862,1.9766,1.8047,1.8008,1.708,1.5176,1.5332,1.541,1.541,1.541,1.3837,1.1052,1.0744,1.0624,1.0624,1.0624,1.0624,1.0491,0.8832,0.8506,0.8965,0.9233,0.9378,0.953,1.0301,1.0604,1.0577,1.0551,1.0301,1.0074,1.0074,1.0261,1.0544,1.0544,1.0557,1.0521,1.0521,1.0604,1.0624,1.0624,1.0624,1.0624,1.0624,1.0624,1.0624,1.0624,1.0604,1.0428,1.0134,1.0294,1.0369,0.9773,0.9907,0.9973,0.9686,0.9646,0.9532,0.9176,0.9143,0.8812,0.7907,0.7723,0.7069,0.5542,0.5433,0.5164,0.4515,0.4596,0.4677,0.4691,0.4962,0.525,0.5545,0.5576,0.5725,0.5989,0.6,0.5935,0.581,0.6091,0.6142,0.6017,0.6173,0.624,0.624,0.6254,0.6338,0.6183,0.5237,0.4836,0.4786,0.3812,0.271,0.1733,2.2109,2.0245,1.8034,1.5876,1.5671,1.5832,1.5832,1.5832,1.5832,1.5832,1.5832,1.5832,1.5832,1.5832,1.5832,1.5832,1.5832,1.5832,1.5832,1.5832,1.5304,1.4135,1.8292,2.0244,1.9561,1.8535,1.7666,1.6973,1.5928,1.541,1.541,1.541,1.3657,1.0624,1.0624,1.0624,1.0624,1.0624,0.939,0.7442,0.6728,0.7377,0.8807,0.8941,0.946,1.011,1.0498,1.0624,1.0624,1.0624,1.0481,1.0381,1.0381,1.0461,1.0624,1.0624,1.0624,1.0624,1.0624,1.0624,1.0624,1.0624,1.0624,1.0672,1.0782,1.0752,1.0672,1.0782,1.0681,1.0584,1.0408,1.0481,1.0544,1.0247,1.0307,1.0281,0.9987,0.9793,0.9573,0.9223,0.9085,0.8824,0.8381,0.8374,0.7847,0.6554,0.5892,0.5218,0.4519,0.4609,0.4731,0.4823,0.5026,0.5277,0.5586,0.5674,0.5823,0.603,0.6125,0.6135,0.6084,0.6291,0.6352,0.6298,0.6359,0.6339,0.6261,0.5628,0.5315,0.5243,0.4126,0.3804,0.3812,0.2713,0.2081,0.1596,2.1221,1.8211,1.6092,1.6921,1.638,1.5832,1.5832,1.5832,1.5832,1.5832,1.5832,1.5832,1.5832,1.5832,1.5832,1.5832,1.5832,1.5832,1.5832,1.5832,1.5304,1.4135,1.7082,1.9274,2.0566,1.9375,1.8516,1.8008,1.6269,1.5674,1.6101,1.4662,1.281,1.0624,1.0624,1.0034,0.9064,0.9064,0.7637,0.5428,0.5428,0.6338,0.7837,0.8091,0.8865,0.9843,0.9843,0.9977,1.0174,0.9913,0.9843,0.9907,1.0428,1.0624,1.0624,1.0624,1.0685,1.0668,1.0645,1.0685,1.0752,1.0752,1.0685,1.0719,1.1035,1.0895,1.0768,1.1062,1.0889,1.0752,1.0752,1.0678,1.0624,1.0624,1.0624,1.0551,1.0274,0.9993,0.9733,0.9519,0.9245,0.9031,0.8945,0.8931,0.8373,0.712,0.6341,0.5561,0.4711,0.4721,0.4826,0.4975,0.5165,0.5372,0.5589,0.5776,0.5922,0.603,0.6186,0.6359,0.6329,0.6474,0.6539,0.6539,0.6539,0.6458,0.6322,0.5526,0.5031,0.4616,0.3501,0.3182,0.3273,0.2047,0.1755,0.1721,1.6835,1.5825,1.5832,1.5845,1.5838,1.5832,1.5832,1.5832,1.5832,1.5832,1.5832,1.5832,1.5832,1.5832,1.5832,1.5832,1.5832,1.5832,1.5832,1.5832,1.5304,1.4135,1.4173,1.6198,2.0479,2.0547,1.9707,1.8008,1.6269,1.6299,1.7872,1.297,1.0624,1.0624,1.0624,0.8678,0.5491,0.5491,0.5428,0.5428,0.5428,0.5428,0.5557,0.6396,0.7242,0.8027,0.8027,0.8613,0.9204,0.835,0.8027,0.835,1.004,1.0624,1.0624,1.0624,1.0762,1.0922,1.0641,1.0768,1.0989,1.0989,1.0775,1.0715,1.1289,1.1196,1.1069,1.1363,1.1189,1.0989,1.0989,1.0755,1.0624,1.0624,1.0624,1.0624,1.0618,1.0301,1.0107,1.0107,0.9846,0.9559,0.921,0.9183,0.8552,0.7023,0.6904,0.6334,0.5167,0.4992,0.4982,0.5125,0.5426,0.5586,0.5589,0.5881,0.6027,0.603,0.6186,0.6335,0.6474,0.6627,0.6698,0.6698,0.6698,0.661,0.6471,0.6471,0.5744,0.4608,0.3515,0.3217,0.3183,0.218,0.1836,0.1754,1.6103,1.5832,1.5832,1.5832,1.5832,1.5832,1.5832,1.5832,1.5832,1.5832,1.5832,1.5832,1.5832,1.5832,1.5832,1.5832,1.5832,1.5832,1.5832,1.5832,1.5304,1.4135,1.4088,1.6116,2.0489,2.0566,2.0303,1.9756,1.8027,1.5734,1.2913,1.1362,1.0624,1.0498,0.8091,0.647,0.5428,0.5428,0.5428,0.5428,0.5428,0.5428,0.5428,0.5686,0.6465,0.7437,0.7827,0.8156,0.835,0.8091,0.8027,0.8091,0.8672,0.9262,0.9849,1.0428,1.0768,1.0969,1.0882,1.1069,1.1289,1.1289,1.1223,1.1249,1.1643,1.1657,1.1557,1.145,1.1356,1.1289,1.1289,1.1209,1.1089,1.0889,1.0855,1.0788,1.0651,1.0307,1.0114,1.0114,0.986,0.9566,0.9216,0.9426,0.8854,0.729,0.7239,0.6628,0.5047,0.5036,0.5131,0.5284,0.5579,0.5783,0.5888,0.6088,0.6186,0.619,0.6335,0.6536,0.678,0.6725,0.6331,0.5647,0.5647,0.5496,0.538,0.4558,0.443,0.4731,0.3747,0.3307,0.3278,0.3117,0.3014,0.2899,1.5832,1.5832,1.5832,1.5832,1.5832,1.5832,1.5832,1.5832,1.5832,1.5832,1.5832,1.5832,1.5832,1.5832,1.5832,1.5832,1.5832,1.5832,1.5832,1.5832,1.5304,1.4135,1.4088,1.5387,1.8132,1.9756,2.0566,2.0566,1.7424,1.4279,1.1216,1.1216,1.0454,0.8859,0.6459,0.5428,0.5428,0.5428,0.5428,0.5428,0.5428,0.5428,0.5428,0.5428,0.5815,0.6539,0.6941,0.7245,0.7461,0.7221,0.7158,0.7242,0.7984,0.8348,0.865,0.9385,1.0105,1.0514,1.0074,1.0176,1.0441,1.0441,1.0369,1.0439,1.1146,1.1729,1.1977,1.179,1.167,1.159,1.159,1.1496,1.1329,1.1042,1.0995,1.0895,1.0665,1.0307,1.016,1.0267,1.0127,0.99,0.9599,0.9933,0.9451,0.757,0.7713,0.7098,0.5319,0.5284,0.5372,0.5521,0.5817,0.602,0.6115,0.6322,0.6396,0.6342,0.6546,0.6746,0.6926,0.6885,0.6481,0.586,0.586,0.5795,0.5591,0.4843,0.4707,0.4925,0.4246,0.4038,0.4083,0.3758,0.3583,0.3394,1.5832,1.5832,1.5832,1.5832,1.5832,1.5832,1.5832,1.5832,1.5832,1.5832,1.5832,1.5832,1.5832,1.5832,1.5832,1.5832,1.5832,1.5832,1.5832,1.5832,1.5344,1.4255,1.4128,1.4088,1.4088,1.8052,2.01,1.9985,1.4847,1.2305,1.2298,1.1996,0.989,0.6311,0.57,0.5428,0.5428,0.5428,0.5428,0.5428,0.5428,0.5452,0.5487,0.5446,0.5439,0.5476,0.5545,0.6041,0.6547,0.5983,0.5715,0.5971,0.7794,0.7783,0.7223,0.793,0.8912,0.9575,0.8533,0.8503,0.8822,0.8836,0.8702,0.8974,1.0286,1.1493,1.2358,1.2338,1.2118,1.1924,1.1904,1.167,1.1383,1.1076,1.1022,1.0915,1.0665,1.0341,1.0281,1.0618,1.0692,1.0534,1.0234,1.0722,1.0133,0.7917,0.8216,0.7673,0.5906,0.5739,0.5728,0.583,0.6122,0.6281,0.6291,0.6563,0.6634,0.6508,0.678,0.6922,0.6949,0.7068,0.7041,0.6962,0.6962,0.689,0.6771,0.6757,0.6153,0.5196,0.5196,0.5265,0.5276,0.4163,0.3697,0.3411,1.5832,1.5832,1.5832,1.5832,1.5832,1.5832,1.5832,1.5832,1.5832,1.5832,1.5832,1.5832,1.5832,1.5832,1.5832,1.5832,1.5832,1.5832,1.5832,1.5832,1.5705,1.5431,1.4563,1.4088,1.4088,1.5144,1.5218,1.4268,1.2945,1.2305,1.2224,0.9135,0.7249,0.6311,0.57,0.5428,0.5428,0.5428,0.5428,0.5428,0.5428,0.5706,0.6074,0.5603,0.5501,0.5691,0.5657,0.5804,0.5983,0.5847,0.5779,0.5827,0.6286,0.6722,0.7412,0.8975,0.9287,0.8995,0.8729,0.8925,0.9175,0.9336,1.0087,1.1057,1.2241,1.2784,1.2926,1.2685,1.2661,1.254,1.2245,1.2144,1.1924,1.141,1.1323,1.1142,1.0698,1.0688,1.0808,1.0882,1.1289,1.1443,1.1142,1.145,1.0841,0.8715,0.8748,0.8164,0.6304,0.6444,0.6471,0.6162,0.6329,0.6478,0.6597,0.6664,0.6742,0.682,0.6776,0.6871,0.7088,0.7014,0.6511,0.5802,0.5802,0.5789,0.5755,0.5572,0.5863,0.6443,0.6443,0.594,0.5198,0.5022,0.4428,0.344,1.2226,1.2226,1.2226,1.2226,1.4172,1.5832,1.5832,1.5832,1.5832,1.5832,1.5832,1.5832,1.5832,1.5832,1.5832,1.5832,1.5832,1.5832,1.5832,1.5832,1.5832,1.5832,1.5224,1.4636,1.4095,1.4088,1.3768,1.312,1.2572,1.1397,0.9588,0.921,0.808,0.6325,0.5991,0.5689,0.5446,0.5727,0.5682,0.5428,0.5428,0.5792,0.6227,0.5971,0.5783,0.5803,0.5823,0.6101,0.6459,0.611,0.6254,0.6565,0.6718,0.6794,0.7151,0.863,0.8567,0.8015,0.7742,0.7833,0.8177,0.8838,1.0338,1.1736,1.2393,1.2883,1.3166,1.2993,1.2959,1.2866,1.2559,1.2505,1.2265,1.1543,1.1423,1.1223,1.0705,1.0808,1.1042,1.1176,1.171,1.2004,1.1844,1.1813,1.1088,0.9261,0.9015,0.8243,0.6647,0.6926,0.6926,0.6474,0.6668,0.6787,0.6803,0.6868,0.698,0.7129,0.7119,0.716,0.7244,0.7166,0.6776,0.616,0.616,0.616,0.6154,0.6081,0.6405,0.6944,0.6392,0.5843,0.511,0.4089,0.3333,0.2626,0.8038,0.8038,0.8038,0.8038,1.2323,1.5832,1.5832,1.5832,1.5832,1.5832,1.5832,1.5832,1.5832,1.5832,1.5439,1.4657,1.4657,1.4657,1.4657,1.4657,1.4949,1.5737,1.5832,1.5364,1.4369,1.4175,1.4088,1.4088,1.2886,1.0565,0.7249,1.0115,0.9588,0.6338,0.6338,0.605,0.56,0.6119,0.604,0.5566,0.5566,0.5875,0.6338,0.6338,0.6098,0.5888,0.6017,0.6489,0.7058,0.6474,0.6775,0.7352,0.7536,0.7074,0.6635,0.7525,0.7553,0.7052,0.6518,0.6589,0.7211,0.8565,1.035,1.1855,1.2023,1.2686,1.3333,1.3287,1.3273,1.318,1.2872,1.2856,1.2485,1.169,1.1523,1.1289,1.0708,1.0949,1.1283,1.153,1.2158,1.2592,1.2632,1.2178,1.1239,0.9888,0.9092,0.8261,0.7034,0.7288,0.7251,0.6848,0.7078,0.7139,0.6997,0.7115,0.7241,0.7373,0.7526,0.7533,0.7407,0.7407,0.7333,0.721,0.721,0.7197,0.7177,0.6907,0.6907,0.6739,0.558,0.5022,0.4619,0.2535,0.1717,0.1342,0.8038,0.8038,0.8038,0.8038,1.2323,1.5832,1.5832,1.5832,1.5832,1.5832,1.5832,1.5832,1.5832,1.5832,1.3974,0.96,0.9209,0.9209,0.9209,0.9209,1.1156,1.5635,1.5832,1.5745,1.5565,1.4589,1.4088,1.4088,1.2886,1.1996,1.1316,0.8533,0.6868,0.6338,0.6338,0.621,0.6201,0.6297,0.6283,0.6197,0.6197,0.6179,0.6338,0.6338,0.623,0.6193,0.6217,0.636,0.6423,0.6321,0.6398,0.6479,0.6627,0.6614,0.6579,0.6788,0.6873,0.676,0.6706,0.7477,0.8857,1.0974,1.1885,1.2469,1.3516,1.3864,1.3881,1.3627,1.3574,1.3487,1.3193,1.2926,1.2694,1.2231,1.1964,1.1597,1.1009,1.1603,1.2118,1.2158,1.314,1.3908,1.4155,1.3151,1.2048,1.1105,0.9696,0.8461,0.7581,0.7651,0.7655,0.7465,0.7506,0.7455,0.7305,0.7326,0.735,0.7373,0.7526,0.7587,0.7563,0.7563,0.755,0.7529,0.7529,0.7455,0.7245,0.6236,0.5778,0.5501,0.4322,0.3252,0.2357,0.1899,0.1155,0.0293,0.8038,0.8038,0.8038,0.8038,0.9989,1.2517,1.5343,1.5832,1.5832,1.5832,1.5832,1.4752,1.1935,1.1643,1.0672,0.8233,0.8038,0.8038,0.8038,0.8038,0.9114,1.1448,1.1643,1.2663,1.4814,1.4362,1.4088,1.4088,1.3534,1.1823,0.9059,0.7173,0.6338,0.6338,0.6338,0.6338,0.6338,0.6338,0.6338,0.6338,0.6338,0.6338,0.6338,0.6338,0.6338,0.6338,0.6338,0.6644,0.7034,0.6581,0.6763,0.7179,0.6708,0.6651,0.6732,0.6803,0.6824,0.6989,0.7567,0.8858,1.0381,1.202,1.3089,1.3918,1.4469,1.4556,1.4522,1.4382,1.4229,1.4028,1.3734,1.3307,1.2899,1.2592,1.2164,1.183,1.171,1.2184,1.2659,1.2986,1.3794,1.4163,1.3723,1.2688,1.1477,1.0269,0.8991,0.8103,0.7709,0.7777,0.7821,0.7834,0.7682,0.7567,0.7495,0.757,0.7607,0.7611,0.7763,0.7794,0.7712,0.7712,0.7672,0.76,0.76,0.756,0.7495,0.6932,0.618,0.5432,0.4167,0.2949,0.1718,0.1073,0.0491,0.0,0.8038,0.8038,0.8038,0.8038,0.8038,0.9308,1.3392,1.5045,1.5343,1.4172,1.3974,1.242,0.8428,0.8038,0.8038,0.8038,0.8038,0.8038,0.8038,0.8038,0.8038,0.8038,0.8038,0.9927,1.4024,1.4088,1.4088,1.4088,1.3039,1.0434,0.6464,0.6464,0.6441,0.6393,0.6373,0.6325,0.6338,0.6338,0.6338,0.6338,0.6338,0.6342,0.6464,0.6464,0.6424,0.6363,0.6363,0.6905,0.7466,0.6805,0.7082,0.7596,0.6989,0.6885,0.6987,0.7021,0.7031,0.7364,0.9105,1.0507,1.1815,1.2915,1.4097,1.4963,1.4963,1.4963,1.4963,1.4963,1.4783,1.4556,1.4329,1.3868,1.3414,1.3185,1.2679,1.2412,1.2505,1.2647,1.2914,1.3284,1.3652,1.3554,1.2802,1.177,1.0663,0.9579,0.8464,0.7865,0.7865,0.7865,0.7919,0.8035,0.7787,0.7648,0.7648,0.7756,0.7811,0.7814,0.7967,0.7977,0.7865,0.7865,0.7804,0.7702,0.7702,0.7682,0.7648,0.6979,0.6113,0.5068,0.3498,0.2431,0.1742,0.0798,0.07,0.089,0.8038,0.8038,0.8038,0.8038,0.8038,0.8137,0.8528,1.2711,1.4076,0.9209,0.8528,0.8428,0.8038,0.8038,0.8038,0.8038,0.8038,0.8038,0.8038,0.8038,0.8038,0.8038,0.8038,0.9927,1.4024,1.4088,1.4088,1.4088,0.9744,0.7379,0.7075,0.7075,0.6976,0.6793,0.6709,0.6515,0.6338,0.6338,0.6338,0.6338,0.6338,0.6586,0.7075,0.7075,0.6905,0.6668,0.6668,0.675,0.675,0.6681,0.6764,0.6816,0.7017,0.7115,0.7153,0.7295,0.7339,0.8016,1.1154,1.251,1.3219,1.4138,1.4654,1.4963,1.4963,1.4963,1.4963,1.4963,1.4943,1.4923,1.4903,1.4636,1.4329,1.4035,1.3955,1.3741,1.322,1.2835,1.2627,1.2668,1.2107,1.1831,1.1971,1.0844,1.0066,0.996,0.87,0.8021,0.8021,0.8021,0.8028,0.8038,0.7882,0.7794,0.7794,0.7804,0.7811,0.7814,0.7967,0.8035,0.8021,0.8021,0.8018,0.8007,0.8007,0.7926,0.7601,0.5264,0.4098,0.3707,0.1273,0.099,0.2005,0.1911,0.2612,0.3509,0.8038,0.8038,0.8038,0.8038,0.8038,0.8038,0.8038,0.9698,1.0284,0.8233,0.8038,0.8038,0.8038,0.8038,0.8038,0.8038,0.8038,0.8038,0.8038,0.8038,0.8038,0.8038,0.8038,0.8512,0.9763,0.9744,0.9744,0.9744,0.8009,0.7139,0.7139,0.7139,0.7099,0.7017,0.6858,0.659,0.6274,0.6458,0.6637,0.6773,0.641,0.6614,0.7139,0.7139,0.7068,0.6956,0.6831,0.6749,0.6715,0.681,0.6844,0.6875,0.7078,0.7207,0.7493,0.828,0.8773,0.9465,1.207,1.1887,1.1558,1.3318,1.405,1.454,1.5312,1.5504,1.5504,1.5504,1.5357,1.5231,1.5231,1.4843,1.4543,1.4623,1.4322,1.3874,1.3213,1.2957,1.2654,1.1978,1.1816,1.1463,1.0769,1.0293,0.9608,0.8821,0.8333,0.8038,0.8038,0.8038,0.8038,0.8038,0.7984,0.7953,0.7953,0.7953,0.7953,0.7953,0.8011,0.8038,0.8038,0.8038,0.7537,0.6833,0.7637,0.7505,0.666,0.6561,0.5965,0.507,0.4079,0.3495,0.3215,0.3215,0.3015,0.2715,0.8038,0.8038,0.8038,0.8038,0.8038,0.8038,0.8038,0.8038,0.8038,0.8038,0.8038,0.8038,0.8038,0.8038,0.7335,0.5625,0.5525,0.5525,0.5525,0.7033,0.8038,0.8038,0.8038,0.7845,0.7431,0.7238,0.7139,0.7139,0.7139,0.7238,0.7417,0.7227,0.7139,0.7136,0.6997,0.6787,0.6552,0.6753,0.6956,0.7105,0.6702,0.678,0.7139,0.7139,0.7139,0.7122,0.6983,0.6895,0.6861,0.7017,0.7068,0.7102,0.7292,0.7424,0.7722,0.8623,0.9001,0.9511,1.1036,1.0649,1.0551,1.3327,1.4264,1.4752,1.5629,1.5832,1.5832,1.5832,1.5671,1.5531,1.5531,1.4826,1.4508,1.5084,1.4199,1.3379,1.3191,1.2553,1.1817,1.1115,1.0784,1.0288,0.941,0.941,0.9019,0.8038,0.8038,0.8038,0.8038,0.8038,0.8038,0.8038,0.8038,0.8038,0.8038,0.8038,0.8038,0.8038,0.7537,0.7335,0.7335,0.7335,0.6833,0.6029,0.7434,0.7434,0.6631,0.7132,0.6833,0.5929,0.5525,0.5022,0.4618,0.4116,0.3717,0.3116,0.8038,0.8038,0.8038,0.8038,0.8038,0.8038,0.8038,0.8038,0.8038,0.8038,0.8038,0.8038,0.8038,0.7939,0.5824,0.0505,0.0,0.0,0.0,0.5022,0.8038,0.8038,0.8038,0.8038,0.8038,0.7448,0.7139,0.7139,0.7139,0.7448,0.8021,0.7424,0.7146,0.7139,0.7139,0.7139,0.7139,0.7139,0.7139,0.7139,0.7139,0.7139,0.7139,0.7139,0.7143,0.7143,0.7143,0.7143,0.7166,0.7322,0.7373,0.7424,0.7719,0.7811,0.7841,0.7994,0.7933,0.7845,0.7997,0.9019,1.0826,1.4515,1.5618,1.5825,1.5832,1.5832,1.5832,1.5832,1.5825,1.5825,1.5825,1.4752,1.4177,1.5252,1.3435,1.225,1.3245,1.1419,0.9998,0.9998,0.8825,0.8038,0.8038,0.8038,0.8038,0.8038,0.8038,0.8038,0.8038,0.8038,0.8038,0.8038,0.8038,0.8038,0.8038,0.8038,0.8038,0.7939,0.6631,0.6029,0.6029,0.6029,0.6029,0.6029,0.7434,0.8038,0.7839,0.6531,0.6029,0.5929,0.4518,0.482,0.5829,0.4518,0.482,0.5627,0.8038,0.8038,0.8038,0.8038,0.8038,0.8038,0.8038,0.8038,0.8038,0.8038,0.8038,0.8038,0.8038,0.4622,0.1713,0.0101,0.0,0.0,0.0,0.5022,0.8038,0.8038,0.8038,0.8038,0.8038,0.7448,0.7139,0.7139,0.7139,0.7231,0.7414,0.7658,0.7546,0.7139,0.7139,0.7139,0.7139,0.7139,0.7139,0.7139,0.7139,0.7139,0.7139,0.7139,0.7227,0.735,0.735,0.7397,0.7468,0.7516,0.7533,0.7563,0.775,0.7811,0.7841,0.7994,0.8007,0.8178,0.9103,0.9706,1.0471,1.2443,1.373,1.4657,1.5629,1.5832,1.5832,1.5832,1.5051,1.4459,1.4459,1.3397,1.2598,1.2918,1.2389,1.1731,1.108,1.0449,0.9608,0.8726,0.8237,0.8038,0.8038,0.8038,0.8038,0.8038,0.8038,0.8038,0.8038,0.8038,0.8038,0.8038,0.8038,0.8038,0.8038,0.8038,0.8038,0.8038,0.7637,0.7434,0.7434,0.7434,0.6933,0.6029,0.7434,0.7434,0.6631,0.7135,0.7434,0.7335,0.693,0.7033,0.7235,0.5927,0.5022,0.4318,0.8038,0.8038,0.8038,0.8038,0.8038,0.8038,0.8038,0.8038,0.8038,0.8038,0.8038,0.7232,0.5022,0.1913,0.0,0.0,0.0,0.0,0.0,0.5022,0.8038,0.8038,0.7811,0.7682,0.7682,0.7326,0.7139,0.7139,0.7139,0.7139,0.7153,0.7756,0.7719,0.7139,0.7139,0.7139,0.7139,0.7139,0.7139,0.7139,0.7139,0.7139,0.7166,0.7404,0.7499,0.7509,0.7546,0.7577,0.7607,0.7665,0.7723,0.7787,0.7875,0.7899,0.7919,0.8014,0.8038,0.8137,0.9019,0.9608,1.0194,1.0974,1.2139,1.3295,1.4076,1.4274,1.4274,1.4274,1.359,1.3102,1.3102,1.2037,1.1263,1.1848,1.1068,1.0288,0.9998,0.9509,0.892,0.8137,0.8038,0.8038,0.8038,0.8038,0.8038,0.8038,0.8038,0.8038,0.8038,0.8099,0.813,0.813,0.8184,0.8214,0.8214,0.8214,0.8157,0.8038,0.7434,0.7235,0.7235,0.7235,0.6731,0.6029,0.7434,0.7537,0.6833,0.7637,0.8038,0.7939,0.7434,0.7235,0.6933,0.5125,0.3919,0.3015,0.8038,0.8038,0.8038,0.8038,0.8038,0.8038,0.8038,0.8038,0.8038,0.8038,0.7537,0.5425,0.0504,0.0,0.0,0.0,0.0404,0.0706,0.0706,0.5325,0.8038,0.8038,0.7512,0.7193,0.7143,0.7139,0.7139,0.7139,0.7139,0.717,0.7231,0.7726,0.7665,0.7139,0.7139,0.717,0.7221,0.7221,0.7221,0.7131,0.6678,0.6585,0.6911,0.7321,0.7359,0.7247,0.733,0.741,0.7465,0.7691,0.7923,0.8038,0.8038,0.8038,0.8038,0.8038,0.7939,0.7839,0.7839,0.8722,0.96,0.96,1.0578,1.1653,1.1848,1.1945,1.1945,1.1945,1.1848,1.1755,1.1853,1.0779,1.0199,1.158,0.9616,0.8435,0.9628,0.8847,0.8062,0.8062,0.8062,0.8062,0.8062,0.8062,0.8065,0.8079,0.8079,0.8079,0.8079,0.8214,0.8289,0.8289,0.8414,0.8482,0.8482,0.8482,0.8347,0.8079,0.6753,0.6245,0.6245,0.6234,0.6129,0.6232,0.7434,0.8038,0.8038,0.8038,0.7939,0.7736,0.6431,0.5929,0.5525,0.2917,0.2013,0.1812,0.8038,0.8038,0.8038,0.8038,0.8038,0.8038,0.8038,0.8038,0.8038,0.8038,0.4321,0.131,0.0101,0.0,0.0,0.0,0.3819,0.6226,0.6226,0.7335,0.8038,0.8038,0.7913,0.7624,0.7149,0.7139,0.7139,0.7139,0.7139,0.738,0.7838,0.7495,0.7265,0.7139,0.7139,0.7404,0.7845,0.7845,0.7845,0.7453,0.3237,0.2845,0.4602,0.3908,0.3994,0.4663,0.4675,0.5403,0.6558,0.7579,0.8011,0.8038,0.8038,0.8038,0.8038,0.8038,0.7235,0.6431,0.6431,0.6625,0.6825,0.6825,0.7822,0.941,1.1458,1.1945,1.1945,1.1945,1.1072,1.0681,1.1755,0.9998,0.8862,1.038,0.9099,0.8179,0.8603,0.8421,0.8221,0.8221,0.8221,0.8221,0.8221,0.8221,0.8265,0.8377,0.8387,0.8387,0.8387,0.8418,0.8435,0.8435,0.8465,0.8482,0.8482,0.8482,0.8448,0.8384,0.7962,0.7808,0.7804,0.7688,0.7537,0.7537,0.7839,0.8038,0.8038,0.8038,0.7335,0.6431,0.6129,0.5322,0.4218,0.2615,0.2013,0.1812,0.8038,0.8038,0.8038,0.8038,0.8038,0.8038,0.8038,0.8038,0.8038,0.8038,0.3318,0.0,0.0,0.0,0.1009,0.362,0.6429,0.8038,0.8038,0.8038,0.8038,0.8038,0.8038,0.7892,0.7577,0.7285,0.7139,0.7139,0.7428,0.7729,0.8031,0.7716,0.757,0.7556,0.7268,0.7475,0.8038,0.8038,0.8038,0.7534,0.2114,0.0807,0.211,0.2382,0.2869,0.3371,0.3764,0.4682,0.5927,0.7434,0.7434,0.6728,0.6728,0.6426,0.6124,0.6124,0.5622,0.5022,0.5022,0.5525,0.6029,0.6029,0.7033,0.8333,0.9702,0.9998,0.9998,0.9998,0.9509,0.924,1.0016,0.9041,0.8397,0.9256,0.8702,0.8279,0.836,0.837,0.837,0.837,0.837,0.837,0.837,0.837,0.8404,0.8476,0.8482,0.8482,0.8482,0.855,0.8591,0.8591,0.8662,0.8699,0.8699,0.8699,0.8699,0.8699,0.8476,0.837,0.8367,0.8218,0.815,0.815,0.815,0.815,0.8046,0.7431,0.6816,0.6004,0.4581,0.3666,0.2856,0.1546,0.1029,0.092,0.8038,0.8038,0.8038,0.8038,0.8038,0.8075,0.8177,0.8106,0.8038,0.8038,0.4121,0.1411,0.1411,0.1411,0.3118,0.7637,0.8038,0.8038,0.8038,0.8038,0.8038,0.8038,0.8038,0.8038,0.8038,0.755,0.7244,0.7139,0.7743,0.8038,0.8038,0.8038,0.8038,0.8018,0.7516,0.7573,0.8038,0.8038,0.7434,0.6226,0.1813,0.0,0.0202,0.1713,0.2416,0.2718,0.3416,0.4316,0.542,0.7332,0.6426,0.4518,0.482,0.4418,0.3817,0.3915,0.4016,0.4016,0.4016,0.502,0.6029,0.6029,0.7033,0.8038,0.8038,0.8038,0.8038,0.8038,0.8038,0.8085,0.854,0.847,0.8426,0.8804,0.8706,0.8489,0.8516,0.852,0.852,0.852,0.852,0.852,0.852,0.852,0.853,0.8557,0.856,0.856,0.856,0.8679,0.875,0.875,0.8872,0.894,0.894,0.894,0.894,0.8933,0.8679,0.8547,0.8516,0.8374,0.8306,0.8306,0.8306,0.8203,0.7888,0.6738,0.6012,0.5287,0.2908,0.1872,0.1564,0.0424,0.0,0.0,0.8038,0.8038,0.8038,0.8038,0.8038,0.8214,0.8737,0.8374,0.8038,0.8038,0.7335,0.693,0.693,0.693,0.7232,0.7939,0.8038,0.8038,0.8038,0.8038,0.8038,0.8038,0.8038,0.8038,0.8038,0.796,0.7662,0.7139,0.7743,0.8038,0.8038,0.8038,0.8038,0.8035,0.7953,0.7963,0.8038,0.8038,0.5322,0.1009,0.0303,0.0,0.0,0.0303,0.1109,0.2114,0.2213,0.3115,0.4618,0.7129,0.4722,0.1009,0.2618,0.302,0.3019,0.3817,0.4016,0.4016,0.4016,0.502,0.6029,0.6029,0.7033,0.8038,0.8038,0.8038,0.8038,0.8038,0.8038,0.8378,0.973,0.9071,0.877,1.0216,0.9301,0.8526,0.8662,0.8679,0.8679,0.8679,0.8679,0.8679,0.8679,0.8679,0.8733,0.8866,0.8876,0.8876,0.8876,0.8896,0.8906,0.8906,0.8927,0.894,0.894,0.894,0.894,0.894,0.8896,0.8808,0.8672,0.8523,0.8455,0.8455,0.8455,0.771,0.6548,0.6335,0.4859,0.254,0.2118,0.1273,0.0213,0.0107,0.0,0.0,0.8038,0.8038,0.8038,0.8038,0.8038,0.8241,0.8845,0.8713,0.8421,0.8082,0.8038,0.8038,0.8038,0.8038,0.8038,0.8038,0.8038,0.8038,0.8038,0.8038,0.8038,0.8038,0.8038,0.8038,0.8038,0.8038,0.7909,0.7641,0.7909,0.8038,0.8038,0.8038,0.8038,0.8038,0.8038,0.6329,0.3519,0.3519,0.2214,0.0,0.0,0.0,0.0,0.0,0.0807,0.2213,0.3718,0.4119,0.4416,0.7129,0.4422,0.0101,0.0908,0.121,0.1512,0.2816,0.3318,0.3419,0.3915,0.502,0.6044,0.6103,0.7086,0.8082,0.8248,0.8225,0.8143,0.8058,0.8109,0.8414,0.9065,0.8866,0.8796,0.9555,0.9103,0.876,0.8828,0.8838,0.8838,0.8838,0.8838,0.8838,0.8838,0.891,0.8988,0.9052,0.9059,0.9059,0.9059,0.8981,0.894,0.894,0.9018,0.9059,0.9059,0.9144,0.9188,0.9188,0.9188,0.9062,0.8832,0.8679,0.8611,0.8611,0.8611,0.8285,0.7532,0.5917,0.4521,0.3233,0.1512,0.0544,0.0,0.0,0.0,0.0]},{"header":{"parameterUnit":"m.s-1","parameterCategory":1,"la1":30.6,"la2":28.766,"lo1":-90.7593,"lo2":-88.6598,"dy":0.0162,"dx":0.0183,"nx":116,"ny":114,"refTime":"2023-08-24T06:00:00:Z","depth":0,"parameterNumber":3,"parameterNumberName":"V-component_of_WINDS"},"data":[0.0,0.0,0.0,0.0,0.0,0.0,0.0,0.0,0.0,0.0,0.0,0.0,0.0,0.0,0.0,0.0,0.0,0.0,0.0,0.0,0.0,0.0,0.0,0.0,0.0,0.0,0.0,0.0,0.0,0.0,0.0,0.0,0.0,0.0,0.0,0.0,0.0,0.0,0.0,0.0,0.0,0.0,0.0,0.0,0.0,0.0,0.0,0.0,0.0,0.0,0.0,0.0,0.0,0.0,0.0,0.0,0.0,0.0,0.0,0.0,0.0,0.0,0.0,0.0,0.0,0.0,0.0,0.0,0.0,0.0,0.0,0.0,0.0,0.0,0.0,0.0,0.0,0.0,0.0,0.0,0.0,0.0,0.0,0.0,0.0,0.0,0.0,0.0,0.0,0.0,0.0,0.0,0.0,0.0,0.0,0.0,0.0,0.0,0.0,0.0,0.0,0.0,0.0,0.0,0.0,0.0,0.0,0.0,0.0,0.0,0.0,0.0,0.0,0.0,0.0,0.0,0.0,0.0,0.0,0.0,0.0,0.0,0.0,0.0,0.0,0.0,0.0,0.0,0.0,0.0,0.0,0.0,0.0,0.0,0.0,0.0,0.0,0.0,0.0,0.0,0.0,0.0,0.0,0.0,0.0,0.0,0.0,0.0,0.0,0.0,0.0,0.0,0.0,0.0,0.0,0.0,0.0,0.0,0.0,0.0,0.0,0.0,0.0,0.0,0.0,0.0,0.0,0.0,0.0,0.0,0.0,0.0,0.0,0.0,0.0,0.0,0.0,0.0,0.0,0.0,0.0,0.0,0.0,0.0,0.0,0.0,0.0,0.0,0.0,0.0,0.0,0.0,0.0,0.0,0.0,0.0,0.0,0.0,0.0,0.0,0.0,0.0,0.0,0.0,0.0,0.0,0.0,0.0,0.0,0.0,0.0,0.0,0.0,0.0,0.0,0.0,0.0,0.0,0.0,0.0,0.0,0.0,0.0,0.0,0.0,0.0,0.0,0.0,0.0,0.0,0.0,0.0,0.0,0.0,0.0,0.0,0.0,0.0,0.0,0.0,0.0,0.0,0.0,0.0,0.0,0.0,0.0,0.0,0.0,0.0,0.0,0.0,0.0,0.0,0.0,0.0,0.0,0.0,0.0,0.0,0.0,0.0,0.0,0.0,0.0,0.0,0.0,0.0,0.0,0.0,0.0,0.0,0.0,0.0,0.0,0.0,0.0,0.0,0.0,0.0,0.0,0.0,0.0,0.0,0.0,0.0,0.0,0.0,0.0,0.0,0.0,0.0,0.0,0.0,0.0,0.0,0.0,0.0,0.0,0.0,0.0,0.0,0.0,0.0,0.0,0.0,0.0,0.0,0.0,0.0,0.0,0.0,0.0,0.0,0.0,0.0,0.0,0.0,0.0,0.0,0.0,0.0,0.0,0.0,0.0,0.0,0.0,0.0,0.0,0.0,0.0,0.0,0.0,0.0,0.0,0.0,0.0,0.0,0.0,0.0,0.0,0.0,0.0,0.0,0.0,0.0,0.0,0.0,0.0,0.0,0.0,0.0,0.0,0.0,0.0,0.0,0.0,0.0,0.0,0.0,0.0,0.0,0.0,0.0,0.0,0.0,0.0,0.0,0.0,0.0,0.0,0.0,0.0,0.0,0.0,0.0,0.0,0.0,0.0,0.0,0.0,0.0,0.0,0.0,0.0,0.0,0.0,0.0,0.0,0.0,0.0,0.0,0.0,0.0,0.0,0.0,0.0,0.0,0.0,0.0,0.0,0.0,0.0,0.0,0.0,0.0,0.0,0.0,0.0,0.0,0.0,0.0,0.0,0.0,0.0,0.0,0.0,0.0,0.0,0.0,0.0,0.0,0.0,0.0,0.0,0.0,0.0,0.0,0.0,0.0,0.0,0.0,0.0,0.0,0.0,0.0,0.0,0.0,0.0,0.0,0.0,0.0,0.0,0.0,0.0,0.0,0.0,0.0,0.0,0.0,0.0,0.0,0.0,0.0,0.0,0.0,0.0,0.0,0.0,0.0,0.0,0.0,0.0,0.0,0.0,0.0,0.0,0.0,0.0,0.0,0.0,0.0,0.0,0.0,0.0,0.0,0.0,0.0,0.0,0.0,0.0,0.0,0.0,0.0,0.0,0.0,0.0,0.0,0.0,0.0,0.0,0.0,0.0,0.0,0.0,0.0,0.0,0.0,0.0,0.0,0.0,0.0,0.0,0.0,0.0,0.0,0.0,0.0,0.0,0.0,0.0,0.0,0.0,0.0,0.0,0.0,0.0,0.0,0.0,0.0,0.0,0.0,0.0,0.0,0.0,0.0,0.0,0.0,0.0,0.0,0.0,0.0,0.0,0.0,0.0,0.0,0.0,0.0,0.0,0.0,0.0,0.0,0.0,0.0,0.0,0.0,0.0,0.0,0.0,0.0,0.0,0.0,0.0,0.0,0.0,0.0,0.0,0.0,0.0,0.0,0.0,0.0,0.0,0.0,0.0,0.0,0.0,0.0,0.0,0.0,0.0,0.0,0.0,0.0,0.0,0.0,0.0,0.0,0.0,0.0,0.0,0.0,0.0,0.0,0.0,0.0,0.0,0.0,0.0,0.0,0.0,0.0,0.0,0.0,0.0,0.0,0.0,0.0,0.0,0.0,0.0,0.0,0.0,0.0,0.0,0.0,0.0,0.0,0.0,0.0,0.0,0.0,0.0,0.0,0.0,0.0,0.0,0.0,0.0,0.0,0.0,0.0,0.0,0.0,0.0,0.0,0.0,0.0,0.0,0.0,0.0,0.0,0.0,0.0,0.0,0.0,0.0,0.0,0.0,0.0,0.0,0.0,0.0,0.0,0.0,0.0,0.0,0.0,0.0,0.0,0.0,0.0,0.0,0.0,0.0,0.0,0.0,0.0,0.0,0.0,0.0,0.0,0.0,0.0,0.0,0.0,0.0,0.0,0.0,0.0,0.0,0.0,0.0,0.0,0.0,0.0,0.0,0.0,0.0,0.0,0.0,0.0,0.0,0.0,0.0,0.0,0.0,0.0,0.0,0.0,0.0,0.0,0.0,0.0,0.0,0.0,0.0,0.0,0.0,0.0,0.0,0.0,0.0,0.0,0.0,0.0,0.0,0.0,0.0,0.0,0.0,0.0,0.0,0.0,0.0,0.0,0.0,0.0,0.0,0.0,0.0,0.0,0.0,0.0,0.0,0.0,0.0,0.0,0.0,0.0,0.0,0.0,0.0,0.0,0.0,0.0,0.0,0.0,0.0,0.0,0.0,0.0,0.0,0.0,0.0,0.0,0.0,0.0,0.0,0.0,0.0,0.0,0.0,0.0,0.0,0.0,0.0,0.0,0.0,0.0,0.0,0.0,0.0,0.0,0.0,0.0,0.0,0.0,0.0,0.0,0.0,0.0,0.0,0.0,0.0,0.0,0.0,0.0,0.0,0.0,0.0,0.0,0.0,0.0,0.0,0.0,0.0,0.0,0.0,0.0,0.0,0.0,0.0,0.0,0.0,0.0,0.0,0.0,0.0,0.0,0.0,0.0,0.0,0.0,0.0,0.0,0.0,0.0,0.0,0.0,0.0,0.0,0.0,0.0,0.0,0.0,0.0,0.0,0.0,0.0,0.0,0.0,0.0,0.0,0.0,0.0,0.0,0.0,0.0,0.0,0.0,0.0,0.0,0.0,0.0,0.0,0.0,0.0,0.0,0.0,0.0,0.0,0.0,0.0,0.0,0.0,0.0,0.0,0.0,0.0,0.0,0.0,0.0,0.0,0.0,0.0,0.0,0.0,0.0,0.0,0.0,0.0,0.0,0.0,0.0,0.0,0.0,0.0,0.0,0.0,0.0,0.0,0.0,0.0,0.0,0.0,0.0,0.0,0.0,0.0,0.0,0.0,0.0,0.0,0.0,0.0,0.0,0.0,0.0,0.0,0.0,0.0,0.0,0.0,0.0,0.0,0.0,0.0,0.0,0.0,0.0,0.0,0.0,0.0,0.0,0.0,0.0,0.0,0.0,0.0,0.0,0.0,0.0,0.0,0.0,0.0,0.0,0.0,0.0,0.0,0.0,0.0,0.0,0.0,0.0,0.0,0.0,0.0,0.0,0.0,0.0,0.0,0.0,0.0,0.0,0.0,0.0,0.0,0.0,0.0,0.0,0.0,0.0,0.0,0.0,0.0,0.0,0.0,0.0,0.0,0.0,0.0,0.0,0.0,0.0,0.0,0.0,0.0,0.0,0.0,0.0,0.0,0.0,0.0,0.0,0.0,0.0,0.0,0.0,0.0,0.0,0.0,0.0,0.0,0.0,0.0,0.0,0.0,0.0,0.0,0.0,0.0,0.0,0.0,0.0,0.0,0.0,0.0,0.0,0.0,0.0,0.0,0.0,0.0,0.0,0.0,0.0,0.0,0.0,0.0,0.0,0.0,0.0,0.0,0.0,0.0,0.0,0.0,0.0,0.0,0.0,0.0,0.0,0.0,0.0,0.0,0.0,0.0,0.0,0.0,0.0,0.0,0.0,0.0,0.0,0.0,0.0,0.0,0.0,0.0,0.0,0.0,0.0,0.0,0.0,0.0,0.0,0.0,0.0,0.0,0.0,0.0,0.0,0.0,0.0,0.0,0.0,0.0,0.0,0.0,0.0,0.0,0.0,0.0,0.0,0.0,0.0,0.0,0.0,0.0,0.0,0.0,0.0,0.0,0.0,0.0,0.0,0.0,0.0,0.0,0.0,0.0,0.0,0.0,0.0,0.0,0.0,0.0,0.0,0.0,0.0,0.0,0.0,0.0,0.0,0.0,0.0,0.0,0.0,0.0,0.0,0.0,0.0,0.0,0.0,0.0,0.0,0.0,0.0,0.0,0.0,0.0,0.0,0.0,0.0,0.0,0.0,0.0,0.0,0.0,0.0,0.0,0.0,0.0,0.0,0.0,0.0,0.0,0.0,0.0,0.0,0.0,0.0,0.0,0.0,0.0,0.0,0.0,0.0,0.0,0.0,0.0,0.0,0.0,0.0,0.0,0.0,0.0,0.0,0.0,0.0,0.0,0.0,0.0,0.0,0.0,0.0,0.0,0.0,0.0,0.0,0.0,0.0,0.0,0.0,0.0,0.0,0.0,0.0,0.0,0.0,0.0,0.0,0.0,0.0,0.0,0.0,0.0,0.0,0.0,0.0,0.0,0.0,0.0,0.0,0.0,0.0,0.0,0.0,0.0,0.0,0.0,0.0,0.0,0.0,0.0,0.0,0.0,0.0,0.0,0.0,0.0,0.0,0.0,0.0,0.0,0.0,0.0,0.0,0.0,0.0,0.0,0.0,0.0,0.0,0.0,0.0,0.0,0.0,0.0,0.0,0.0,0.0,0.0,0.0,0.0,0.0,0.0,0.0,0.0,0.0,0.0,0.0,0.0,0.0,0.0,0.0,0.0,0.0,0.0,0.0,0.0,0.0,0.0,0.0,0.0,0.0,0.0,0.0,0.0,0.0,0.0,0.0,0.0,0.0,0.0,0.0,0.0,0.0,0.0,0.0,0.0,0.0,0.0,0.0,0.0,0.0,0.0,0.0,0.0,0.0,0.0,0.0,0.0,0.0,0.0,0.0,0.0,0.0,0.0,0.0,0.0,0.0,0.0,0.0,0.0,0.0,0.0,0.0,0.0,0.0,0.0,0.0,0.0,0.0,0.0,0.0,0.0,0.0,0.0,0.0,0.0,0.0,0.0,0.0,0.0,0.0,0.0,0.0,0.0,0.0,0.0,0.0,0.0,0.0,0.0,0.0,0.0,0.0,0.0,0.0,0.0,0.0,0.0,0.0,0.0,0.0,0.0,0.0,0.0,0.0,0.0,0.0,0.0,0.0,0.0,0.0,0.0,0.0,0.0,0.0,0.0,0.0,0.0,0.0,0.0,0.0,0.0,0.0,0.0,0.0,0.0,0.0,0.0,0.0,0.0,0.0,0.0,0.0,0.0,0.0,0.0,0.0,0.0,0.0,0.0,0.0,0.0,0.0,0.0,0.0,0.0,0.0,0.0,0.0,0.0,0.0,0.0,0.0,0.0,0.0,0.0,0.0,0.0,0.0,0.0,0.0,0.0,0.0,0.0,0.8685,0.8966,0.0,0.0,0.0,0.0,0.0,0.0,0.0,0.0,0.0,0.0,0.0,0.0,0.0,0.0,0.0,0.0,0.0,0.0,0.0,0.0,0.0,0.0,0.0,0.0,0.0,0.0,0.0,0.0,0.0,0.0,0.0,0.0,0.0,0.0,0.0,0.0,0.0,0.0,0.4764,0.5526,0.7073,0.7055,0.7253,0.7725,0.0,0.0,0.0,0.0,0.0,0.0,0.0,0.0,0.0,0.0,0.0,0.0,0.0,0.0,0.0,0.0,0.0,0.0,0.0,0.0,0.0,0.0,0.0,0.0,0.0,0.0,0.0,0.0,0.0,0.0,0.0,0.0,0.0,0.0,0.0,0.0,0.0,0.0,0.0,0.0,0.0,0.0,0.0,0.0,0.0,0.0,0.0,0.0,0.0,0.0,0.0,0.0,0.0,0.0,0.0,0.0,0.0,0.0,0.0,0.0,0.0,0.0,0.0,0.0,0.0,0.0,0.0,0.0,0.0,0.0,0.8475,0.8729,0.0,0.0,0.0,0.0,0.0,0.0,0.0,0.0,0.0,0.0,0.0,0.0,0.0,0.0,0.0,0.0,0.0,0.0,0.0,0.0,0.0,0.0,0.0,0.0,0.4578,0.462,0.5127,0.5491,0.0,0.0,0.0,0.0,0.0,0.0,0.0,0.501,0.4774,0.4411,0.4632,0.5405,0.6625,0.6887,0.7372,0.8119,0.8771,0.0,0.0,0.0,0.0,0.0,0.0,0.0,0.0,0.0,0.0,0.0,0.0,0.0,0.0,0.0,0.0,0.0,0.0,0.0,0.0,0.0,0.0,0.0,0.0,0.0,0.0,0.0,0.0,0.0,0.0,0.0,0.0,0.0,0.0,0.0,0.0,0.0,0.0,0.0,0.0,0.0,0.0,0.0,0.0,0.0,0.0,0.0,0.0,0.0,0.0,0.0,0.0,0.0,0.0,0.0,0.0,0.0,0.0,0.0,0.0,0.0,0.0,0.0,0.8604,0.892,0.915,0.915,0.8807,0.8208,0.8197,0.8294,0.8467,0.9283,0.0,0.0,0.0,0.0,0.0,0.0,0.0,0.0,0.0,0.0,0.0,0.0,0.0,0.0,0.0,0.0,0.0,0.0,0.0,0.0,0.0,0.413,0.4109,0.4325,0.4845,0.5059,0.0,0.0,0.0,0.0,0.0,0.0,0.5105,0.4644,0.4147,0.3638,0.5599,0.6893,0.7559,0.9062,0.9732,0.9638,0.9947,1.0372,1.0931,0.0,0.0,0.0,0.0,0.0,0.0,0.0,0.0,0.0,0.0,0.0,0.0,0.0,0.0,0.0,0.0,0.0,0.0,0.0,0.0,0.0,0.0,0.0,0.0,0.0,0.0,0.0,0.0,0.0,0.0,0.0,0.0,0.0,0.0,0.0,0.0,0.0,0.0,0.0,0.0,0.0,0.9564,0.9131,0.0,0.0,0.0,0.0,0.0,0.0,0.0,0.0,0.0,0.0,0.0,0.0,0.0,0.7235,0.7762,0.7627,0.7602,0.7602,0.7685,0.775,0.7747,0.7747,0.7832,0.8004,0.9035,0.0,0.9223,0.9897,0.0,0.0,0.0,0.0,0.0,0.0,0.0,0.0,0.0,0.0,0.0,0.0,0.0,0.0,0.0,0.0,0.0,0.0,0.0,0.0,0.0,0.4074,0.4145,0.4756,0.5193,0.5373,0.5223,0.5459,0.0,0.0,0.0,0.4822,0.4818,0.4483,0.4565,0.5068,0.5846,0.6897,0.8232,0.9621,1.052,1.103,1.2294,1.2513,1.1924,1.2383,0.0,0.0,0.0,0.0,0.0,0.0,0.0,0.0,0.0,0.0,0.0,0.0,0.0,0.0,0.0,0.0,0.0,0.0,0.0,0.0,0.0,0.0,0.0,0.0,0.0,0.0,0.0,0.0,0.0,0.0,0.0,0.0,0.0,0.0,0.0,0.0,0.0,0.0,0.0,0.9338,0.9375,0.8929,0.9715,1.0205,0.0,0.0,0.0,0.0,0.0,0.0,0.0,0.0,0.0,0.775,0.7432,0.7799,0.8824,0.8345,0.8437,0.9113,0.9113,0.9212,0.9349,0.9349,0.9581,0.9961,1.0864,1.1344,1.1398,1.116,1.0967,1.0918,0.0,0.0,0.0,0.0,1.0704,1.0243,0.0,0.0,0.0,0.0,0.0,0.0,0.0,0.0,0.0,0.0,0.0,0.0,0.4111,0.3913,0.4114,0.5033,0.53,0.5474,0.5629,0.5527,0.0,0.0,0.4535,0.4423,0.4321,0.4324,0.4979,0.6296,0.6001,0.6884,0.8834,1.0016,1.1327,1.2822,1.4511,1.4574,1.3318,1.3165,1.3221,1.3287,0.0,0.0,0.0,0.0,0.0,0.0,0.0,0.0,0.0,0.0,0.0,0.0,0.0,0.0,0.0,0.0,0.0,0.0,0.0,0.0,0.0,0.0,0.0,0.0,0.0,0.0,0.0,0.0,0.0,0.0,0.0,0.0,0.0,0.0,0.0,0.0,0.0,0.8915,0.9367,0.8728,0.9829,1.0518,0.0,0.0,0.0,0.0,0.0,0.0,0.8143,0.8349,0.8303,0.7958,0.8021,0.8658,0.989,0.9477,0.9665,1.0514,1.0514,1.0607,1.0813,1.0813,1.1063,1.1525,1.2236,1.2724,1.3032,1.2273,1.1709,1.1426,1.1567,1.1606,1.1572,1.1493,1.1165,1.0858,0.0,0.0,0.0,0.0,0.0,0.0,0.0,0.0,0.0,0.0,0.0,0.3513,0.3535,0.3408,0.377,0.4814,0.4757,0.496,0.566,0.5161,0.4727,0.4426,0.4225,0.3952,0.3569,0.4099,0.5011,0.6302,0.6327,0.7387,0.9388,1.0851,1.2868,1.5347,1.6011,1.6052,1.5593,1.5023,1.5184,1.5576,1.2883,0.0,0.0,0.0,0.0,0.0,0.0,0.0,0.0,0.0,0.0,0.0,0.0,0.0,0.0,0.0,0.0,0.0,0.0,0.0,0.0,0.0,0.0,0.0,0.0,0.0,0.0,0.0,0.0,0.0,0.0,0.0,0.0,0.0,0.0,0.0,0.0,0.0,0.0,0.8362,1.02,0.0,0.0,0.0,0.0,0.9255,0.9428,0.9026,0.7616,0.7809,0.82,0.882,0.9243,0.9906,1.0721,1.1156,1.1165,1.0788,1.0788,1.0797,1.0813,1.0813,1.1063,1.1525,1.2236,1.2724,1.3077,1.2924,1.2803,1.2705,1.193,1.1606,1.1558,1.1167,1.1013,1.0885,0.0,0.0,0.0,0.0,0.0,0.0,0.0,0.0,0.465,0.4106,0.3723,0.3556,0.369,0.3651,0.4222,0.5743,0.5462,0.5556,0.6462,0.5638,0.4988,0.4678,0.4044,0.3834,0.4082,0.4295,0.5506,0.7767,0.745,0.8388,1.0537,1.2047,1.3569,1.5053,1.6978,1.7743,1.7534,1.6606,1.6042,1.5711,1.4109,1.2807,0.0,0.0,0.0,0.0,0.0,0.0,0.0,0.0,0.0,0.0,0.0,0.0,0.0,0.0,0.0,0.0,0.0,0.0,0.0,0.0,0.0,0.0,0.0,0.0,0.0,0.0,0.0,0.0,0.0,0.0,0.0,0.0,0.0,0.0,0.0,0.0,0.0,0.9412,1.0713,0.0,1.0918,1.0639,1.018,0.955,0.9819,0.9655,0.8761,0.9684,1.0332,1.0586,1.0998,1.1452,1.1912,1.2075,1.2154,1.2157,1.2157,1.2157,1.2157,1.2157,1.2369,1.2818,1.3792,1.4228,1.4246,1.4679,1.4225,1.3252,1.293,1.2812,1.2832,1.2674,1.2793,1.2922,0.0,0.0,0.0,0.0,0.0,0.0,0.0,0.0,0.4472,0.3853,0.3494,0.3394,0.3601,0.397,0.4792,0.6285,0.5932,0.6021,0.6804,0.5773,0.4998,0.4679,0.4056,0.3825,0.4102,0.4496,0.574,0.7869,0.7271,0.8629,1.1902,1.3633,1.5163,1.6443,1.8207,1.8968,1.891,1.8158,1.7552,1.7073,1.6428,1.4962,1.3047,0.0,0.0,0.0,0.0,0.0,0.0,0.0,0.0,0.0,0.0,0.0,0.0,0.0,0.0,0.0,0.0,0.0,0.0,0.0,0.0,0.0,0.0,0.0,0.0,0.0,0.0,0.0,0.0,0.0,0.0,0.0,0.0,0.0,0.0,0.9247,1.0206,1.0496,1.154,1.2204,1.2067,1.1444,1.0917,1.0668,1.1006,1.093,1.0352,1.1072,1.1578,1.1851,1.1918,1.2184,1.2624,1.2624,1.2745,1.2881,1.2881,1.2881,1.2929,1.3302,1.3571,1.3872,1.5215,1.5659,1.5485,1.5959,1.5411,1.4272,1.3873,1.3721,1.3688,1.3561,1.3727,1.3857,0.0,0.0,0.0,0.0,0.0,0.0,0.0,0.503,0.4392,0.3591,0.3147,0.3001,0.3271,0.4297,0.5346,0.6299,0.6138,0.6169,0.658,0.5451,0.4668,0.4409,0.4202,0.3904,0.3539,0.4649,0.565,0.6445,0.5792,0.8166,1.3342,1.558,1.7706,1.969,1.9735,1.975,1.975,1.975,1.975,1.975,1.9741,1.8197,1.5649,0.0,0.0,0.0,0.0,0.0,0.0,0.0,0.0,0.0,0.0,0.0,0.0,0.0,0.0,0.0,0.0,0.0,0.0,0.0,0.0,0.0,0.0,0.0,0.0,0.0,0.0,0.0,0.0,0.0,0.0,0.0,0.0,0.0,0.8747,1.0824,1.225,1.1553,1.2693,1.3369,1.2959,1.3281,1.3208,1.2577,1.2878,1.2813,1.215,1.1805,1.1885,1.2543,1.2154,1.2252,1.2939,1.2978,1.2959,1.29,1.2929,1.2939,1.3008,1.4125,1.456,1.4563,1.6284,1.6957,1.678,1.6607,1.63,1.5783,1.4566,1.4097,1.4092,1.3774,1.3645,1.3584,0.0,0.0,0.0,0.0,0.0,0.0,0.0,0.4747,0.4126,0.3319,0.3289,0.3274,0.3168,0.4146,0.5198,0.6151,0.5701,0.5778,0.6839,0.5411,0.4422,0.4202,0.3845,0.3811,0.4155,0.4061,0.5125,0.7399,0.8433,0.9687,1.1281,1.6411,1.9132,1.9735,2.0707,2.1141,2.1141,2.1141,2.1141,2.1066,2.0079,1.9256,1.8732,0.0,0.0,0.0,0.0,0.0,0.0,0.0,0.0,0.0,0.0,0.0,0.0,0.0,0.0,0.0,0.0,0.0,0.0,0.0,0.0,0.0,0.0,0.0,0.0,0.0,0.0,0.0,0.0,0.0,0.0,0.0,1.0879,1.2656,1.0839,1.1586,1.252,1.2876,1.352,1.3863,1.3799,1.3412,1.3148,1.2923,1.3032,1.3032,1.2813,1.3479,1.3976,1.415,1.4323,1.4385,1.4268,1.4417,1.4094,1.333,1.3947,1.4195,1.4146,1.4888,1.5481,1.592,1.7201,1.7491,1.6969,1.7368,1.7111,1.6406,1.5124,1.4609,1.4619,1.4513,1.462,1.4897,0.0,0.0,0.0,0.0,0.0,0.0,0.0,0.4569,0.3971,0.305,0.3079,0.3119,0.2939,0.3818,0.4785,0.5716,0.5594,0.5695,0.6242,0.5224,0.4589,0.4603,0.4984,0.5305,0.5443,0.5342,0.6614,0.9276,1.1698,1.2451,1.1707,1.6245,1.9415,2.1365,2.2143,2.2203,2.1695,2.1695,2.2009,2.2428,2.1635,2.0662,1.9854,2.138,2.0064,1.7432,1.7432,1.7432,1.7372,1.6892,0.0,0.0,0.0,0.0,0.0,0.0,0.0,0.0,0.0,0.0,0.0,0.0,0.0,0.0,0.0,0.0,0.0,0.0,0.0,0.0,0.0,0.0,0.0,0.0,1.3166,1.4883,1.4011,1.3607,1.3499,1.4014,1.4258,1.4473,1.4648,1.4117,1.3858,1.4026,1.4035,1.4035,1.4035,1.4828,1.5255,1.5255,1.5601,1.5727,1.5466,1.5572,1.5356,1.4725,1.518,1.5374,1.5356,1.62,1.6657,1.6834,1.822,1.8425,1.7875,1.8128,1.799,1.744,0.0,0.0,0.0,0.0,1.5049,1.5391,0.0,0.0,0.0,0.0,0.0,0.0,0.0,0.4429,0.3874,0.281,0.269,0.2675,0.2641,0.3424,0.4272,0.5074,0.5491,0.5571,0.5262,0.505,0.5121,0.552,0.6795,0.7526,0.7592,0.792,0.9269,1.1696,1.5159,1.5844,1.3988,1.5696,1.8857,2.3176,2.3475,2.2966,2.1919,2.2084,2.29,2.4068,2.4068,2.245,2.0109,1.9974,2.0004,2.0124,2.0124,2.0291,2.0822,2.2885,0.0,0.0,0.0,0.0,0.0,0.0,0.0,0.0,0.0,0.0,0.0,0.0,0.0,0.0,0.0,0.0,0.0,0.0,0.0,0.0,0.0,0.0,0.0,0.0,1.6481,1.7254,1.7539,1.628,1.5273,1.516,1.5008,1.5098,1.5518,1.529,1.5249,1.5566,1.5712,1.577,1.577,1.6046,0.0,0.0,0.0,1.665,1.665,1.6587,1.653,1.648,1.6585,1.6585,1.6653,1.779,1.8041,1.7653,1.9207,1.9585,1.9096,1.8855,1.8684,1.8425,1.6602,1.5875,1.5722,1.529,1.5315,1.5467,0.0,0.0,0.0,0.0,0.0,0.0,0.0,0.4147,0.3623,0.2591,0.2601,0.2566,0.2173,0.3013,0.3784,0.429,0.4405,0.4556,0.4796,0.5376,0.6096,0.7023,0.7064,0.853,1.177,1.0517,1.1263,1.4183,1.7487,1.8432,1.7183,1.6722,1.7909,2.0543,2.2652,2.346,2.3295,2.4388,2.5575,2.6767,2.6767,2.5182,2.2727,2.1695,2.1949,2.2847,2.2847,2.3919,2.517,2.3999,2.1859,1.9136,1.6023,1.5034,0.0,0.0,0.0,0.0,0.0,0.0,0.0,0.0,0.0,0.0,0.0,0.0,0.0,0.0,0.0,0.0,0.0,0.0,0.0,1.7002,1.8791,1.9594,1.8736,1.8512,1.8169,1.7465,1.6497,1.5996,1.6436,1.6707,1.6873,1.687,1.7503,1.7906,1.7906,1.7978,1.8169,1.8628,1.8283,1.8081,1.8081,1.7746,1.7392,1.6875,1.7555,0.0,1.7811,1.9041,1.9541,1.9332,2.0256,2.0244,1.9635,1.9158,1.858,1.8017,1.7418,1.6838,1.6413,1.6894,1.6736,1.6301,0.0,0.0,0.0,0.0,0.0,0.0,0.0,0.4175,0.372,0.268,0.2453,0.2343,0.2206,0.2988,0.3552,0.364,0.393,0.4364,0.4966,0.5383,0.5999,0.6941,0.7694,0.9202,1.1548,1.164,1.2581,1.4487,1.7459,1.8527,1.7815,1.7935,1.8988,2.079,2.2539,2.3422,2.364,2.4313,2.643,2.9344,2.9344,2.7866,2.545,2.4148,2.4462,2.5575,2.5264,2.5803,2.6539,2.5491,2.3577,2.141,2.0109,1.8826,1.7492,0.0,0.0,0.0,0.0,0.0,0.0,0.0,0.0,0.0,0.0,0.0,0.0,0.0,0.0,1.2852,1.2852,0.0,1.5263,1.8729,2.0009,2.0542,2.0393,2.0149,1.9622,1.8769,1.8077,1.7793,1.7964,1.8186,1.8185,1.7897,1.8222,1.8396,1.8081,1.8405,1.8742,1.8997,1.9085,1.9173,1.9173,1.8964,1.8697,1.8386,1.9157,1.9466,1.9459,2.043,2.0818,2.0756,2.0795,2.0597,2.0232,1.9674,1.8978,1.8346,1.8619,1.8004,1.7058,1.7256,1.7213,1.6946,0.0,0.0,0.0,0.0,0.0,0.0,0.0,0.4203,0.3805,0.2867,0.2438,0.2254,0.2352,0.2929,0.331,0.3259,0.3694,0.435,0.5235,0.5504,0.591,0.6566,0.8333,0.9605,1.0195,1.1901,1.3147,1.3917,1.6937,1.8219,1.7906,1.9155,2.0388,2.1614,2.3063,2.3919,2.4256,2.4821,2.746,3.1213,3.1045,2.9896,2.8181,2.7088,2.7349,2.8171,2.7077,2.6691,2.6691,2.6691,2.5566,2.4142,2.3709,2.2323,2.0318,1.7717,1.7356,0.0,0.0,0.0,0.0,0.0,0.0,0.0,0.0,1.692,1.8621,1.7051,1.6749,1.6749,1.6749,1.6979,1.8052,2.0484,2.1307,2.1722,2.2039,2.1756,2.1252,2.0535,1.984,1.9422,1.9524,1.9641,1.9518,1.9068,1.9305,1.9227,1.8576,1.9388,1.9842,1.9789,2.0395,2.0733,2.0733,2.0617,2.0566,2.0566,2.1125,2.1376,2.1376,2.2021,2.2199,2.2056,2.1412,2.1088,2.0886,2.0333,1.9797,1.9293,1.9915,1.9412,1.8299,1.7859,1.7821,1.7844,0.0,0.0,0.0,0.0,0.0,0.0,0.0,0.0,0.3427,0.2944,0.2733,0.2533,0.2253,0.2503,0.29,0.3419,0.3531,0.407,0.5235,0.6183,0.6782,0.6921,0.8523,0.9667,1.0264,1.1389,1.2386,1.332,1.7469,1.9426,1.9269,2.0116,2.0693,2.1244,2.473,2.6302,2.6517,2.9197,3.0656,3.115,3.049,3.0437,3.0764,3.0654,3.0687,3.0436,2.7703,2.6691,2.6691,2.6691,2.6539,2.6035,2.4184,2.4223,2.4433,2.1799,1.9735,1.7956,1.6241,1.5209,1.5023,1.6784,1.7463,1.8169,0.0,2.0076,1.9947,2.1218,2.1419,2.1419,2.1419,2.2704,2.3397,2.2196,2.3749,2.4606,2.3025,2.3987,2.4813,2.4734,2.1856,2.0003,2.0378,2.0819,2.1027,2.089,2.2219,2.2728,2.2106,2.3171,2.3809,2.3756,2.3929,2.3982,2.3982,2.3513,2.3238,2.3238,2.334,2.3405,2.3405,2.4056,2.4056,2.3442,2.2734,2.2018,2.1403,2.136,2.1237,2.1181,2.1305,2.1181,2.0996,2.0449,1.9897,1.9444,0.0,0.0,0.0,0.0,0.0,0.0,0.0,0.0,0.0,0.3313,0.3061,0.2882,0.2732,0.3097,0.3484,0.3827,0.3786,0.4302,0.5678,0.6181,0.6969,0.8185,0.8995,1.0174,1.1852,1.1836,1.2998,1.5483,1.8823,2.028,1.9993,2.0797,2.1118,2.1119,2.4111,2.5896,2.6776,2.8044,3.0179,3.2572,3.0914,3.0451,3.0894,3.22,3.1542,2.974,2.851,2.6347,0.0,2.0128,2.1262,2.3998,2.3126,2.2549,2.1819,2.0008,1.9307,1.8945,1.804,1.7476,1.7307,1.8185,1.9158,2.0045,2.0785,2.1212,2.1455,2.1464,2.2139,2.2798,2.2972,2.4129,2.51,2.5023,2.5961,2.6263,2.5079,2.517,2.526,2.4832,2.3448,2.2592,2.2763,2.2633,2.2552,2.2591,2.3212,2.3478,2.3239,2.3761,2.4024,2.3972,2.4024,2.4024,2.4024,2.3826,2.3701,2.3701,2.412,2.4269,2.4319,2.4936,2.4644,2.3626,2.3316,2.2537,2.1493,2.1493,2.1493,2.1493,2.1493,2.1493,2.1455,2.123,2.0964,2.0655,0.0,0.0,0.0,0.0,0.0,0.0,0.0,0.0,0.0,0.0,0.3474,0.3402,0.3323,0.3661,0.3911,0.3931,0.3848,0.4289,0.5471,0.6021,0.7231,0.9274,0.977,1.0651,1.2102,1.2105,1.3602,1.6731,1.9591,2.0959,2.0878,2.1368,2.1491,2.145,2.3555,2.5552,2.733,2.733,2.9329,3.2348,3.0963,3.0398,3.0554,3.1939,3.0595,2.7957,2.7745,2.5008,2.077,1.6172,1.7854,2.1865,2.1695,2.1043,2.0131,1.9092,1.9253,1.97,1.9395,1.8971,1.8871,1.9951,2.1255,2.2359,2.2546,2.3529,2.4165,2.357,2.428,2.4961,2.4829,2.5483,2.6356,2.7257,2.7379,2.7227,2.6762,2.6127,2.5615,2.5274,2.4779,2.4515,2.4639,2.3904,2.3464,2.3593,2.3949,2.4113,2.3978,2.4447,2.4696,2.4526,2.4696,2.4782,2.4782,2.4782,2.4782,2.4782,2.5264,2.5614,2.5789,2.6228,2.5818,2.4665,2.4665,2.396,2.2873,2.2873,2.2873,2.2803,2.2648,2.2583,2.2583,2.2583,2.2227,2.1675,0.0,0.0,0.0,0.0,0.0,0.0,0.0,0.0,0.0,0.0,0.0,0.0,0.0,0.389,0.3786,0.3548,0.3506,0.3703,0.413,0.5795,0.7759,0.9961,1.0965,1.0965,1.0019,1.1831,1.377,1.583,1.9311,2.1432,2.2237,2.1794,2.184,2.2321,2.3833,2.6163,2.8929,2.8929,2.9007,2.9218,3.006,3.0398,3.0318,2.9468,2.7585,2.5324,2.4591,2.2208,1.9223,1.8059,1.9073,2.0745,2.0235,2.0864,2.1738,2.1252,2.052,1.9897,1.9872,1.8779,1.8575,2.234,2.376,2.4798,2.717,2.8106,2.8745,2.9567,2.9725,2.9408,2.8112,2.7893,2.8008,2.8401,2.7797,2.7364,2.7527,2.6986,2.6733,2.7257,2.5712,2.4792,2.5333,2.4218,2.3517,2.3517,2.479,2.5284,2.4596,2.6419,2.7166,2.6523,2.7121,2.7449,2.7449,2.7449,2.7449,2.7449,2.75,2.7859,2.8502,2.8502,2.8104,2.736,2.736,2.696,2.627,2.627,2.627,2.6214,2.5521,2.5287,2.5287,2.5287,2.4027,2.2359,0.0,0.0,0.0,0.0,0.0,0.0,0.0,0.0,0.0,0.0,0.0,0.0,0.0,0.0,0.0,0.0,0.3784,0.4266,0.5095,0.6013,0.7183,0.8636,0.9395,1.0071,1.0753,1.0844,1.2484,1.5799,1.7399,1.909,2.0714,2.0767,2.1498,2.2703,2.2943,2.5243,2.8994,2.8994,2.9357,2.9962,3.0273,3.0398,3.0355,3.0037,2.9407,2.7761,0.0,1.8989,1.9847,1.9057,1.9236,1.9885,2.0381,2.059,2.0694,2.0987,2.1258,2.1744,2.2863,2.3665,2.4605,2.6367,2.7475,2.8468,2.9654,3.0391,3.0594,3.008,2.9219,2.8269,2.7256,2.659,2.6491,2.735,2.748,2.7691,2.8166,2.805,2.7468,2.6349,2.6398,2.6028,2.4843,2.4353,2.4342,2.4855,2.6044,2.6715,2.6591,2.7982,2.8529,2.79,2.8466,2.8808,2.8847,2.8847,2.9127,2.9592,2.9559,2.9419,2.9235,2.9225,2.8794,2.8093,2.8093,2.7684,2.6951,2.6576,2.6646,2.6882,2.5841,2.5938,2.659,2.5688,2.5242,2.498,0.0,0.0,0.0,0.0,0.0,0.0,0.0,0.0,0.0,0.0,0.0,0.0,0.0,0.0,0.0,0.0,0.0,0.4694,0.556,0.624,0.6947,0.7669,0.9009,1.0046,1.0715,1.1557,1.2553,1.3627,1.4474,1.5874,1.7759,1.8488,1.9663,2.1242,2.2203,2.4103,2.6644,2.7372,2.8036,2.8668,2.9898,2.8937,2.6783,2.6783,2.6033,0.0,1.8919,1.8281,1.9909,1.9719,1.9504,1.9408,2.0065,2.0511,2.0889,2.1198,2.2463,2.4039,2.5438,2.7099,2.8679,2.9576,3.0828,3.2004,3.2419,3.2579,3.2295,3.1012,2.9633,2.8152,2.6617,2.5782,2.5457,2.5971,2.6093,2.6557,2.7709,2.7425,2.7054,2.697,2.7272,2.7065,2.5911,2.6018,2.5957,2.5505,2.6851,2.7743,2.7888,2.9075,2.961,2.9273,2.9643,2.9863,2.9875,2.9875,3.0142,3.0612,3.0809,3.0666,3.0312,3.0274,2.9999,2.9514,2.9251,2.8913,2.8397,2.8026,2.8083,2.8383,2.7559,2.761,2.8016,2.7442,2.7161,2.6985,0.0,0.0,0.0,0.0,0.0,0.0,0.0,0.0,0.0,0.0,0.0,0.0,0.0,0.0,0.0,0.0,0.0,0.0,0.5515,0.6463,0.707,0.7222,0.9682,1.0666,0.9843,1.352,1.3574,0.9698,1.0848,1.2239,1.3853,1.5242,1.6668,1.8197,2.1432,2.2698,2.25,2.4283,2.4937,2.5053,2.8129,2.561,2.0042,2.0042,1.8105,1.583,1.9081,1.9843,1.939,2.0031,1.9945,1.9565,1.9648,2.1035,2.2605,2.2358,2.4312,2.6764,2.7674,2.9154,3.0683,3.199,3.3736,3.5179,3.5213,3.4623,3.3712,3.2479,3.0942,2.9055,2.6313,2.5467,2.496,2.4472,2.4055,2.4522,2.6504,2.5723,2.6045,2.8996,2.8435,2.7947,2.8355,2.9032,2.8362,2.5706,2.7412,2.8528,2.8565,2.9878,3.064,3.0697,3.0713,3.0729,3.076,3.074,3.0772,3.0772,3.1374,3.17,3.1678,3.17,3.17,3.1678,3.0925,3.0608,3.0608,3.0578,3.0578,3.0588,3.0649,3.027,2.9757,3.0291,2.9674,2.8299,0.0,0.0,0.0,0.0,0.0,0.0,0.0,0.0,0.0,0.0,0.0,0.0,0.0,0.0,0.0,0.0,0.0,0.0,0.6312,0.6787,0.7245,0.7631,0.8591,0.9019,0.8781,1.0018,1.0335,0.9698,1.0002,1.1065,1.2803,1.4074,1.5648,1.7453,1.8172,2.0445,2.3611,2.2192,2.0092,1.7631,1.5939,1.5766,1.6497,1.6497,1.7235,1.8365,1.9242,1.9448,1.9335,1.9504,2.1081,2.3175,2.4409,2.5949,2.753,2.8758,2.9032,2.9412,3.1554,3.2676,3.3577,3.5047,3.5813,3.6091,3.5634,3.4643,3.3265,3.1027,2.8472,2.6237,2.506,2.3887,2.3585,2.5174,2.6083,2.727,2.9218,2.9612,2.988,3.0242,3.0417,3.0362,2.9927,3.0985,3.1123,2.9777,3.0179,3.0558,3.0762,3.1973,3.2448,3.2006,3.2451,3.2698,3.2755,3.2832,3.2851,3.2851,3.295,3.3013,3.3105,3.303,3.3029,3.3069,3.2361,3.205,3.202,3.1513,3.1605,3.2052,3.1536,3.1817,3.2406,3.1006,3.0323,2.9937,0.0,0.0,0.0,0.0,0.0,0.0,0.0,0.0,0.0,0.0,0.0,0.0,0.0,0.0,0.0,0.0,0.0,0.0,0.0,0.7214,0.7533,0.7796,0.824,0.8648,0.896,0.9152,0.9394,0.9698,0.9698,1.0221,1.1226,1.1918,1.3132,1.4756,1.4059,1.5328,1.7913,1.6456,1.4709,0.0,0.0,1.3497,1.5325,1.6544,1.7079,1.7381,1.8775,2.0225,2.1496,2.1782,2.5164,2.9127,2.8766,2.9856,3.1227,3.0964,3.1585,3.2498,3.3119,3.4524,3.5905,3.643,3.7022,3.71,3.5646,3.4485,3.2782,2.9623,2.6991,2.4926,2.3891,2.2622,2.2429,2.462,2.5005,2.6184,2.9598,2.9908,3.0338,3.1759,3.2223,3.2245,3.1819,3.3018,3.365,3.3161,3.2527,3.2244,3.2356,3.3332,3.3738,3.3419,3.3727,3.3789,3.3551,3.3892,3.3887,3.3582,3.3876,3.4005,3.4021,3.4021,3.4005,3.3987,3.3339,3.3039,3.3008,3.2631,3.2694,3.3014,3.2966,3.3194,3.3421,3.2237,3.1454,3.0901,0.0,0.0,0.0,0.0,0.0,0.0,0.0,0.0,0.0,0.0,0.0,0.0,0.0,0.0,0.0,0.0,0.0,0.0,0.0,0.0,0.7867,0.7907,0.838,0.8934,0.9585,0.9633,0.9641,0.9625,0.9641,0.9649,0.9649,0.9687,1.0334,1.1396,1.0254,1.0138,1.0786,1.0786,1.0786,1.1036,1.4017,1.5165,1.5372,0.0,1.6922,1.4897,1.7997,2.0933,2.3578,2.5188,2.9841,3.4576,3.211,3.2771,3.4006,3.1725,3.3376,3.5638,3.4025,3.5658,3.7732,3.7156,3.7758,3.7812,3.5503,3.4012,3.2029,2.8212,2.5981,2.4334,2.2937,2.1866,2.1892,2.3935,2.3233,2.4203,2.9307,2.9,2.9642,3.34,3.3875,3.3895,3.3912,3.5136,3.5926,3.5926,3.4726,3.4015,3.4015,3.4506,3.4891,3.5017,3.4934,3.4627,3.4032,3.4382,3.4333,3.3887,3.4382,3.464,3.4736,3.4736,3.4736,3.4688,3.4037,3.3735,3.3735,3.3735,3.3735,3.3786,3.4479,3.4308,3.3653,3.3524,3.2642,3.1436,0.0,0.0,0.0,0.0,0.0,0.0,0.0,0.0,0.0,0.0,0.5514,0.5031,0.0,0.0,0.0,0.0,0.0,0.0,0.0,0.0,0.0,0.8447,0.8703,0.8913,0.9043,0.9312,0.9403,0.9282,0.9403,0.9447,0.9447,0.9684,0.9884,1.0053,1.0031,1.1638,1.4324,1.4324,1.4324,1.4363,1.4959,1.4973,1.4669,1.5159,0.0,0.0,1.7197,1.8431,1.9869,2.6225,2.9919,3.1915,3.2042,3.3826,3.5942,3.6388,3.7259,3.7987,3.7676,3.8035,3.858,3.9013,3.8388,3.7106,3.5183,3.2873,3.0107,2.6586,2.4609,2.3355,2.2798,2.2505,2.3193,2.5799,2.6181,2.7689,3.2093,3.2078,3.2475,3.4944,3.5326,3.5577,3.6165,3.7013,3.7516,3.7516,3.7263,3.7127,3.7127,3.6654,3.6675,3.7323,3.675,3.6367,3.6273,3.5162,3.4847,3.527,3.4783,3.4894,3.5424,3.5424,3.5424,3.5362,3.4736,3.4431,3.4431,3.4431,3.4431,3.4479,3.5144,3.5015,3.4329,3.3736,3.2675,3.1535,0.0,0.0,0.0,0.0,0.0,0.0,0.0,0.6388,0.6604,0.7209,0.6442,0.5901,0.6061,0.6326,0.6671,0.0,0.0,0.0,0.0,0.0,0.0,0.0,0.0,0.0,0.8383,0.888,0.9088,0.8988,0.0,0.9367,0.9403,0.9643,0.9728,0.9706,0.9825,1.1868,1.5183,1.495,1.4849,1.4849,1.4849,1.4698,1.4488,0.0,0.0,0.0,1.6874,1.8149,1.9088,2.2463,2.6085,2.9717,3.2827,3.5211,3.7172,3.8608,3.892,3.8773,3.8635,3.9193,3.98,3.9783,3.8683,3.6943,3.4391,3.1732,2.8837,2.5515,2.3968,2.3141,2.2996,2.2485,2.2857,2.5173,2.486,2.6065,3.0971,3.1141,3.1812,3.4671,3.5383,3.5958,3.6738,3.7466,3.8075,3.8447,3.8464,3.8311,3.7922,3.7567,3.7533,3.7889,3.755,3.7003,3.6233,3.593,3.5546,3.5098,3.5098,3.5316,3.5622,3.5622,3.5622,3.5577,3.5253,3.5098,3.5098,3.5098,3.5098,3.5144,3.547,3.5407,3.5065,3.4355,3.3925,3.3582,0.0,0.0,0.0,0.0,0.0,0.0,0.0,0.6242,0.6629,0.7566,0.7131,0.6727,0.6727,0.6828,0.6977,0.0,0.0,0.0,0.0,0.0,0.0,0.0,0.0,0.0,0.797,0.0,0.0,0.9009,0.9324,0.0,0.0,0.0,0.0,0.0,1.0415,1.1955,1.4042,1.436,1.4488,0.0,0.0,1.4417,1.4257,0.0,0.0,0.0,0.0,1.8039,1.9133,1.8071,2.126,2.6549,3.1623,3.4896,3.7153,3.8581,3.9027,3.9129,3.9154,4.0101,4.1007,4.0671,3.9047,3.6798,3.3851,3.0891,2.7857,2.4754,2.3628,2.3165,2.3117,2.2351,2.2365,2.4208,2.316,2.3945,2.9134,2.9594,3.0616,3.3888,3.5351,3.6349,3.6958,3.7838,3.8616,3.9174,3.9225,3.8903,3.8176,3.8294,3.8379,3.8379,3.8227,3.7496,3.6191,3.6589,3.6118,3.483,3.5362,3.5622,3.5622,3.5622,3.5622,3.5622,3.5622,3.5622,3.5622,3.5622,3.5723,3.5876,3.5876,3.5852,3.5786,3.5263,3.5366,3.5493,0.0,0.0,0.0,0.0,0.0,0.0,0.0,0.6376,0.6659,0.6956,0.7088,0.7146,0.7146,0.6996,0.6927,0.0,0.0,0.0,0.0,0.0,0.0,0.0,0.0,0.0,0.0,0.0,0.0,0.9709,0.9981,0.0,0.0,0.0,0.0,0.0,0.0,1.262,1.0383,1.3272,0.0,0.0,0.0,0.0,0.0,0.0,0.0,0.0,0.0,1.6744,1.8849,1.5879,1.7188,2.0814,2.5257,3.0445,3.4958,3.5346,3.7321,3.9585,4.0669,4.134,4.1961,4.2922,3.9893,3.6197,3.4173,3.0717,2.7116,2.4324,2.3437,2.3117,2.2797,2.2473,2.2726,2.4239,2.3806,2.4618,2.8552,2.9631,3.0858,3.3237,3.5994,3.7736,3.7787,3.9056,3.9918,3.9969,3.9969,3.9665,3.8937,3.9512,3.9884,3.9884,3.9242,3.8483,3.7708,3.711,3.6383,3.5515,3.5577,3.5622,3.5622,3.5622,3.5622,3.5622,3.5622,3.5622,3.5622,3.5622,3.6045,3.6671,3.6671,3.6695,3.6687,3.6637,3.6261,3.5648,0.0,0.0,0.0,0.0,0.0,0.0,0.5741,0.6112,0.6682,0.7619,0.7428,0.7501,0.8317,0.7611,0.7128,0.7298,0.0,0.0,0.0,0.0,0.0,0.0,0.0,0.0,0.0,0.0,0.8424,0.8967,1.0151,0.0,0.0,0.0,0.0,0.0,0.0,1.1668,1.2664,1.3967,0.0,0.0,0.0,0.0,0.0,0.0,0.0,0.0,0.0,0.0,1.6961,1.7729,1.8558,1.9601,2.1327,2.3948,2.7272,3.1934,3.5192,3.769,3.9599,4.1227,4.2297,4.2249,3.8922,3.518,3.346,2.9448,2.5663,2.4288,2.3566,2.3212,2.33,2.289,2.2726,2.3326,2.2664,2.3067,2.5879,2.6522,2.8061,3.1647,3.4233,3.6414,3.8219,3.9638,4.0481,4.059,4.0286,3.9952,3.9665,3.9512,3.9428,3.9428,3.914,3.843,3.7246,3.7381,3.684,3.5622,3.6096,3.6079,3.5639,3.6096,3.6315,3.6299,3.5825,3.5876,3.6282,3.5808,3.6079,3.6772,3.6772,3.7071,3.7434,3.7434,3.7553,3.7549,0.0,0.0,0.0,0.0,0.0,0.5185,0.5415,0.5834,0.6565,0.7802,0.7648,0.7762,0.8722,0.7968,0.7455,0.7605,0.7665,0.0,0.0,0.0,0.0,0.0,0.0,0.0,0.0,0.0,0.8012,0.8258,1.0151,1.0805,0.0,0.0,1.0435,1.0734,0.0,0.0,0.0,0.0,0.0,0.0,0.0,0.0,0.0,0.0,0.0,0.0,0.0,0.0,0.0,0.0,0.0,1.8041,1.8996,1.9822,2.168,2.8067,3.2317,3.5348,3.7358,3.9857,4.1705,4.1089,3.7781,3.4174,3.232,2.8346,2.4732,2.3578,2.3346,2.332,2.3217,2.2911,2.2695,2.2695,2.2029,2.2141,2.39,2.4543,2.615,2.977,3.217,3.4666,3.7525,3.9451,4.0647,4.0886,4.0417,4.007,4.007,3.9394,3.9089,3.9309,3.9326,3.8616,3.7127,3.7635,3.7144,3.5622,3.618,3.6146,3.5639,3.6417,3.6654,3.6434,3.6332,3.6349,3.6417,3.6096,3.6417,3.711,3.711,3.7702,3.8548,3.8548,3.887,3.9141,0.0,0.0,0.0,0.0,0.0,0.0,0.5108,0.5566,0.6218,0.7098,0.762,0.7899,0.7914,0.7899,0.7899,0.7899,0.7471,0.0,0.0,0.0,0.0,0.0,0.0,0.0,0.0,0.0,0.7899,0.7899,1.0053,1.1857,1.3345,1.3345,1.3362,1.3227,0.0,0.0,0.0,0.0,0.0,0.0,0.0,0.0,0.0,0.0,0.0,0.0,0.0,0.0,0.0,0.0,0.0,0.0,0.0,1.9323,2.0016,2.3634,2.8456,3.2893,3.4026,3.7067,3.9937,3.9918,3.6835,3.3183,3.0779,2.7714,2.4626,2.1891,2.2592,2.3354,2.222,2.2391,2.2695,2.2695,2.2473,2.2564,2.3308,2.4678,2.6167,2.7637,3.0189,3.2818,3.5396,3.8328,4.0336,4.0926,4.0434,4.007,4.007,3.9394,3.9326,4.0054,4.007,3.9377,3.7905,3.7905,3.7144,3.5622,3.5622,3.5622,3.5639,3.6417,3.6366,3.5723,3.7229,3.7026,3.569,3.6451,3.7212,3.7889,3.7889,3.8785,4.0054,4.0054,4.0054,3.9969,0.0,0.0,0.0,0.0,0.0,0.0,0.0,0.6236,0.6433,0.6748,0.7438,0.7899,0.7899,0.7899,0.7899,0.7899,0.7768,0.0,0.0,0.0,0.0,0.0,0.0,0.0,0.0,0.0,0.8784,1.0563,1.1247,1.2199,1.3447,1.546,1.5325,1.3362,1.2397,1.2516,0.0,0.0,0.0,0.0,0.0,0.0,1.3761,0.0,0.0,0.0,0.0,0.0,0.0,0.0,0.0,0.0,0.0,0.0,0.0,2.0349,2.4511,2.8931,3.0325,3.2449,3.4113,3.343,3.1054,2.8539,2.7218,2.4532,2.2132,2.151,2.1444,2.1697,2.23,2.2159,2.2206,2.2909,2.2634,2.2395,2.2632,2.3917,2.5778,2.8315,3.3164,3.7102,3.9156,4.0005,4.0517,4.0691,4.0319,4.007,4.007,3.9868,3.9614,3.9343,3.9343,3.887,3.7922,3.7905,3.7398,3.6417,3.6417,3.6417,3.6451,3.7212,3.7415,3.7212,3.7702,3.7635,3.7195,3.7449,3.799,3.865,3.865,3.9242,4.007,4.007,4.007,4.0054,0.0,0.0,0.0,0.0,0.0,0.0,0.0,0.7064,0.705,0.7091,0.756,0.7899,0.7899,0.7899,0.7899,0.7899,0.7899,0.0,0.0,0.0,0.0,0.0,0.0,0.0,0.0,0.7899,0.9371,1.2416,1.2416,1.2743,1.3464,1.6424,1.6238,1.3396,1.3396,1.3396,0.0,0.0,0.0,0.0,0.0,0.0,1.3396,0.0,0.0,0.0,0.0,0.0,0.0,0.0,0.0,0.0,0.0,0.0,0.0,0.0,2.1349,2.4395,2.6597,2.8684,3.0079,2.9444,2.7714,2.5821,2.4622,2.265,2.1024,2.0797,2.0714,2.107,2.2335,2.2033,2.1951,2.3018,2.2686,2.2412,2.2682,2.3985,2.616,2.9506,3.4222,3.8002,4.0006,4.0221,4.0471,4.1025,4.0461,4.007,4.007,4.007,3.9868,3.9411,3.9411,3.9056,3.8328,3.8328,3.7939,3.7195,3.6907,3.6772,3.6806,3.7567,3.7584,3.7094,3.7939,3.8007,0.0,3.7787,3.8328,3.8988,3.8988,3.9445,4.007,4.007,4.007,4.007,0.0,0.0,0.0,0.0,0.0,0.0,0.0,0.7899,0.7899,0.7899,0.7899,0.7899,0.7899,0.7899,0.7899,0.7899,0.0,0.0,0.0,0.0,0.0,0.0,0.0,0.0,0.7899,0.7899,0.967,1.3278,1.3363,1.3396,1.3464,1.6424,1.6339,1.3701,1.3498,1.3396,1.3396,0.0,0.0,0.0,0.0,0.0,0.0,0.0,0.0,0.0,0.0,0.0,0.0,0.0,0.0,0.0,0.0,0.0,0.0,0.0,0.0,0.0,0.0,2.5493,2.7203,2.7181,2.6041,2.4479,2.2709,2.1727,0.0,1.9808,2.0268,2.1153,2.2162,2.193,2.1927,2.2994,2.2738,2.2632,2.3291,2.4847,2.7328,3.1193,3.3965,3.6317,3.8442,3.9301,4.0296,4.1541,4.0703,4.007,4.007,4.007,4.0054,4.0003,4.0054,3.9749,3.9073,3.9022,3.865,3.7973,3.7212,3.6891,3.6958,3.7669,3.7178,3.591,3.8108,3.8227,3.6924,3.7736,3.8464,3.9073,3.9073,3.9478,4.007,4.007,4.007,4.007,0.0,0.0,0.0,0.0,0.0,0.0,0.0,0.0,0.0,0.0,0.7899,0.7899,0.7899,0.7899,0.7899,0.0,0.0,0.0,0.0,0.0,0.0,0.0,0.0,0.0,0.7899,0.7899,0.9306,1.2174,1.2998,1.3396,1.3464,1.6424,1.7439,1.6678,1.4412,1.3396,1.3396,1.3396,0.0,0.0,0.0,0.0,0.0,0.0,0.0,0.0,1.3396,1.3904,0.0,0.0,0.0,0.0,0.0,0.0,0.0,0.0,1.8548,1.895,1.9939,0.0,2.1456,2.1134,2.0789,2.0337,0.0,1.9237,1.8863,1.8606,1.9009,1.9705,2.0783,2.1142,2.1644,2.265,2.3007,2.319,2.3376,2.6657,3.0293,3.3617,3.616,3.7747,3.7982,3.9437,4.035,4.0217,4.0141,4.007,4.007,4.007,3.9817,3.9276,3.9783,4.0003,3.9817,3.9276,3.8903,3.8717,3.799,3.7939,3.8481,3.865,3.8244,3.7466,3.9106,3.8988,3.7736,3.9039,3.9665,3.9817,3.9817,3.9935,4.007,4.007,4.007,4.007,0.0,0.0,0.0,0.0,0.0,0.0,0.0,0.0,0.0,0.0,0.0,0.0,0.0,0.0,0.0,0.0,0.0,0.0,0.0,0.0,0.0,0.0,0.0,0.7899,0.7899,0.7899,0.9188,1.1805,1.2376,1.3618,1.5443,1.705,1.7811,1.7676,1.4716,1.3396,1.3396,1.3396,1.3396,0.0,1.1618,0.0,0.0,0.0,0.0,0.0,1.3396,1.3752,0.0,1.4208,1.4614,1.5172,0.0,0.0,0.0,0.0,1.8031,1.8469,1.8752,1.9405,1.9936,1.9577,1.9524,1.9435,1.9017,1.8554,1.827,1.8486,1.8722,1.9335,2.0748,2.1113,2.1649,2.3041,2.3317,2.3985,2.5727,2.8349,3.1545,3.549,3.7106,3.8417,3.9745,4.0313,4.0634,4.0683,4.0323,3.9935,3.9597,3.9901,3.9597,3.8531,3.9191,3.9411,3.9089,3.936,3.9326,3.8988,3.8599,3.8616,3.8988,3.865,3.8091,3.7449,3.8599,3.8447,3.7499,3.8971,3.958,3.9614,3.9952,4.007,4.007,4.007,4.007,4.007,0.0,0.0,0.0,0.0,0.0,0.0,0.0,0.0,0.0,0.0,0.0,0.0,0.0,0.0,0.0,0.0,0.0,0.0,0.0,0.0,0.0,0.0,0.0,0.7899,0.7899,0.8289,0.9576,1.1805,1.2436,1.4453,1.7811,1.7811,1.7574,1.7033,1.4531,1.3396,1.3379,1.3226,1.3157,1.3157,1.3157,0.0,0.0,0.0,0.0,0.0,0.0,0.0,0.0,1.3429,1.3922,1.4511,1.4629,0.0,0.0,0.0,0.0,0.0,1.861,1.9614,2.0479,2.0081,2.0115,2.0089,1.9534,1.8918,1.8594,1.8992,1.9164,1.9719,2.1263,2.1541,2.2031,2.3581,2.3955,2.5372,2.9127,3.037,3.2521,3.6783,3.768,3.9013,4.1714,4.1274,4.1018,4.1611,4.0569,3.9648,3.9022,3.958,3.9292,3.7939,3.8616,3.8582,3.7736,3.9073,3.9528,3.9117,3.8918,3.8868,3.8931,3.8224,3.7499,3.6823,3.7702,3.7652,3.706,3.8548,3.9157,3.9225,3.9834,4.007,4.007,4.007,4.007,4.0121,0.0,0.0,0.0,0.0,0.0,0.0,0.0,0.0,0.0,0.0,0.0,0.0,0.0,0.0,0.0,0.0,0.0,0.0,0.0,0.0,0.0,0.7899,0.7899,0.7899,0.7899,1.0069,1.1401,1.1805,1.5222,1.7183,1.7811,1.7811,1.6475,1.4057,1.3599,1.3396,1.3346,1.2435,1.2066,1.2066,1.2066,0.0,0.0,0.0,0.0,0.0,0.0,0.0,0.0,1.357,1.3973,1.4596,1.524,0.0,0.0,0.0,0.0,0.0,1.9013,1.9984,2.0613,1.9668,1.9908,2.0304,1.9965,1.9806,1.973,1.9824,2.0365,2.0933,2.1206,2.2248,2.3151,2.343,2.5539,2.845,3.2205,3.3814,3.5266,3.6993,3.9369,4.0781,4.0547,4.1181,4.1454,4.107,3.9884,3.9106,3.9005,3.9106,3.8768,3.7939,3.8616,3.8345,3.6975,3.7804,3.8687,3.9583,3.8567,3.8308,3.8646,3.8142,3.7499,3.6857,3.8227,3.8413,3.7855,3.9309,3.9918,3.9918,4.0037,4.007,4.007,4.007,4.007,4.0154,0.0,0.0,0.0,0.0,0.0,0.0,0.0,0.0,0.0,0.0,0.0,0.0,0.0,0.0,0.0,0.0,0.0,0.0,0.0,0.0,0.7899,0.7899,0.7899,0.7899,0.7899,1.1886,1.3241,1.1805,1.4218,1.6238,1.7755,1.5572,1.326,1.1011,1.2081,1.2533,1.2514,1.2024,1.1805,1.1805,0.0,0.0,0.0,0.0,0.0,0.0,0.0,0.0,0.0,0.0,1.4007,1.4545,1.4902,0.0,0.0,0.0,0.0,0.0,1.8403,1.9441,2.0304,1.9812,2.0371,2.0987,2.0713,2.0306,2.0002,2.0002,2.0636,2.1312,2.1718,2.2987,2.4509,2.615,2.823,3.0531,3.3051,3.422,3.571,3.8199,3.991,4.1198,4.1904,4.2147,4.1984,4.1257,4.0075,3.9088,3.822,3.8707,3.8278,3.6721,3.7787,3.7997,3.722,3.7107,3.7566,3.852,3.8356,3.8373,3.8589,3.7694,3.711,3.684,3.7939,3.7736,3.6823,3.8717,3.9183,3.8768,3.962,4.0117,4.0429,4.0891,4.103,4.1076,0.0,0.0,0.0,0.0,0.0,0.0,0.0,0.0,0.0,0.0,0.0,0.0,0.0,0.0,0.0,0.0,0.0,0.0,0.0,0.0,0.7812,0.7605,0.8375,0.8814,0.8814,1.34,1.494,1.3206,1.404,1.5223,1.669,1.362,1.1371,1.0018,1.1508,1.2045,1.1805,1.1805,1.1805,1.1805,0.0,0.0,0.0,0.0,0.0,0.0,0.0,0.0,0.0,0.0,0.0,0.0,0.0,0.0,0.0,1.6919,1.7236,1.7625,1.7963,1.887,1.9816,2.017,2.1028,2.1807,2.1936,2.1498,2.116,2.1488,2.2057,2.2547,2.2767,2.4019,2.5981,2.9008,3.0886,3.2493,3.3981,3.5134,3.6812,3.9514,4.0435,4.1484,4.3041,4.2559,4.1863,4.1158,4.01,3.8929,3.7763,3.8418,3.7962,3.6089,3.7297,3.783,3.7499,3.701,3.7131,3.7842,3.8009,3.8157,3.8225,3.7069,3.6603,3.6806,3.7398,3.7077,3.6282,3.8024,3.8338,3.7863,3.9067,3.9931,4.0689,4.1273,4.1735,4.2021,0.0,0.0,0.0,0.0,0.0,0.0,0.0,0.0,0.0,0.0,0.0,0.0,0.0,0.0,0.0,0.0,0.0,0.0,0.0,0.0,0.753,0.6723,0.9787,1.1521,1.1521,1.4345,1.6311,1.7362,1.7445,1.6187,1.3718,1.3413,1.3211,1.3091,1.3227,1.2724,1.1805,1.1805,1.1805,1.1805,1.1805,0.0,0.0,0.0,0.0,0.0,0.0,0.0,0.0,0.0,0.0,0.0,0.0,0.0,1.6834,1.7523,1.727,1.7088,1.8437,1.8894,1.9316,2.0763,2.1695,2.2609,2.3964,2.4235,2.4543,2.593,2.6251,2.5896,2.456,2.5541,2.752,3.0548,3.2848,3.4793,3.6315,3.8668,4.0329,4.06,4.1542,4.2216,4.2378,4.1161,4.0365,4.0311,3.9103,3.8347,3.8241,3.8307,3.8047,3.737,3.7936,3.8012,3.7499,3.7678,3.8168,3.8852,3.7299,3.68,3.7256,3.62,3.6096,3.6772,3.684,3.7195,3.7753,3.7922,3.8167,3.852,3.8641,3.946,4.0594,4.0689,4.1515,4.2616,0.0,0.0,0.0,0.0,0.0,0.0,0.0,0.0,0.0,0.0,0.0,0.0,0.0,0.0,0.0,0.0,0.0,0.0,0.0,0.7392,0.6944,0.6616,0.9939,1.1805,1.1805,1.4435,1.5228,1.4072,1.4748,1.4479,1.3362,1.1482,1.1601,1.3363,1.2706,1.2174,1.1805,1.1805,1.1805,1.1805,1.1805,1.2455,0.0,0.0,0.0,0.0,0.0,0.0,0.0,0.0,1.4273,1.4604,1.4985,1.5618,1.6316,1.694,1.6936,1.6919,1.7946,1.9249,2.0348,2.0433,2.1735,2.3241,2.4286,2.4847,2.5338,2.5896,2.7131,2.7943,2.7385,2.8484,3.0006,3.1613,3.3339,3.5128,3.698,3.8408,3.9544,4.0298,4.1104,4.1552,4.1552,4.1074,4.0552,4.006,3.9265,3.8563,3.8079,3.8191,3.8011,3.7321,3.7937,3.8111,3.7749,3.7576,3.7917,3.8787,3.7793,3.7285,3.719,3.6786,3.6572,3.6577,3.7041,3.7127,3.7006,3.747,3.7833,3.8249,3.9066,4.0023,4.0981,4.147,4.1996,4.2449,0.0,0.0,0.0,0.0,0.0,0.0,0.0,0.0,0.0,0.0,0.0,0.0,0.0,0.0,0.0,0.0,0.0,0.0,0.7499,0.6927,0.6599,0.6599,0.9939,1.1805,1.1805,1.3936,1.3674,1.0875,1.1629,1.2465,1.3345,1.1279,1.1237,1.2871,1.2133,1.1805,1.1805,1.1805,1.1805,1.1805,1.1805,1.2455,0.0,0.0,0.0,0.0,0.0,0.0,0.0,0.0,1.4024,1.3953,1.4603,1.5089,1.5617,1.6469,1.6546,1.6559,1.754,1.9113,2.0399,2.0069,2.1549,2.3427,2.4864,2.5761,2.6505,2.7232,2.823,2.9163,2.96,3.0328,3.1157,3.2121,3.4066,3.5942,3.7301,3.8337,3.9276,4.0112,4.05,4.0726,4.0726,4.0506,4.012,3.9551,3.9185,3.8746,3.8168,3.8348,3.8114,3.7451,3.8078,3.8259,3.7911,3.7738,3.7929,3.8465,3.8267,3.7895,3.7396,3.7266,3.7122,3.7027,3.7306,3.7254,3.7027,3.7306,3.7595,3.8,3.91,4.001,4.0799,4.135,4.1699,4.1919,0.0,0.0,0.0,0.0,0.0,0.0,0.0,0.0,0.0,0.0,0.0,0.0,0.0,0.0,0.0,0.0,0.0,0.0,0.6668,0.6616,0.6616,0.6616,0.9939,1.179,1.1826,1.2871,1.1923,0.8891,0.8891,1.0432,1.3362,1.3379,1.2834,1.1805,1.1805,1.1805,1.1805,1.1805,1.1805,1.1805,1.1805,1.2455,1.3396,0.0,0.0,0.0,0.0,0.0,0.0,0.0,1.4162,1.4181,1.4649,1.4658,1.48,1.6258,1.6191,1.5933,1.7405,1.8352,1.9096,1.9833,2.1184,2.3105,2.6031,2.7283,2.845,3.0734,3.004,2.9465,3.0937,3.0632,3.0615,3.2053,3.5197,3.7482,3.7482,3.9039,4.0148,4.0185,4.0008,3.9882,3.9882,3.9166,3.8707,3.8707,3.8707,3.8707,3.8707,3.8707,3.8465,3.7928,3.8415,3.8446,3.7893,3.8433,3.8433,3.7893,3.8433,3.8415,3.7859,3.7433,3.7615,3.8267,3.7509,3.7615,3.8249,3.7509,3.7506,3.7946,3.8496,3.9184,3.9882,3.99,4.0396,4.1111,0.0,0.0,0.0,0.0,0.0,0.0,0.0,0.0,0.0,0.0,0.0,0.0,0.0,0.0,0.0,0.0,0.0,0.0,0.6616,0.7171,0.7514,0.7514,1.0269,1.2154,1.2908,1.3243,1.1923,0.8891,0.8891,0.9349,1.0267,1.1629,1.2092,1.1805,1.1805,1.1805,1.1805,1.1805,1.1805,1.1805,1.1805,1.2455,1.3396,0.0,0.0,0.0,0.0,0.0,0.0,0.0,0.0,0.0,1.4106,1.4776,1.5447,1.521,1.6103,1.7253,1.7693,1.913,2.0686,2.1448,2.3139,2.5135,2.7046,2.7249,2.796,3.1275,3.1613,3.1596,3.2577,3.2577,3.256,3.3,3.4406,3.5847,3.7088,3.7742,3.8348,3.9061,3.909,3.9056,3.9056,3.8836,3.8707,3.8707,3.8707,3.8707,3.8707,3.8707,3.8627,3.8465,3.8627,3.8627,3.8465,3.8267,3.8267,3.8465,3.8234,3.8047,3.7911,3.8168,3.8176,3.8026,3.7792,3.7828,3.8026,3.8192,3.835,3.8465,3.8627,3.8854,3.9129,3.968,4.0047,4.0267,0.0,0.0,0.0,0.0,0.0,0.0,0.0,0.0,0.0,0.0,0.0,0.0,0.0,0.0,0.0,0.0,0.0,0.0,0.0,0.8673,0.8455,0.793,1.0398,1.2296,1.3379,1.3396,1.2516,1.0686,1.0686,1.0686,1.0707,1.1458,1.1805,1.1805,1.1805,1.1805,1.1805,1.1805,1.1805,1.1805,1.1805,1.2455,1.3396,0.0,0.0,0.0,0.0,0.0,0.0,0.0,0.0,0.0,1.3955,1.4401,1.4986,1.4941,1.5883,1.7117,1.7997,1.9688,2.1458,2.2479,2.4408,2.6353,2.7519,2.8619,3.0091,3.2645,3.2933,3.2949,3.3694,3.3609,3.3508,3.3795,3.4787,3.5838,3.6602,3.7041,3.7437,3.7711,3.7753,3.7863,3.8193,3.7778,3.7674,3.8193,3.776,3.7692,3.8212,3.8212,3.8377,3.8689,3.8395,3.8377,3.8707,3.7744,3.7598,3.8212,3.7908,3.7744,3.7744,3.84,3.8496,3.8216,3.8216,3.8216,3.8249,3.8578,3.8707,3.8707,3.8707,3.8707,3.8762,3.9239,3.9423,3.9423,0.0,0.0,0.0,0.0,0.0,0.0,0.0,0.0,0.0,0.0,0.6899,0.0,0.0,0.0,0.0,0.0,0.0,0.0,0.0,0.0,0.9412,0.8303,1.0633,1.2356,1.3243,1.326,1.326,1.326,1.326,1.326,1.3243,1.252,1.2029,1.1805,1.1805,1.1854,1.194,1.1833,1.1854,1.1976,1.224,1.2776,1.3396,1.3396,0.0,0.0,0.0,0.0,0.0,0.0,0.0,0.0,1.4149,1.3996,1.4209,1.5214,1.568,1.6339,1.8352,2.0027,2.161,2.319,2.5372,2.7283,2.7977,3.0869,3.3541,3.3998,3.3728,3.3609,3.4269,3.3846,3.3626,3.4286,3.5821,3.6675,3.5895,3.6696,3.7063,3.6376,3.6303,3.6578,3.7312,3.6303,3.6095,3.7312,3.6285,3.6113,3.7331,3.7397,3.7753,3.8579,3.7808,3.7771,3.8579,3.7074,3.667,3.7397,3.7397,3.7397,3.7404,3.8303,3.8707,3.8707,3.8707,3.8707,3.8707,3.8707,3.8707,3.8707,3.8707,3.8707,3.8707,3.8707,3.8707,3.8707,0.0,0.0,0.0,0.0,0.0,0.0,0.0,0.0,0.0,0.0,0.0,0.0,0.0,0.0,0.0,0.0,0.0,0.0,0.0,0.0,1.0233,1.0942,1.2309,1.2762,1.2154,1.2133,1.2133,1.2133,1.2133,1.2133,1.2179,1.4056,1.382,1.1805,1.1805,1.2276,1.2998,1.2154,1.2296,1.3267,1.5595,1.5248,1.3396,1.3396,1.3862,0.0,0.0,0.0,0.0,0.0,0.0,0.0,1.5174,1.5923,1.6885,1.5231,1.6373,1.8285,1.8775,2.0027,2.1847,2.4475,2.7706,3.026,3.0429,3.2002,3.2949,3.1376,3.2307,3.3457,3.3609,3.3508,3.3457,3.3609,3.4266,3.4815,3.4995,3.5567,3.6035,3.6274,3.6303,3.6358,3.6541,3.5975,3.5877,3.6494,3.5975,3.5877,3.6523,3.656,3.6927,3.7716,3.6964,3.6927,3.7734,3.678,3.6376,3.656,3.656,3.656,3.6597,3.8046,3.8707,3.8707,3.8707,3.8707,3.8707,3.8707,3.8707,3.8707,3.8707,3.8707,3.8707,3.8707,3.8707,3.8707,0.0,0.0,0.0,0.0,0.0,0.0,0.0,0.0,0.0,0.0,0.0,0.0,0.0,0.0,0.0,0.0,0.0,0.0,0.0,0.0,1.1113,1.1768,1.2336,1.2376,1.1811,1.1805,1.1805,1.1805,1.1805,1.1805,1.1865,1.4539,1.5049,1.3695,1.2911,1.2889,1.3363,1.2799,1.2889,1.3532,1.5071,1.4766,1.3396,1.3396,1.3862,1.4488,1.4488,0.0,0.0,0.0,0.0,0.0,0.0,0.0,1.69,1.586,1.6627,1.7997,1.8707,2.0027,2.2073,2.5744,2.8687,3.0666,3.0666,3.1546,3.1918,3.0412,3.1867,3.3406,3.3406,3.3406,3.3473,3.3704,3.4129,3.4443,3.4563,3.4952,3.5217,3.5119,3.5092,3.5257,3.5642,3.4939,3.4776,3.5632,3.4909,3.4824,3.5632,3.5679,3.6064,3.689,3.6119,3.6083,3.6909,3.5697,3.5293,3.5679,3.5679,3.5899,3.6321,3.7165,3.7753,3.8102,3.7716,3.7551,3.7551,3.7551,3.7551,3.7551,3.7551,3.7551,3.7551,3.7551,3.779,3.812,0.0,0.0,0.0,0.0,0.0,0.0,0.0,0.0,0.0,0.0,0.0,0.0,0.0,0.0,0.0,0.0,0.0,0.0,0.0,0.0,0.0,1.1805,1.1805,1.1805,1.1805,1.1805,1.1805,1.1805,1.1982,1.2338,1.2873,1.5103,1.6163,1.6083,1.4767,1.4158,1.4158,1.4158,1.4158,1.4158,1.4158,1.4158,1.4158,1.4158,1.4546,1.5076,1.5076,1.5076,1.5216,1.6205,0.0,0.0,0.0,0.0,1.6347,1.6625,1.68,1.719,1.8521,2.0196,2.2513,2.6454,2.8586,2.9753,2.9888,3.0378,3.0649,3.004,3.1478,3.2831,3.2831,3.2754,3.2889,3.3425,3.3987,3.4278,3.4137,3.4368,3.4385,3.3862,3.3678,3.3917,3.4697,3.3818,3.3651,3.4715,3.38,3.3669,3.4752,3.477,3.5202,3.6046,3.5257,3.522,3.6064,3.4559,3.4137,3.477,3.477,3.5257,3.6064,3.5936,3.6376,3.7239,3.6578,3.6303,3.6303,3.6303,3.6303,3.6303,3.6303,3.6303,3.6303,3.6303,3.6707,3.7276,0.0,0.0,0.0,0.0,0.0,0.0,0.0,0.0,0.0,0.0,0.9905,0.0,0.0,0.0,0.0,0.0,0.0,0.0,0.9905,0.0,0.0,1.1805,1.1805,1.1805,1.1805,1.1805,1.1805,1.1805,1.2724,1.4496,1.7004,1.7382,1.7526,1.7509,1.7322,1.7219,1.7219,1.7219,1.7219,1.7219,1.7219,1.7219,1.7219,1.7219,1.7267,1.7356,1.7356,1.7356,1.7456,1.8069,1.8411,0.0,0.0,0.0,1.7748,1.6935,1.7151,1.7845,1.8674,2.0957,2.3545,2.5439,2.7029,2.8298,2.8975,2.9211,2.9245,2.9144,2.9888,3.0548,3.0548,3.0253,3.0283,3.1028,3.1841,3.2619,3.3256,3.3085,3.3146,3.3733,3.3183,3.3091,3.388,3.3491,3.3415,3.3927,3.3491,3.3415,3.3927,3.3972,3.4339,3.5137,3.4394,3.4357,3.5155,3.4266,3.3844,3.3972,3.3972,3.4394,3.5137,3.4449,3.4981,3.645,3.634,3.6303,3.6303,3.6303,3.6303,3.6303,3.6303,3.6303,3.6303,3.6303,3.6358,3.645,0.0,0.0,0.0,0.0,0.0,0.0,0.0,0.0,0.0,0.0,0.0,0.9905,0.0,0.0,0.0,0.9905,0.9905,1.021,1.0926,1.149,1.1805,1.1805,1.1805,1.1805,1.1805,1.1805,1.2092,1.2706,1.4827,1.6525,1.7845,1.9536,1.9435,1.7811,1.7811,1.7811,1.7811,1.7811,1.7811,1.7811,1.7811,1.7811,1.7811,1.7811,1.7811,1.7811,1.7811,1.8153,1.8589,1.8252,1.8146,1.8115,1.7852,0.0,0.0,0.0,1.7557,1.7963,1.8691,2.0179,2.1983,2.4132,2.5446,2.6559,2.7707,2.8305,2.8544,2.8367,2.8747,2.9281,2.9692,2.961,2.976,3.0627,3.1082,3.1544,3.2111,3.2033,3.2063,3.2412,3.254,3.2742,3.3091,3.3396,3.3424,3.3138,3.2949,3.2748,3.2467,3.2449,3.2614,3.2981,3.3091,3.3311,3.3633,3.3752,3.3807,3.3807,3.3807,3.399,3.4302,3.3495,3.4027,3.5569,3.5092,3.4908,3.4908,3.4908,3.4981,3.5129,3.5129,3.5129,3.5129,3.5129,3.5425,3.5851,0.0,0.0,0.0,0.0,0.0,0.0,0.0,0.0,0.0,0.0,0.0,0.0,0.0,0.0,0.0,0.0,1.0747,1.1031,1.1748,1.2433,1.2807,1.2807,1.2807,1.2493,1.1805,1.1805,1.2686,1.4531,1.6728,1.7811,1.7879,2.0906,2.1109,1.8944,1.8944,1.8521,1.7811,1.7811,1.7811,1.7811,1.7811,1.7954,1.826,1.9121,1.8909,1.8173,1.8173,1.8663,1.9178,1.8436,1.8173,1.8211,1.8275,1.8107,0.0,0.0,0.0,1.8024,1.8569,1.9314,2.0436,2.2582,2.3676,2.4604,2.6103,2.6853,2.7244,2.7244,2.7454,2.7861,2.8495,2.8945,2.9497,3.0366,3.0559,3.0812,3.1341,3.1219,3.1164,3.1366,3.1751,3.2082,3.2284,3.3018,3.3164,3.2357,3.2485,3.2247,3.1439,3.1384,3.1384,3.1384,3.1971,3.2302,3.2302,3.2889,3.3183,3.3183,3.3183,3.3183,3.3164,3.2577,3.2989,3.4171,3.3705,3.3529,3.3607,3.381,3.4068,3.4334,3.4334,3.4288,3.42,3.42,3.4609,3.5168,0.0,0.0,0.0,0.0,0.0,0.0,0.0,0.0,0.0,0.0,0.0,0.0,1.2797,1.3023,1.3023,1.3023,1.3023,1.2686,1.1844,1.418,1.5589,1.5589,1.5589,0.0,1.185,1.1805,1.3694,1.7574,1.7704,1.7811,1.7879,2.0906,2.2226,2.2073,2.2073,2.0483,1.7811,1.7811,1.7811,1.7811,1.7811,1.8358,1.9557,2.2685,2.1934,1.9209,1.9209,1.9259,1.9289,1.9243,1.9209,1.9095,1.8494,1.8252,1.8166,0.0,0.0,0.0,1.8218,1.8962,1.992,2.0745,2.1532,2.2452,2.4023,2.4409,2.4638,2.5438,2.5623,2.5755,2.6121,2.7417,2.8729,2.9521,2.9988,3.0497,3.1292,3.0742,3.0558,3.1311,3.076,3.0613,3.1384,3.2192,3.2339,3.1513,3.2173,3.2247,3.1439,3.1384,3.1384,3.1384,3.1439,3.1458,3.1458,3.1494,3.1513,3.1513,3.1513,3.1513,3.1513,3.1476,3.1647,3.1991,3.2465,3.281,3.3096,3.386,3.4379,3.4674,3.4674,3.4486,3.42,3.42,3.4237,3.4274,0.0,0.0,0.0,0.0,0.0,0.0,0.0,0.0,0.0,0.0,0.0,0.0,0.0,1.3198,1.3198,1.3198,1.3198,1.3048,1.2727,1.466,1.5799,1.5799,1.4165,1.3585,1.436,1.5209,1.6348,1.7811,1.7811,1.7811,1.7879,2.0906,2.231,2.2226,2.0297,1.9908,2.0703,2.0703,1.9587,1.7811,1.7811,1.8397,1.9656,2.2942,2.3474,2.2428,2.2428,2.1088,1.9305,1.9305,1.9162,1.8946,1.8699,1.8434,1.8166,1.7992,1.8078,1.8187,1.8187,1.8583,1.9225,2.0183,2.0596,2.1202,2.2692,2.344,2.3963,2.4564,2.5265,2.5864,2.5967,2.6459,2.7043,2.7583,2.8233,2.8576,2.8356,2.8521,2.876,2.9053,2.9292,2.9751,3.0558,3.1366,3.1494,3.0687,3.0907,3.0705,2.9898,2.9861,2.9861,2.9861,3.0356,3.087,3.1384,3.1384,3.1384,3.1384,3.1384,3.1507,3.1635,3.1117,3.1012,3.124,3.1439,3.1871,3.2497,3.3342,3.3864,3.4184,3.4754,3.4889,3.4774,3.4774,3.4774,3.4774,0.0,0.0,0.0,0.0,0.0,0.0,0.0,0.0,0.0,1.3198,0.0,0.0,0.0,0.0,1.3198,1.3198,1.3198,1.3198,1.3198,1.4814,1.5799,1.5799,1.4105,1.3985,1.5769,1.7126,1.7811,1.7811,1.7811,1.7811,1.7822,1.9833,2.0805,2.072,1.8684,1.8927,2.0873,2.1887,2.0568,1.7811,1.7811,1.9069,2.1235,2.3969,2.5346,2.5676,2.4593,2.2795,2.0849,2.0333,2.0111,1.9993,1.9631,1.9021,1.841,1.8146,1.8249,1.8469,1.8469,1.866,1.9021,1.972,1.99,2.0245,2.1476,2.2399,2.3154,2.3687,2.4635,2.5393,2.5393,2.5393,2.5659,2.646,2.7053,2.7218,2.6686,2.7053,2.7402,2.7402,2.8117,2.8815,2.9347,3.0356,3.065,2.9861,3.0063,2.9861,2.903,2.8994,2.8994,2.8994,2.9531,3.0063,3.0595,3.0595,3.0625,3.072,3.072,3.0861,3.1084,3.0541,3.0415,3.0593,3.0593,3.1066,3.1899,3.275,3.3441,3.3995,3.4569,3.4923,3.5105,3.5105,3.5105,3.5105,0.0,0.0,0.0,0.0,0.0,0.0,0.0,0.0,1.3198,1.3198,0.0,0.0,0.0,0.0,0.0,1.3298,1.3235,1.3198,1.3198,1.4814,1.5799,1.5799,1.5799,1.5827,1.5856,1.7126,1.7811,1.7811,1.7811,1.7811,1.7811,1.7896,1.7896,1.7811,1.7811,1.7811,1.7997,2.0914,2.056,1.7974,1.7974,2.0492,2.4373,2.5933,2.7548,2.8517,2.5364,2.4208,2.3914,2.2336,2.217,2.2373,2.1272,2.0059,1.8985,1.875,1.8842,1.9038,0.0,0.0,0.0,1.9323,1.9305,1.9491,2.0283,2.1143,2.1987,2.2813,2.3602,2.4171,2.419,2.419,2.4704,2.6282,2.6557,2.6557,2.6539,2.6557,2.6557,2.6557,2.7255,2.7732,2.775,2.92,2.9824,2.9012,2.9714,2.9824,2.903,2.8975,2.8957,2.8957,2.898,2.898,2.8957,2.8998,2.9156,2.9412,2.9412,2.9513,2.9713,2.9713,2.9813,3.0013,3.0013,3.049,3.1344,3.2168,3.3149,3.4122,3.4199,3.4587,3.5066,3.5086,3.5105,3.5105,0.0,0.0,0.0,0.0,0.0,0.0,1.3198,1.3198,1.3198,0.0,0.0,0.0,1.3373,1.4613,1.5605,1.5605,1.4112,1.3198,1.3198,1.4814,1.5799,1.5799,1.5799,1.6258,1.7224,1.7612,1.7811,1.7811,1.7811,1.7811,1.7862,2.0044,1.9908,1.7811,1.7811,1.7811,1.7862,1.8691,2.0349,2.2431,2.2431,2.3135,2.4245,2.4685,2.586,2.7108,2.5823,2.4483,2.3235,2.2593,2.2225,2.1933,2.1407,2.0626,1.9921,2.0232,2.0114,1.9867,1.9867,0.0,0.0,0.0,0.0,0.0,1.9583,2.028,2.1106,2.1951,2.2776,2.3511,2.408,2.419,2.4355,2.4795,2.5346,2.5529,2.4942,2.5364,2.5713,2.5713,2.5935,2.6282,2.6888,2.786,2.8374,2.8154,2.8888,2.9214,2.8994,2.8448,2.8136,2.8136,2.8278,2.8278,2.8136,2.9057,2.9456,2.9412,2.9551,2.9731,2.9924,2.9924,3.0047,3.0299,3.0299,3.0433,3.0759,3.2198,3.2628,3.2564,3.443,3.4864,3.4534,3.5153,3.5383,3.5383,0.0,0.0,0.0,0.0,0.0,1.3511,1.4425,1.4563,1.4563,0.0,0.0,0.0,1.4701,1.6546,1.7827,1.7827,1.6674,1.5901,1.5901,1.687,1.6938,1.5844,1.634,1.7002,1.7789,1.7811,1.7811,1.7811,1.7811,1.7811,1.7879,2.0906,2.138,1.9688,1.9688,1.9688,1.9696,2.0254,2.16,2.3445,2.3994,2.419,2.419,2.419,2.5052,2.6209,2.5786,2.5144,2.4392,2.3547,2.2832,2.2263,2.2118,2.1516,2.0916,2.124,2.1116,2.0879,2.0879,2.0979,2.092,2.0126,0.0,0.0,2.0011,2.0828,2.1793,2.2207,2.2942,2.3639,2.4116,2.419,2.419,2.419,2.4575,2.474,2.4263,2.4593,2.4887,2.4887,2.5201,2.5586,2.6043,2.6833,2.7291,2.7291,2.8044,2.8548,2.8621,2.8513,2.8186,2.7565,2.8334,2.854,2.8049,2.9157,2.9678,2.9643,2.9763,2.9958,3.0182,3.0182,3.0254,3.0398,3.0398,3.0398,3.0533,3.2218,3.2429,3.1852,3.3333,3.4026,3.4257,3.4776,3.5199,3.5493,0.0,0.0,1.3198,1.3198,1.3398,1.4225,1.622,1.6522,1.6522,0.0,1.6522,1.6595,1.6837,1.8574,1.969,1.969,1.969,1.969,1.969,1.9889,1.8949,1.6601,1.7355,1.7811,1.7811,1.7811,1.7963,1.8318,1.8318,1.8318,1.8369,2.1042,2.231,2.231,2.231,2.231,2.2377,2.3513,2.3422,2.2615,2.375,2.419,2.419,2.419,2.4795,2.5585,2.5346,2.5731,2.6117,2.4685,2.3731,2.3144,2.3144,2.2575,2.195,2.2041,2.2005,2.1914,2.1914,2.2027,2.1909,2.1098,2.1573,0.0,2.1105,2.2061,2.311,2.3015,2.3566,2.4098,2.4171,2.419,2.419,2.419,2.4209,2.4228,2.419,2.4209,2.4228,2.419,2.4853,2.5294,2.5274,2.5988,2.6465,2.6465,2.7291,2.7899,2.8107,2.8834,2.8633,2.725,2.8676,2.9051,2.815,2.9049,2.958,2.9713,2.9761,2.9934,3.0256,3.0256,3.0302,3.0398,3.0398,3.0398,3.0513,3.2006,3.2199,3.1583,3.1968,3.291,3.4083,3.4257,3.4834,3.5493,0.0,1.3198,1.3198,1.3198,1.4663,1.6019,1.6446,1.6522,1.6522,1.6522,1.6522,1.7146,1.8893,1.9442,1.969,1.969,1.969,1.969,1.969,2.0991,2.1562,2.1055,1.8975,1.7811,1.7811,1.7811,1.8995,2.1431,2.1431,2.1431,2.1448,2.204,2.231,2.231,2.231,2.231,2.231,2.2579,2.3116,2.3834,2.4094,2.419,2.419,2.419,2.4337,2.4502,2.4447,2.4538,2.4612,2.43,2.4098,2.3969,2.3969,2.3419,2.2887,2.3529,2.3272,2.2776,2.2776,2.2794,2.2609,2.1817,2.1756,0.0,2.1649,2.1854,2.2277,2.2868,2.3125,2.3437,2.408,2.419,2.419,2.419,2.4339,2.4393,2.4228,2.4339,2.4375,2.4209,2.4487,2.4616,2.4448,2.5144,2.5621,2.5621,2.6979,2.788,2.809,2.8277,2.7998,2.7226,2.7732,2.7504,2.6475,2.7643,2.816,2.7998,2.8198,2.8683,2.9352,2.9352,2.9737,3.0398,3.0398,3.0398,3.0417,3.0756,3.0814,3.0929,3.368,3.4103,3.3314,3.4737,3.5353,3.5493,1.3198,1.3198,1.3549,1.4638,1.574,1.6522,1.6522,1.6522,1.6879,1.7947,1.8106,1.8496,1.9566,1.969,1.969,1.969,2.0499,2.0991,2.0991,2.1811,2.231,2.231,2.0856,2.0035,2.0035,2.0035,2.0805,2.231,2.231,2.231,2.231,2.231,2.231,2.231,2.231,2.231,2.2338,2.2968,2.3602,2.419,2.419,2.419,2.419,2.419,2.419,2.419,2.419,2.419,2.4263,2.4649,2.452,2.419,2.419,2.3914,2.3676,2.408,2.3914,2.3621,2.3712,2.3747,2.3578,2.2824,2.3023,0.0,0.0,2.2922,2.3347,2.3566,2.3602,2.3731,2.4135,2.419,2.419,2.419,2.4375,2.4461,2.4357,2.4528,2.4607,2.4512,2.4575,2.4559,2.4375,2.4709,2.5078,2.5384,2.6239,2.7008,2.7621,2.7761,2.7509,2.693,2.7452,2.728,2.632,2.7351,2.7838,2.7687,2.7838,2.8313,2.9102,2.9102,2.9583,3.0398,3.0398,3.0398,3.0417,3.0871,3.0794,3.0609,3.2776,3.3583,3.3641,3.4526,3.5141,3.5493,1.3837,1.3837,1.4387,1.6208,1.6522,1.6522,1.6522,1.6837,1.7747,1.9479,1.969,1.969,1.969,1.969,1.9854,2.0174,2.1493,2.231,2.231,2.231,2.231,2.231,2.231,2.231,2.231,2.231,2.231,2.231,2.231,2.231,2.231,2.231,2.231,2.231,2.231,2.231,2.2377,2.3646,2.419,2.419,2.419,2.419,2.419,2.419,2.419,2.419,2.419,2.419,2.43,2.4962,2.474,2.419,2.419,2.419,2.419,2.419,2.419,2.4247,2.441,2.4426,2.431,2.3764,2.4242,2.4587,0.0,0.0,0.0,2.4284,2.419,2.419,2.419,2.419,2.4172,2.4026,2.4316,2.4503,2.4367,2.4676,2.4874,2.4804,2.4814,2.4741,2.4528,2.4461,2.4634,2.5127,2.5467,2.6038,2.6924,2.7266,2.7179,2.661,2.7274,2.7236,2.637,2.7044,2.739,2.739,2.7563,2.8082,2.8871,2.9025,2.9583,3.0398,3.0398,3.0398,3.0436,3.116,3.1141,3.0737,3.1602,3.2756,3.3968,3.4141,3.4757,3.5493,1.6145,1.6145,1.6178,1.6471,1.6522,1.6522,1.6522,1.8106,1.9406,1.969,1.969,1.969,1.969,1.969,2.0311,2.1886,2.218,2.231,2.231,2.231,2.231,2.231,2.231,2.231,2.231,2.231,2.231,2.231,2.231,2.231,2.231,2.231,2.231,2.231,2.231,2.231,2.2377,2.3646,2.419,2.419,2.419,2.419,2.419,2.419,2.419,2.419,2.419,2.419,2.4208,2.43,2.4281,2.419,2.419,2.419,2.419,2.419,2.419,2.419,2.4228,2.4228,2.4228,2.4137,2.4211,2.4248,2.4118,0.0,2.4266,2.4209,0.0,2.419,2.419,0.0,0.0,2.341,2.412,2.4554,2.3961,2.4678,2.5126,2.4847,2.4904,2.4845,2.4526,2.4358,2.4265,2.4318,2.5018,2.5634,2.611,2.6839,2.7039,2.661,2.6697,2.6332,2.5457,2.5553,2.5591,2.5591,2.639,2.7198,2.8063,2.8775,2.9583,3.0398,3.0398,3.0398,3.0398,3.0513,3.0948,3.1641,3.2449,3.2872,3.3141,3.391,3.4757,3.5493,1.6522,1.6522,1.6522,1.6522,1.6522,1.6909,1.8185,1.9132,2.005,2.1071,2.2702,2.3759,2.3759,2.3759,2.3375,2.2389,2.7046,2.7841,2.2649,2.231,2.231,2.231,2.231,2.231,2.231,2.231,2.231,2.231,2.231,2.231,2.231,2.231,2.231,2.231,2.231,2.231,2.2377,2.3646,2.419,2.419,2.419,2.419,2.419,2.419,2.419,2.419,2.419,2.419,2.419,2.419,2.419,2.419,2.419,2.419,2.419,2.419,2.419,2.4228,2.4339,2.4284,2.4228,2.4339,2.4375,2.4339,2.4228,2.4284,2.4339,2.4228,0.0,0.0,0.0,0.0,0.0,0.0,2.4351,2.47,2.4428,2.4897,2.5243,2.5103,2.513,2.5065,2.4818,2.4651,2.4495,2.4375,2.4874,2.5423,2.5974,2.6064,2.6247,2.6591,2.612,2.5668,2.5303,2.5303,2.5553,2.6063,2.6428,2.7294,2.8602,2.8948,2.9583,3.0398,3.0398,3.0398,3.0398,3.0398,3.0621,3.1025,3.1872,3.2795,3.3757,3.4622,3.5199,3.5493,1.6522,1.6522,1.6522,1.6522,1.6993,1.7907,1.9442,2.012,2.1451,2.4353,2.5186,2.5795,2.6607,2.7435,2.7402,2.6065,3.0378,3.0091,2.2784,2.231,2.231,2.231,2.231,2.231,2.231,2.231,2.231,2.231,2.231,2.231,2.231,2.231,2.231,2.231,2.231,2.231,2.2377,2.3646,2.419,2.419,2.419,2.419,2.419,2.419,2.419,2.419,2.419,2.419,2.419,2.419,2.419,2.419,2.419,2.419,2.419,2.419,2.419,2.4228,2.4375,2.4321,2.4247,2.4375,2.4428,2.4375,2.4228,2.4321,2.4375,2.4228,2.419,0.0,0.0,0.0,2.4135,2.3953,0.0,2.4637,2.4469,2.4866,2.5201,2.5293,2.5253,2.5163,2.5022,2.4877,2.4746,2.4591,2.4809,2.5177,2.5703,2.5409,2.5522,2.6217,2.563,2.5303,2.5303,2.5303,2.5736,2.6601,2.6832,2.7717,2.9102,2.9352,2.9794,3.0398,3.0398,3.0398,3.0398,3.0398,3.0533,3.0852,3.1698,3.291,3.4276,3.4911,3.5295,3.5507,1.6522,1.6522,1.6522,1.6522,1.8224,1.9603,1.969,2.1134,2.4312,3.0159,2.5981,2.3528,2.6387,2.9313,3.2171,3.4945,3.0159,2.5642,2.2513,2.231,2.231,2.231,2.231,2.231,2.231,2.231,2.231,2.231,2.231,2.231,2.231,2.231,2.231,2.231,2.231,2.231,2.2377,2.3646,2.419,2.419,2.419,2.419,2.419,2.419,2.419,2.419,2.419,2.419,2.419,2.419,2.419,2.419,2.419,2.419,2.419,2.419,2.419,2.419,2.4209,2.419,2.419,2.4209,2.4209,2.4209,2.419,2.419,2.4209,2.419,2.419,2.419,2.419,2.419,2.4008,2.3334,2.3957,0.0,0.0,2.428,2.4942,2.5253,2.5141,2.501,2.501,2.4877,2.4804,2.479,2.4804,2.4869,2.5024,2.503,2.5118,2.5322,2.5303,2.5303,2.5303,2.5303,2.5736,2.6621,2.7467,2.8294,2.9121,2.9967,3.0359,3.0398,3.0398,3.0398,3.0398,3.0398,3.091,3.1737,3.2545,3.341,3.4199,3.4218,3.4776,3.5501,1.8341,1.8612,1.8612,1.8612,1.9207,2.0085,2.126,2.3579,2.593,2.796,2.6454,2.5592,2.659,3.114,3.5318,3.8311,3.4912,3.1343,2.8383,2.4492,2.231,2.231,2.231,2.3224,2.5169,2.3308,2.231,2.231,2.231,2.231,2.231,2.231,2.231,2.231,2.231,2.231,2.2377,2.3646,2.419,2.419,2.419,2.5474,2.7145,2.5016,2.419,2.419,2.419,2.419,2.419,2.419,2.419,2.419,2.419,2.419,2.419,2.419,2.419,2.419,2.419,2.419,2.4318,2.485,2.4575,2.4337,2.4869,2.4979,2.4832,2.43,2.4612,2.4814,2.43,2.419,2.4117,2.3897,2.4225,2.4416,0.0,2.4527,2.4869,2.5077,2.5163,2.5203,2.5203,2.516,2.5072,2.4937,2.5061,2.5096,2.501,2.5141,2.5224,2.5303,2.5303,2.5572,2.6159,2.6159,2.6871,2.8255,2.8544,2.914,2.9967,3.0275,3.0398,3.0398,3.0398,3.0398,3.0398,3.0398,3.091,3.1775,3.2583,3.343,3.4257,3.4853,3.5257,3.5501,1.9442,2.0208,2.0447,1.9818,2.0208,2.1359,2.353,2.6387,2.7909,2.6826,3.0194,3.2371,3.1562,3.4895,3.7973,3.9918,3.8311,3.5943,3.2966,2.9178,2.6573,2.5507,2.4441,2.5253,2.823,2.5389,2.3866,2.3866,2.2818,2.231,2.231,2.231,2.231,2.231,2.231,2.2552,2.3017,2.3834,2.419,2.4228,2.4493,2.5725,2.7221,2.5134,2.4634,2.4979,2.441,2.419,2.419,2.419,2.419,2.419,2.419,2.419,2.419,2.419,2.419,2.419,2.419,2.441,2.474,2.5274,2.5217,2.5107,2.5366,2.5403,2.5182,2.4373,2.4612,2.4834,2.4377,2.4247,2.4228,2.4303,0.0,2.4393,0.0,2.4578,2.4727,2.4804,2.5041,2.5214,2.5284,2.5303,2.5253,2.513,2.5224,2.5234,2.5111,2.5224,2.5303,2.5303,2.5303,2.5572,2.614,2.6447,2.7294,2.8659,2.8659,2.9275,3.0379,3.0083,3.0121,3.0398,3.0398,3.0398,3.0417,3.0737,3.1371,3.2218,3.3045,3.3891,3.4737,3.5295,3.5528,3.5577,1.9818,2.115,2.1781,2.012,2.1197,2.3308,2.6251,2.92,3.0224,2.7845,3.6856,4.2678,4.0497,4.0254,4.0204,4.0121,4.007,3.8802,3.5825,3.5622,3.437,3.1529,2.8518,2.8197,3.092,2.801,2.6623,2.6911,2.3968,2.253,2.2513,2.2276,2.2209,2.231,2.231,2.2968,2.4112,2.417,2.4228,2.4303,2.5012,2.5076,2.4743,2.4634,2.543,2.6392,2.4777,2.419,2.419,2.419,2.419,2.419,2.419,2.419,2.419,2.419,2.419,2.419,2.419,2.4777,2.5421,2.5458,2.6025,2.641,2.5697,2.5531,2.5293,2.4428,2.4281,2.4358,2.4462,2.4339,2.4247,2.4444,2.4321,2.419,2.419,2.4357,2.4495,2.4512,2.479,2.5077,2.5264,2.5284,2.5303,2.5303,2.5303,2.5303,2.5303,2.5303,2.5303,2.5303,2.5341,2.538,2.5418,2.6294,2.7159,2.8025,2.8025,2.8852,3.0359,2.9544,2.9621,3.0398,3.0398,3.0398,3.0456,3.1352,3.2179,3.2987,3.3853,3.4718,3.5488,3.5488,3.5579,3.5703,2.1401,2.1991,2.2152,2.1721,2.202,2.3308,2.6251,2.8328,3.1874,3.8352,4.1679,4.3286,4.2678,4.2639,4.1943,4.0254,4.007,3.8802,3.5825,3.5622,3.5284,3.4506,3.163,2.9364,2.7892,2.4949,2.5609,3.004,2.7029,2.5575,2.5475,2.2,2.1071,2.231,2.231,2.247,2.2859,2.3792,2.4526,2.5012,2.4949,2.5752,2.6766,2.5005,2.526,2.6392,2.4777,2.419,2.419,2.419,2.419,2.419,2.419,2.419,2.419,2.419,2.419,2.419,2.419,2.4777,2.555,2.6135,2.6447,2.6704,2.709,2.7181,2.6778,2.5384,2.5566,2.5642,2.4505,2.4228,2.4209,2.4266,2.4228,2.419,2.419,2.4247,2.4393,2.4685,2.4799,2.4904,2.5065,2.5214,2.5303,2.5303,2.5303,2.5303,2.5303,2.5303,2.5303,2.5303,2.5928,2.6582,2.7236,2.8044,2.889,2.9756,2.9756,2.9987,3.0379,3.0179,3.0198,3.0398,3.0398,3.0398,3.0456,3.1352,3.2179,3.2987,3.3853,3.4757,3.5577,3.5577,3.5621,3.5717,2.2123,2.3342,2.4644,2.5964,2.6201,2.6529,2.7549,2.9638,3.4082,4.2396,4.3497,4.3497,4.3497,4.26,4.149,4.0204,4.007,3.936,3.7686,3.7567,3.6992,3.5673,3.4015,3.2341,3.0632,2.7706,2.7199,2.9228,2.752,2.6691,2.6657,2.4009,2.2606,2.2361,2.3663,2.4603,2.5189,2.4475,2.4789,2.5646,2.4978,2.5579,0.0,2.5375,2.5592,2.6484,2.5566,2.4795,2.419,2.419,2.419,2.419,2.419,2.419,2.419,2.419,2.4447,2.4722,2.4722,2.5566,2.6557,2.7016,2.7402,2.7677,2.7769,2.7787,2.7438,2.6172,2.6007,2.5827,2.5004,2.4505,2.419,2.419,2.419,2.419,2.419,2.419,2.4284,2.4512,2.4607,2.4697,2.4762,2.5096,2.5303,2.5303,2.5303,2.5303,2.5303,2.5303,2.5303,2.5303,2.6524,2.7217,2.7332,2.889,2.9717,2.9833,2.9833,3.0025,3.0379,3.0006,3.0044,3.0417,3.0814,3.0968,3.1064,3.2295,3.3064,3.3545,3.443,3.5091,3.5562,3.559,3.5682,3.5802,2.3325,2.5524,2.823,3.1241,3.1461,3.1129,3.0935,3.3275,3.678,4.1589,4.2213,4.2543,4.3406,4.175,4.0417,4.0121,4.007,3.9918,3.9529,3.9495,3.8328,3.5723,3.5622,3.5436,3.5047,3.2121,2.9127,2.6116,2.6505,2.6691,2.6691,2.6691,2.5135,2.2412,2.4983,2.7186,2.881,2.6025,2.5337,2.6075,2.5176,2.5235,2.5837,2.5838,2.6132,2.6612,2.6612,2.564,2.4355,2.4355,2.4355,2.4355,2.4355,2.4428,2.4502,2.4502,2.4997,2.5568,2.5568,2.6649,2.7787,2.7787,2.8411,2.8833,2.8117,2.7952,2.7732,2.6924,2.619,2.5738,2.5801,2.5096,2.4447,2.4226,2.4281,2.4318,2.4208,2.419,2.4209,2.4247,2.4393,0.0,2.4559,2.5,2.5264,2.5264,2.5293,2.5303,2.5303,2.5303,2.5303,2.5303,2.6986,2.764,2.7101,2.9294,3.014,2.9602,2.9486,2.9775,3.0379,2.9833,2.9948,3.0609,3.1487,3.1852,3.1987,3.3545,3.4257,3.4449,3.5199,3.552,3.5541,3.5712,3.5896,3.6059,2.867,3.0057,3.1343,3.432,3.2831,3.3405,3.9947,4.1423,4.0267,3.6046,3.5495,3.7533,4.291,4.3142,4.2167,4.0254,4.007,3.9022,3.6569,3.64,3.6163,3.5639,3.5622,3.4472,3.2019,2.9025,2.6031,2.3071,2.5507,2.6691,2.6691,2.6691,2.5135,2.2327,2.2852,2.5279,2.8957,2.8411,2.7258,2.587,2.591,2.6243,2.6674,2.6517,2.6526,2.6612,2.6612,2.5988,2.5201,2.5201,2.5201,2.5201,2.5201,2.564,2.619,2.619,2.6282,2.6392,2.6392,2.7071,2.7787,2.7787,2.8411,2.8957,2.881,2.8796,2.8576,2.775,2.7475,2.7184,2.6565,2.6303,2.575,2.441,2.4759,2.4962,2.4281,2.419,2.4247,2.4445,2.4478,2.4604,2.4898,2.4998,2.5046,2.5046,2.5214,2.5303,2.5303,2.5303,2.5303,2.5303,2.6986,2.8486,2.9706,3.0167,3.1025,3.2237,3.1564,3.0948,3.0436,3.1679,3.1968,3.1525,3.2333,3.2699,3.2776,3.3776,3.4622,3.5295,3.5449,3.5528,3.5676,3.6394,3.681,3.6879,3.2628,3.2256,3.1647,3.3068,3.4283,3.6968,4.2642,4.3497,4.2359,3.9239,3.8817,4.001,4.3149,4.3497,4.3069,4.1961,4.186,4.1239,3.9793,3.9704,3.9175,3.797,3.6434,3.4235,3.1258,2.977,2.6826,2.231,2.5253,2.6691,2.6691,2.6691,2.593,2.4608,2.5409,2.6964,2.8994,2.8994,2.8388,2.742,2.698,2.7041,2.735,2.7261,2.7493,2.7838,2.7838,2.7328,2.6576,2.6153,2.6025,2.6025,2.6025,2.6282,2.6612,2.6612,2.6906,2.7218,2.7218,2.7805,2.8429,2.8429,2.8723,2.8994,2.8994,2.8994,2.8906,2.8503,2.8081,2.7548,2.6759,2.6612,2.6355,2.5566,2.5768,2.5731,2.4924,2.4814,2.4707,2.4376,2.4339,2.4409,2.457,2.4693,2.4864,2.5141,2.5253,2.5303,2.5303,2.5303,2.5514,2.5967,2.7236,2.8486,2.9717,3.0621,3.1487,3.2275,3.2314,3.2102,3.1718,3.2526,3.2699,3.2372,3.3199,3.3564,3.3641,3.4507,3.5122,3.5493,3.5493,3.5759,3.6233,3.6712,3.7264,3.7712,3.5165,3.4252,3.2825,3.1918,3.6159,4.0561,4.3094,4.3497,4.3497,4.3497,4.3497,4.3497,4.3497,4.3497,4.3497,4.3497,4.3497,4.3497,4.3497,4.3497,4.2371,3.9928,3.7115,3.4235,3.1258,3.119,2.8586,2.3241,2.5558,2.6691,2.6691,2.6691,2.6873,2.7238,2.8464,2.8994,2.8994,2.8994,2.8994,2.8925,2.8194,2.8015,2.8157,2.8154,2.8519,2.9067,2.9017,2.8594,2.7952,2.7328,2.6998,2.6869,2.6869,2.6979,2.7126,2.7126,2.7567,2.8062,2.8062,2.8521,2.8994,2.8994,2.8994,2.8994,2.8994,2.8994,2.8994,2.8994,2.8503,2.7805,2.6998,2.6998,2.7016,2.6667,2.6741,2.6576,2.5768,2.5678,2.5346,2.4538,2.4447,2.4393,2.4284,2.441,2.4712,2.5203,2.5243,2.5264,2.5303,2.5476,2.589,2.6582,2.7601,2.864,2.964,3.1006,3.1891,3.2237,3.2872,3.3083,3.291,3.3276,3.3353,3.3218,3.4103,3.4468,3.4526,3.5218,3.5493,3.5507,3.5528,3.6022,3.6781,3.7093,3.7797,3.8624,3.5571,3.7584,3.8064,3.422,3.8816,4.3149,4.3442,4.3497,4.3497,4.3497,4.3497,4.3497,4.3497,4.3497,4.3497,4.3497,4.3497,4.3497,4.3497,4.3497,4.2109,3.8966,3.6742,3.4235,3.1258,3.119,2.9583,2.6285,2.6556,2.6691,2.6691,2.6691,2.7452,2.8791,2.8929,2.8994,2.8994,2.8994,2.8994,2.9021,2.9344,2.942,2.9324,2.9282,2.9297,2.933,2.9089,2.8938,2.8865,2.8792,2.8301,2.7677,2.7677,2.8191,2.8773,2.8773,2.881,2.8906,2.8906,2.8938,2.8994,2.8994,2.8994,2.8994,2.8994,2.8994,2.8994,2.8994,2.8938,2.865,2.7842,2.8282,2.8297,2.6851,2.7218,2.7402,2.6612,2.6502,2.619,2.5384,2.5293,2.5058,2.4518,2.4495,2.4651,2.4998,2.5022,2.5099,2.5284,2.6063,2.6524,2.6601,2.814,2.9775,3.1448,3.1621,3.2468,3.3968,3.4026,3.366,3.2949,3.4545,3.4834,3.4122,3.5007,3.5391,3.5391,3.5468,3.5493,3.552,3.5574,3.6123,3.6977,3.7855,3.8753,3.9689,3.8294,4.0385,4.2228,4.2461,4.3057,4.3497,4.3497,4.3497,4.3497,4.3497,4.3497,4.3497,4.3497,4.3497,4.3497,4.3497,4.3497,4.3497,4.3497,4.3497,4.2047,3.8836,3.6689,3.5064,3.388,3.2104,3.0598,2.9397,2.7588,2.6691,2.6691,2.6691,2.7542,2.8994,2.8994,2.8994,2.8994,2.8994,2.9334,2.9848,3.0037,2.9864,2.9494,2.9474,2.9332,2.9156,2.904,2.8994,2.8994,2.8994,2.8796,2.8521,2.8521,2.8741,2.8994,2.8994,2.8994,2.8994,2.8994,2.8994,2.8994,2.8994,2.8994,2.9122,2.9622,2.9342,2.9122,2.9622,2.9347,2.8883,2.8594,2.8796,2.8773,2.8154,2.8319,2.8246,2.7438,2.6906,2.63,2.5513,2.4961,2.4577,2.434,2.4321,2.4886,2.6285,2.552,2.5088,2.5303,2.614,2.6832,2.7351,2.8506,2.9929,3.1679,3.2179,3.3026,3.4199,3.4737,3.4795,3.4507,3.568,3.6026,3.5718,3.6065,3.5949,3.5507,3.5534,3.5562,3.5612,3.6211,3.6973,3.7855,3.8792,3.9711,4.0613,4.0984,4.2386,4.4213,4.6489,4.5002,4.3497,4.3497,4.3497,4.3497,4.3497,4.3497,4.3497,4.3497,4.3497,4.3497,4.3497,4.3497,4.3497,4.3497,4.3497,4.2047,3.8836,3.7268,3.6249,3.5622,3.3558,3.207,3.119,2.818,2.7148,2.8029,2.7575,2.7946,2.8994,2.8994,2.9141,2.9416,2.9416,2.9799,3.0398,3.0398,3.0142,2.9767,2.9678,2.9456,2.9206,2.9206,2.9181,2.9134,2.9203,2.9206,2.9185,2.9044,2.8994,2.8994,2.8994,2.9159,2.931,2.9049,2.9159,2.9342,2.9342,2.9159,2.925,3.032,2.9934,2.9586,3.0393,2.9916,2.9342,2.9342,2.914,2.8994,2.8994,2.8994,2.8792,2.8227,2.7457,2.6741,2.6153,2.5401,2.4814,2.4575,2.4538,2.5208,2.6805,2.5915,2.5614,2.6379,2.6774,2.7371,2.8217,2.9294,3.0467,3.1698,3.2756,3.3583,3.4199,3.5084,3.5608,3.5892,3.6719,3.7084,3.7084,3.7084,3.6622,3.5853,3.5905,3.58,3.5659,3.6355,3.7306,3.8376,3.9067,4.0196,4.1488,4.3014,4.3479,4.3497,4.3534,4.3516,4.3497,4.3497,4.3497,4.3497,4.3497,4.3497,4.3497,4.3497,4.3497,4.3497,4.3497,4.3497,4.3497,4.3497,4.3497,4.2047,3.8836,3.8676,3.7703,3.565,3.5588,3.4134,3.119,2.818,2.823,3.1111,2.9651,2.8994,2.8994,2.8994,2.9533,3.0367,3.0367,3.0398,3.0398,3.0398,3.0398,3.0355,3.0089,2.9877,2.9696,2.9696,2.9551,2.9414,2.9607,2.9696,2.9607,2.916,2.8994,2.8994,2.8994,2.9567,3.0008,2.9237,2.9586,3.0191,3.0191,2.9604,2.9439,3.1017,3.076,3.0411,3.1219,3.0742,3.0191,3.0191,2.9549,2.8994,2.8994,2.8994,2.8994,2.8975,2.8301,2.7769,2.7769,2.7053,2.6264,2.5476,2.5403,2.556,2.5982,2.5993,2.6901,2.8937,2.8313,2.8255,2.9063,3.0775,3.1679,3.1698,3.3353,3.418,3.4199,3.5084,3.593,3.6719,3.7584,3.7988,3.7988,3.7988,3.7488,3.6699,3.6699,3.6267,3.5601,3.5687,3.6774,3.8305,3.8395,4.0055,4.2288,4.3356,4.3497,4.3497,4.3497,4.3497,4.3497,4.3497,4.3497,4.3497,4.3497,4.3497,4.3497,4.3497,4.3497,4.3497,4.3497,4.3497,4.3497,4.3497,4.3497,4.2047,3.8836,3.8707,3.7738,3.5667,3.5622,3.5165,3.4218,3.1224,2.9748,2.9697,2.9216,2.8994,2.904,2.9678,3.0114,3.0398,3.0398,3.0398,3.0398,3.0398,3.0398,3.0398,3.0311,3.0095,2.9829,2.9729,2.9661,2.9607,2.9678,2.9696,2.9678,2.9514,2.9375,2.9225,2.9044,2.9586,3.0136,2.9898,3.0411,3.1017,3.1017,3.0834,3.0907,3.199,3.2027,3.1751,3.1458,3.1201,3.1017,3.1017,3.0797,3.0467,2.9916,2.9824,2.9641,2.9067,2.8319,2.7787,2.7787,2.709,2.6282,2.5495,2.5897,2.6654,2.7689,2.7743,2.7875,2.8264,2.8563,2.9102,2.9967,3.1641,3.2795,3.3391,3.4526,3.5084,3.5103,3.593,3.7065,3.845,3.8142,3.8348,3.8948,3.8948,3.8496,3.7684,3.7123,3.6746,3.655,3.7214,3.7805,3.8435,3.9604,4.0552,4.1461,4.3497,4.3497,4.3497,4.3497,4.3497,4.3497,4.3497,4.3497,4.3497,4.3497,4.3497,4.3497,4.3497,4.3497,4.3497,4.3497,4.3497,4.3497,4.3497,4.3497,4.2047,3.8836,3.8707,3.8083,3.6768,3.6011,3.5622,3.5622,3.3294,3.1698,3.0815,3.0815,3.102,3.1411,3.0715,3.0398,3.0398,3.0398,3.0398,3.0398,3.0398,3.0398,3.0398,3.0398,3.0267,3.0118,3.0369,3.0178,2.9924,3.0665,3.07,3.0459,3.0596,3.0621,3.0415,2.9541,2.9984,3.0752,3.055,3.1318,3.2135,3.2135,3.1912,3.189,3.26,3.2893,3.2908,3.2394,3.2063,3.1843,3.1843,3.1586,3.1127,3.0338,3.021,2.9934,2.9104,2.8319,2.7915,2.8209,2.7824,2.72,2.6374,2.7291,2.8246,2.9009,2.9557,2.9851,2.9783,2.9967,3.0467,3.1314,3.2987,3.4141,3.468,3.5853,3.6276,3.5968,3.7123,3.8257,3.9277,3.9046,3.9254,3.9805,3.9805,3.9361,3.8562,3.8072,3.7656,3.7411,3.8006,3.8421,3.8848,3.9941,4.0957,4.1953,4.3497,4.3497,4.3497,4.3497,4.3497,4.3497,4.3497,4.3497,4.3497,4.3497,4.3497,4.3497,4.3497,4.3497,4.3497,4.3497,4.3497,4.3497,4.3497,4.3497,4.2158,3.9166,3.8817,3.8707,3.8707,3.6808,3.5708,3.5504,3.4351,3.3807,3.3788,3.3876,3.4489,3.5339,3.1917,3.0398,3.0398,3.0398,3.0398,3.0398,3.0398,3.0533,3.0725,3.0494,3.0456,3.0667,3.1448,3.1078,3.0476,3.2282,3.241,3.1828,3.2155,3.2419,3.2248,3.0389,3.0827,3.1813,3.1299,3.2298,3.3507,3.3563,3.3053,3.2636,3.3127,3.3617,3.3954,3.3899,3.3293,3.2761,3.2706,3.2063,3.1274,3.043,3.0283,2.9989,2.9104,2.8411,2.8246,2.8975,2.9177,2.8943,2.8117,2.9457,3.0283,3.0069,3.1485,3.2585,3.3071,3.2545,3.2487,3.3064,3.4718,3.5622,3.568,3.7219,3.7623,3.6911,3.845,3.9258,3.9411,4.0085,4.0446,4.0519,4.0519,4.0096,3.9403,3.9326,3.8852,3.8183,3.8183,3.8686,3.9414,3.9606,4.1221,4.3342,4.3497,4.3497,4.3497,4.3497,4.3497,4.3497,4.3497,4.3497,4.3497,4.3497,4.3497,4.3497,4.3497,4.3497,4.3497,4.3497,4.3497,4.3497,4.3497,4.3497,4.3149,4.2396,4.001,3.8707,3.8707,3.8201,3.6739,3.4235,3.3943,3.3807,3.3815,3.4696,3.5239,3.5339,3.1917,3.0398,3.0398,3.0398,3.0398,3.0398,3.0398,3.1955,3.4013,3.1379,3.1198,3.2275,3.2083,3.2097,3.2282,3.2744,3.2776,3.2628,3.2722,3.2675,3.2425,3.1561,3.2122,3.2995,3.2864,3.36,3.4544,3.5148,3.5469,3.5608,3.5549,3.5607,3.5514,3.4853,3.455,3.422,3.3642,3.3366,3.2761,3.1347,3.1109,3.0613,2.9195,2.9365,2.9696,2.9898,3.1017,3.1439,3.0613,3.1458,3.2167,3.2524,3.3526,3.4336,3.4864,3.6546,3.6699,3.4949,3.5892,3.6738,3.7411,3.7796,3.8238,3.8681,3.843,3.8969,4.02,3.9777,3.9981,4.0642,4.0642,4.0546,4.0314,3.9649,3.9232,3.9022,3.9022,3.9161,3.9483,4.0176,4.1267,4.2517,4.4463,4.4463,4.4463,4.4463,4.3943,4.3497,4.3497,4.3497,4.3497,4.3497,4.3497,4.3497,4.3497,4.3497,4.3497,4.3497,4.3497,4.3497,4.3497,4.3497,4.3497,4.3497,4.1827,4.0212,3.8726,3.8707,3.7826,3.6046,3.4541,3.4062,3.4574,3.4676,3.4997,3.5416,3.3551,3.1859,3.0494,3.2071,3.1821,3.0398,3.0398,3.2436,3.5315,3.3436,3.2795,3.291,3.3026,3.2916,3.2847,3.3788,3.3742,3.3384,3.3772,3.4155,3.4381,3.398,3.3734,3.3709,3.4213,3.4973,3.5776,3.6464,3.6656,3.6663,3.6509,3.638,3.6174,3.5697,3.5605,3.5349,3.4504,3.4357,3.3697,3.1715,3.1384,3.0834,2.9214,2.9696,3.0338,3.0705,3.2173,3.2981,3.254,3.4065,3.4902,3.4562,3.6159,3.7183,3.7224,3.9277,3.9277,3.6719,3.7815,3.8488,3.8584,3.895,3.9585,4.0431,4.0373,4.0604,4.1085,4.0642,4.0492,4.061,4.061,4.061,4.0571,4.0088,3.9879,3.9888,4.0356,4.0301,4.0164,4.1518,4.2349,4.2927,4.5586,4.5586,4.5586,4.5586,4.4436,4.3497,4.3497,4.3497,4.3497,4.3497,4.3497,4.3497,4.3497,4.3497,4.3597,4.3804,4.3804,4.3804,4.3804,4.3804,4.3726,4.3532,4.3497,4.2213,3.9478,3.8946,3.8707,3.8707,3.5404,3.4288,3.5239,3.4423,3.4574,3.5493,3.5493,3.3878,3.1359,3.4263,3.382,3.1167,3.1167,3.2897,3.5493,3.5493,3.4584,3.3391,3.4122,3.3777,3.3203,3.4932,3.4855,3.4219,3.5078,3.5971,3.669,3.6578,3.5534,3.4661,3.56,3.644,3.7099,3.7471,3.7322,3.7035,3.7002,3.6842,3.6633,3.6505,3.6468,3.6211,3.5367,3.5082,3.4302,3.2118,3.1659,3.1017,2.942,3.0081,3.0999,3.1678,3.3403,3.4596,3.4706,3.6931,3.7941,3.6901,3.8993,4.0155,3.9892,4.1335,4.1123,3.8834,4.0142,4.0489,3.9681,4.0354,4.1066,4.1816,4.2681,4.272,4.2008,4.2008,4.1585,4.0893,4.0893,4.0816,4.07,4.0727,4.0727,4.0815,4.1679,4.1651,4.1344,4.2992,4.3697,4.3925,4.5586,4.5586,4.5586,4.5586,4.4436,4.3497,4.3497,4.3497,4.3497,4.3497,4.3497,4.3497,4.3497,4.3497,4.3986,4.5163,4.5264,4.5264,4.5264,4.5264,4.4743,4.3548,4.3497,4.3259,4.2763,4.0084,3.8707,3.8707,3.5404,3.3876,3.4068,3.487,3.5335,3.5493,3.5493,3.5218,3.4724,3.5262,3.5185,3.4705,3.4705,3.5045,3.5493,3.5493,3.5334,3.5122,3.5257,3.5172,3.5081,3.5397,3.5383,3.5388,3.6195,3.6575,3.6839,3.7536,3.754,3.7382,3.755,3.8022,3.8366,3.7957,3.8275,3.8664,3.8435,3.8352,3.8138,3.7441,3.7294,3.7055,3.6248,3.5514,3.4642,3.3605,3.2871,3.1861,3.0246,3.188,3.3293,3.3403,3.6101,3.8212,3.8891,3.9592,4.0349,4.1084,4.1178,4.1589,4.2453,4.3393,4.3412,4.2335,4.2566,4.2277,4.1431,4.1546,4.1681,4.1816,4.2681,4.3028,4.2893,4.2893,4.2816,4.2701,4.2701,4.2277,4.162,4.1724,4.177,4.1788,4.2005,4.2512,4.3178,4.3494,4.4106,4.4804,4.5586,4.5586,4.5586,4.5586,4.5058,4.4382,4.3631,4.3497,4.3497,4.3497,4.3497,4.3772,4.4542,4.4619,4.4881,4.5531,4.5586,4.5586,4.5586,4.5586,4.5303,4.4669,4.4619,4.3446,4.0979,3.946,3.8707,3.8707,3.7184,3.5855,3.4716,3.5254,3.5493,3.5493,3.5493,3.5493,3.5493,3.5493,3.5493,3.5493,3.5493,3.5493,3.5493,3.5493,3.5493,3.5493,3.5493,3.5417,3.5362,3.5945,3.6051,3.609,3.7094,3.7719,3.818,3.8584,3.87,3.865,3.8482,3.9147,3.9781,3.9317,3.9694,4.0136,4.0024,3.9992,3.99,3.9515,3.9093,3.8542,3.7734,3.656,3.544,3.4596,3.3421,3.2504,3.2173,3.3476,3.478,3.5679,3.79,3.9718,4.0718,4.1502,4.2096,4.2367,4.2756,4.3192,4.372,4.4105,4.4355,4.4432,4.3566,4.2912,4.2508,4.2931,4.3143,4.3162,4.4028,4.4201,4.3739,4.3739,4.3508,4.3104,4.3104,4.2874,4.2508,4.2564,4.2621,4.2703,4.3276,4.3533,4.3716,4.4694,4.5036,4.5078,4.5586,4.5586,4.5586,4.5586,4.5586,4.5244,4.4146,4.3693,4.3631,4.3943,4.3986,4.4409,4.5475,4.5586,4.5586,4.5586,4.5586,4.5586,4.5586,4.5586,4.5586,4.5586,4.5586,4.3431,3.8793,3.8707,3.8707,3.8707,3.897,3.8271,3.6661,3.6661,3.6526,3.6257,3.6142,3.5872,3.5493,3.5493,3.5493,3.5493,3.5493,3.5968,3.6661,3.6661,3.643,3.6084,3.6084,3.5944,3.5892,3.6718,3.6865,3.6922,3.8174,3.9046,3.9623,3.9815,3.9873,3.9733,3.905,3.9909,4.0865,4.0347,4.0652,4.1111,4.1111,4.1111,4.1111,4.1111,4.0616,3.9992,3.9368,3.8102,3.6853,3.5981,3.4835,3.41,3.4357,3.5469,3.6721,3.804,3.9649,4.1104,4.2202,4.317,4.3577,4.3209,4.4057,4.4605,4.4605,4.4605,4.4913,4.5566,4.4162,4.3374,4.3374,4.3989,4.4297,4.4316,4.5182,4.524,4.4605,4.4605,4.4259,4.3682,4.3682,4.3566,4.3374,4.3447,4.3498,4.3632,4.4452,4.4523,4.4341,4.5735,4.5815,4.5304,4.5586,4.5586,4.5586,4.5586,4.5586,4.5568,4.5457,4.4327,4.3974,4.5264,4.5457,4.5475,4.5586,4.5586,4.5586,4.5586,4.5586,4.5586,4.5586,4.5586,4.5586,4.5586,4.5586,4.3431,3.8793,3.8707,3.8707,3.8707,3.9821,4.0307,4.0123,4.0123,3.9565,3.8527,3.8046,3.6949,3.5493,3.5493,3.5493,3.5493,3.5493,3.7353,4.0123,4.0123,3.9161,3.7815,3.7815,3.78,3.78,3.7892,3.7877,3.8166,3.9796,4.0354,4.0566,4.1373,4.1623,4.124,3.9551,4.029,4.1295,4.0204,4.0538,4.1111,4.1111,4.1111,4.1111,4.1111,4.1056,4.1001,4.0946,4.0212,3.9368,3.856,3.834,3.7753,3.6321,3.8359,4.0049,4.0179,4.1879,4.3396,4.429,4.474,4.4941,4.4925,4.5285,4.549,4.549,4.549,4.5528,4.5586,4.4701,4.4201,4.4201,4.4259,4.4297,4.4316,4.5182,4.5566,4.549,4.549,4.547,4.5413,4.5413,4.4951,4.4234,4.4475,4.4597,4.4612,4.4884,4.536,4.5933,4.6074,4.6,4.5862,4.5586,4.5586,4.5586,4.5586,4.5586,4.5586,4.5586,4.5142,4.4992,4.5531,4.5586,4.5586,4.5586,4.5586,4.5586,4.5586,4.5586,4.5586,4.5586,4.5586,4.5586,4.5586,4.5586,4.379,3.9897,3.9821,3.9821,3.9821,4.0266,4.0489,4.0489,4.0489,4.0258,3.9796,3.8892,3.7373,3.5584,3.6622,3.7642,3.8411,3.6353,3.7507,4.0489,4.0489,4.0085,3.945,3.8738,3.8277,3.8084,3.8623,3.8815,3.8988,4.0142,4.0873,4.1437,4.2104,4.2642,4.2694,4.1076,4.18,4.2762,4.192,4.2298,4.2834,4.2647,4.2598,4.2598,4.2598,4.2194,4.1846,4.1846,4.0781,3.9955,4.0175,3.935,3.8909,3.9489,4.0477,4.139,4.2119,4.334,4.4323,4.4858,4.503,4.5201,4.5381,4.5513,4.5586,4.5586,4.5586,4.5586,4.5586,4.5278,4.5105,4.5105,4.5105,4.5105,4.5105,4.5432,4.5586,4.5586,4.5586,4.5651,4.5723,4.5635,4.5459,4.5235,4.5249,4.5312,4.5382,4.5481,4.5687,4.5981,4.5981,4.5995,4.6033,4.5586,4.5586,4.5586,4.5586,4.5586,4.5586,4.5586,4.5586,4.5586,4.5586,4.5586,4.5586,4.5586,4.5586,4.5665,4.5808,4.582,4.582,4.582,4.5692,4.5586,4.5586,4.5586,4.4489,4.2143,4.1046,4.0489,4.0489,4.0489,4.1046,4.2066,4.0989,4.0489,4.0469,3.9681,3.8488,3.7161,3.8296,3.945,4.0296,3.8007,3.845,4.0489,4.0489,4.0489,4.0392,3.9604,3.9104,3.8911,3.9796,4.0085,4.0277,4.1354,4.2104,4.2706,4.335,4.3752,4.3804,4.3061,4.3521,4.3946,4.292,4.3256,4.3772,4.3529,4.3497,4.3497,4.3497,4.3057,4.2671,4.2671,4.1866,4.1254,4.1442,4.0948,4.0874,4.1837,4.2379,4.2975,4.3767,4.4493,4.5011,4.5243,4.5243,4.5342,4.5586,4.5586,4.5586,4.5586,4.5586,4.5586,4.5586,4.5586,4.5586,4.5586,4.5586,4.5586,4.5586,4.5651,4.5665,4.5665,4.5665,4.5723,4.5796,4.5648,4.5648,4.5733,4.5677,4.5723,4.5809,4.582,4.5859,4.5862,4.589,4.5944,4.6008,4.5586,4.5586,4.5586,4.5586,4.5586,4.5586,4.5586,4.5586,4.5586,4.5586,4.5586,4.5586,4.5586,4.5603,4.5783,4.6267,4.6308,4.6308,4.6308,4.5859,4.5586,4.5586,4.5586,4.5586,4.5586,4.2239,4.0489,4.0489,4.0489,4.2239,4.549,4.2104,4.0527,4.0489,4.0489,4.0489,4.0489,4.0489,4.0489,4.0489,4.0489,4.0489,4.0489,4.0489,4.0508,4.0508,4.0508,4.0508,4.0642,4.1527,4.1816,4.2104,4.3778,4.4297,4.447,4.5336,4.4989,4.4489,4.5355,4.5342,4.4664,4.276,4.291,4.3479,4.3497,4.3497,4.3497,4.3497,4.3479,4.3479,4.3479,4.3772,4.3633,4.2481,4.3602,4.4173,4.2986,4.4153,4.5096,4.5096,4.54,4.5586,4.5586,4.5586,4.5586,4.5586,4.5586,4.5586,4.5586,4.5586,4.5586,4.5586,4.5586,4.5586,4.5586,4.5586,4.5586,4.5603,4.5733,4.5796,4.5796,4.5796,4.5796,4.5796,4.5648,4.5586,4.562,4.5747,4.5796,4.5809,4.5872,4.5861,4.5822,4.5872,4.5861,4.5828,4.5586,4.5586,4.5586,4.5586,4.5586,4.5586,4.5586,4.5586,4.5586,4.5586,4.5586,4.5586,4.5586,4.5901,4.616,4.6289,4.6308,4.6308,4.6308,4.5859,4.5586,4.5586,4.5586,4.5586,4.5586,4.2239,4.0489,4.0489,4.0489,4.1008,4.2047,4.3431,4.2797,4.0489,4.0489,4.0489,4.0489,4.0489,4.0489,4.0489,4.0489,4.0489,4.0489,4.0489,4.0989,4.1681,4.1681,4.195,4.2354,4.2624,4.272,4.2893,4.3951,4.4297,4.447,4.5336,4.5413,4.5223,4.5246,4.518,4.4909,4.4119,4.3879,4.3804,4.3529,4.3497,4.3497,4.3497,4.3712,4.3849,4.3849,4.4165,4.4298,4.3962,4.4296,4.4556,4.444,4.4813,4.5201,4.5419,4.555,4.5586,4.5586,4.5586,4.5586,4.5586,4.5586,4.5586,4.5586,4.5586,4.5586,4.5586,4.5586,4.5586,4.5586,4.5586,4.5586,4.5586,4.5635,4.5648,4.5648,4.5648,4.5708,4.5796,4.5648,4.5648,4.5733,4.5696,4.5648,4.5665,4.5688,4.5692,4.568,4.579,4.5859,4.5891,4.5586,4.5586,4.5586,4.5586,4.5586,4.5586,4.5586,4.5586,4.5586,4.5586,4.5586,4.5661,4.5859,4.6132,4.6308,4.6308,4.6308,4.6308,4.6308,4.5859,4.5586,4.5586,4.4297,4.3566,4.3566,4.1546,4.0489,4.0489,4.0489,4.0489,4.0566,4.3989,4.3778,4.0489,4.0489,4.0489,4.0489,4.0489,4.0489,4.0489,4.0489,4.0489,4.0642,4.1989,4.2527,4.2585,4.2797,4.297,4.3143,4.347,4.3797,4.4162,4.4662,4.4797,4.4913,4.5451,4.5586,4.5568,4.5342,4.5201,4.5052,4.4849,4.4527,4.4175,4.3974,4.3931,4.3931,4.3931,4.4106,4.4233,4.4233,4.4535,4.4757,4.4606,4.4806,4.5011,4.5096,4.5222,4.5362,4.5568,4.5586,4.5586,4.5586,4.5586,4.5586,4.5586,4.5586,4.5586,4.5586,4.5932,4.6105,4.6105,4.6413,4.6586,4.6586,4.6586,4.6259,4.5586,4.5648,4.568,4.568,4.568,4.5718,4.5796,4.5648,4.5651,4.5723,4.5635,4.5586,4.5603,4.5648,4.568,4.5708,4.5867,4.5946,4.5995,4.5586,4.5586,4.5586,4.5586,4.5586,4.5586,4.5586,4.5586,4.5586,4.5586,4.5651,4.5832,4.6247,4.6308,4.6308,4.6308,4.6268,4.6245,4.6245,4.5844,4.5586,4.5586,4.2604,4.0796,4.0508,4.0489,4.0489,4.0489,4.0489,4.0662,4.1008,4.3816,4.347,4.0489,4.0489,4.0662,4.095,4.095,4.095,4.0966,4.1003,4.0998,4.1301,4.4341,4.4572,4.3304,4.3805,4.3692,4.3445,4.4179,4.4932,4.5586,4.5586,4.5586,4.5586,4.5586,4.5603,4.562,4.562,4.54,4.5163,4.5163,4.4924,4.4657,4.4606,4.458,4.458,4.458,4.4606,4.465,4.4624,4.4896,4.5071,4.4777,4.5239,4.5514,4.5297,4.5515,4.572,4.572,4.572,4.572,4.572,4.572,4.574,4.5817,4.5817,4.5817,4.5817,4.6586,4.7009,4.7009,4.7721,4.8105,4.8105,4.8105,4.7336,4.5817,4.5873,4.5886,4.5886,4.5808,4.5783,4.5789,4.5648,4.5586,4.5586,4.5586,4.5603,4.5618,4.5761,4.5809,4.582,4.604,4.6108,4.6117,4.5586,4.5586,4.5586,4.5586,4.5586,4.5586,4.5586,4.5586,4.5586,4.5586,4.593,4.6192,4.6289,4.6308,4.6308,4.6308,4.5955,4.575,4.575,4.5665,4.5586,4.5586,4.4874,4.3239,4.0546,4.0489,4.0489,4.0489,4.0489,4.1854,4.4451,4.2508,4.12,4.0489,4.0489,4.1989,4.4489,4.4489,4.4489,4.4537,4.4883,4.491,4.4725,4.4673,4.4528,4.4365,4.4481,4.4812,4.523,4.5288,4.5432,4.5586,4.5586,4.5586,4.5586,4.5586,4.568,4.5761,4.5761,4.5694,4.5665,4.5665,4.5524,4.5243,4.4707,4.458,4.458,4.458,4.4825,4.4919,4.465,4.5096,4.5592,4.5871,4.5744,4.5799,4.6416,4.6569,4.6624,4.6624,4.6624,4.6624,4.6624,4.6624,4.6874,4.7509,4.7567,4.7567,4.7567,4.774,4.7836,4.7836,4.8009,4.8105,4.8105,4.8105,4.7913,4.7548,4.6947,4.6656,4.6637,4.5943,4.5651,4.5651,4.562,4.5586,4.5586,4.5586,4.5665,4.5761,4.5783,4.5825,4.59,4.6059,4.6108,4.6117,4.5586,4.5586,4.5586,4.5586,4.5586,4.5586,4.5586,4.5586,4.5586,4.5586,4.6013,4.6308,4.6308,4.6308,4.6219,4.599,4.5742,4.5586,4.5586,4.5586,4.5586,4.5586,4.5586,4.4759,4.297,4.1316,4.0489,4.0489,4.2124,4.3835,4.5547,4.3758,4.2931,4.2854,4.1219,4.2393,4.5586,4.5586,4.5586,4.5632,4.6104,4.6223,4.6026,4.5445,4.528,4.5363,4.5293,4.5502,4.579,4.5648,4.5648,4.5699,4.5699,4.5722,4.5744,4.5744,4.5789,4.5859,4.5859,4.582,4.5796,4.5796,4.5692,4.5513,4.5161,4.5096,4.5096,4.5096,4.5222,4.5417,4.5652,4.5975,4.6434,4.7067,4.6954,4.6951,4.7413,4.7471,4.7471,4.7471,4.7471,4.7471,4.7471,4.7471,4.7663,4.8067,4.8105,4.8105,4.8105,4.849,4.8721,4.8721,4.9125,4.9336,4.9336,4.9336,4.9336,4.9336,4.8067,4.7471,4.7451,4.6605,4.622,4.622,4.622,4.622,4.6219,4.6262,4.6298,4.639,4.6513,4.6575,4.669,4.7221,4.7176,4.6827,4.5586,4.5586,4.5586,4.5586,4.5586,4.5797,4.6374,4.597,4.5586,4.5586,4.5948,4.617,4.617,4.617,4.6027,4.5635,4.5586,4.5586,4.5586,4.5586,4.5586,4.5586,4.5586,4.5586,4.5586,4.2816,4.1085,4.0489,4.3912,4.5586,4.5586,4.5586,4.5586,4.547,4.2624,4.2951,4.5586,4.5586,4.5648,4.575,4.6136,4.6308,4.6289,4.6179,4.6108,4.6092,4.5967,4.5872,4.5794,4.5645,4.5722,4.5872,4.5861,4.5881,4.5935,4.5907,4.5899,4.5899,4.5899,4.5839,4.5796,4.5796,4.5692,4.5586,4.5586,4.5586,4.5586,4.5586,4.5586,4.5855,4.6646,4.6838,4.7183,4.8087,4.8145,4.8144,4.8298,4.8317,4.8317,4.8317,4.8317,4.8317,4.8317,4.8317,4.8375,4.8529,4.8548,4.8548,4.8548,4.9221,4.9625,4.9625,5.0317,5.0702,5.0702,5.0702,5.0702,5.0664,4.9221,4.8471,4.8298,4.749,4.7105,4.7105,4.7105,4.7123,4.7137,4.7197,4.7256,4.7323,4.7548,4.7639,4.7767,4.8592,4.8437,4.7812,4.5586,4.5586,4.5586,4.5586,4.5586,4.6586,4.9548,4.749,4.5586,4.5586,4.5665,4.5688,4.5688,4.5688,4.5661,4.5603,4.5586,4.5586,4.5586,4.5586,4.5586,4.5586,4.5586,4.5586,4.5586,4.5143,4.3451,4.0489,4.3912,4.5586,4.5586,4.5586,4.5586,4.5566,4.5105,4.5163,4.5586,4.5586,4.5825,4.6219,4.6268,4.6308,4.6308,4.6288,4.6198,4.6104,4.608,4.5988,4.5862,4.5658,4.589,4.6219,4.6098,4.6073,4.6053,4.5935,4.5899,4.5899,4.5899,4.5839,4.5796,4.5796,4.5692,4.5586,4.5586,4.5586,4.5586,4.5586,4.5586,4.5763,4.6273,4.6666,4.7319,4.8586,4.8411,4.8355,4.9125,4.9221,4.9221,4.9221,4.9221,4.9221,4.9221,4.9221,4.9529,5.0279,5.0337,5.0337,5.0337,5.0452,5.051,5.051,5.0625,5.0702,5.0702,5.0702,5.0702,5.0702,5.0452,4.9952,4.9183,4.8336,4.7952,4.7952,4.7952,4.7998,4.8111,4.812,4.8252,4.8469,4.8508,4.8597,4.871,4.8847,4.8828,4.8711,4.5586,4.5586,4.5586,4.5586,4.5586,4.674,5.0164,4.9413,4.7759,4.5836,4.5586,4.5586,4.5586,4.5586,4.5586,4.5586,4.5586,4.5586,4.5586,4.5586,4.5586,4.5586,4.5586,4.5586,4.5586,4.5586,4.4855,4.3335,4.4855,4.5586,4.5586,4.5586,4.5586,4.5586,4.5586,4.5756,4.5998,4.5998,4.6099,4.6308,4.6308,4.6308,4.6308,4.6308,4.6223,4.608,4.5963,4.5929,4.5862,4.5658,4.592,4.6289,4.6221,4.6215,4.6186,4.6047,4.6013,4.6006,4.5907,4.5839,4.5912,4.6358,4.604,4.5836,4.6778,4.6644,4.6182,4.5701,4.599,4.653,4.7184,4.7838,4.8645,4.9735,4.972,4.9683,5.0067,5.0125,5.0125,5.0125,5.0125,5.0125,5.0125,5.0529,5.0971,5.1337,5.1375,5.1375,5.1375,5.0933,5.0702,5.0702,5.1144,5.1375,5.1375,5.1856,5.2106,5.2106,5.2106,5.1395,5.0087,4.9221,4.8836,4.8836,4.8836,4.8853,4.8935,4.9078,4.9207,4.9328,4.9489,4.9841,5.0293,5.0293,5.0019,4.9629]}]]